[[{"header":{"parameterUnit":"m.s-1","parameterCategory":1,"la1":30.6,"la2":28.766,"lo1":-90.7593,"lo2":-88.6598,"dy":0.0162,"dx":0.0183,"nx":116,"ny":114,"refTime":"2023-06-09T06:00:00:Z","depth":0,"parameterNumber":2,"parameterNumberName":"U-component_of_WINDS"},"data":[0.0,0.0,0.0,0.0,0.0,0.0,0.0,0.0,0.0,0.0,0.0,0.0,0.0,0.0,0.0,0.0,0.0,0.0,0.0,0.0,0.0,0.0,0.0,0.0,0.0,0.0,0.0,0.0,0.0,0.0,0.0,0.0,0.0,0.0,0.0,0.0,0.0,0.0,0.0,0.0,0.0,0.0,0.0,0.0,0.0,0.0,0.0,0.0,0.0,0.0,0.0,0.0,0.0,0.0,0.0,0.0,0.0,0.0,0.0,0.0,0.0,0.0,0.0,0.0,0.0,0.0,0.0,0.0,0.0,0.0,0.0,0.0,0.0,0.0,0.0,0.0,0.0,0.0,0.0,0.0,0.0,0.0,0.0,0.0,0.0,0.0,0.0,0.0,0.0,0.0,0.0,0.0,0.0,0.0,0.0,0.0,0.0,0.0,0.0,0.0,0.0,0.0,0.0,0.0,0.0,0.0,0.0,0.0,0.0,0.0,0.0,0.0,0.0,0.0,0.0,0.0,0.0,0.0,0.0,0.0,0.0,0.0,0.0,0.0,0.0,0.0,0.0,0.0,0.0,0.0,0.0,0.0,0.0,0.0,0.0,0.0,0.0,0.0,0.0,0.0,0.0,0.0,0.0,0.0,0.0,0.0,0.0,0.0,0.0,0.0,0.0,0.0,0.0,0.0,0.0,0.0,0.0,0.0,0.0,0.0,0.0,0.0,0.0,0.0,0.0,0.0,0.0,0.0,0.0,0.0,0.0,0.0,0.0,0.0,0.0,0.0,0.0,0.0,0.0,0.0,0.0,0.0,0.0,0.0,0.0,0.0,0.0,0.0,0.0,0.0,0.0,0.0,0.0,0.0,0.0,0.0,0.0,0.0,0.0,0.0,0.0,0.0,0.0,0.0,0.0,0.0,0.0,0.0,0.0,0.0,0.0,0.0,0.0,0.0,0.0,0.0,0.0,0.0,0.0,0.0,0.0,0.0,0.0,0.0,0.0,0.0,0.0,0.0,0.0,0.0,0.0,0.0,0.0,0.0,0.0,0.0,0.0,0.0,0.0,0.0,0.0,0.0,0.0,0.0,0.0,0.0,0.0,0.0,0.0,0.0,0.0,0.0,0.0,0.0,0.0,0.0,0.0,0.0,0.0,0.0,0.0,0.0,0.0,0.0,0.0,0.0,0.0,0.0,0.0,0.0,0.0,0.0,0.0,0.0,0.0,0.0,0.0,0.0,0.0,0.0,0.0,0.0,0.0,0.0,0.0,0.0,0.0,0.0,0.0,0.0,0.0,0.0,0.0,0.0,0.0,0.0,0.0,0.0,0.0,0.0,0.0,0.0,0.0,0.0,0.0,0.0,0.0,0.0,0.0,0.0,0.0,0.0,0.0,0.0,0.0,0.0,0.0,0.0,0.0,0.0,0.0,0.0,0.0,0.0,0.0,0.0,0.0,0.0,0.0,0.0,0.0,0.0,0.0,0.0,0.0,0.0,0.0,0.0,0.0,0.0,0.0,0.0,0.0,0.0,0.0,0.0,0.0,0.0,0.0,0.0,0.0,0.0,0.0,0.0,0.0,0.0,0.0,0.0,0.0,0.0,0.0,0.0,0.0,0.0,0.0,0.0,0.0,0.0,0.0,0.0,0.0,0.0,0.0,0.0,0.0,0.0,0.0,0.0,0.0,0.0,0.0,0.0,0.0,0.0,0.0,0.0,0.0,0.0,0.0,0.0,0.0,0.0,0.0,0.0,0.0,0.0,0.0,0.0,0.0,0.0,0.0,0.0,0.0,0.0,0.0,0.0,0.0,0.0,0.0,0.0,0.0,0.0,0.0,0.0,0.0,0.0,0.0,0.0,0.0,0.0,0.0,0.0,0.0,0.0,0.0,0.0,0.0,0.0,0.0,0.0,0.0,0.0,0.0,0.0,0.0,0.0,0.0,0.0,0.0,0.0,0.0,0.0,0.0,0.0,0.0,0.0,0.0,0.0,0.0,0.0,0.0,0.0,0.0,0.0,0.0,0.0,0.0,0.0,0.0,0.0,0.0,0.0,0.0,0.0,0.0,0.0,0.0,0.0,0.0,0.0,0.0,0.0,0.0,0.0,0.0,0.0,0.0,0.0,0.0,0.0,0.0,0.0,0.0,0.0,0.0,0.0,0.0,0.0,0.0,0.0,0.0,0.0,0.0,0.0,0.0,0.0,0.0,0.0,0.0,0.0,0.0,0.0,0.0,0.0,0.0,0.0,0.0,0.0,0.0,0.0,0.0,0.0,0.0,0.0,0.0,0.0,0.0,0.0,0.0,0.0,0.0,0.0,0.0,0.0,0.0,0.0,0.0,0.0,0.0,0.0,0.0,0.0,0.0,0.0,0.0,0.0,0.0,0.0,0.0,0.0,0.0,0.0,0.0,0.0,0.0,0.0,0.0,0.0,0.0,0.0,0.0,0.0,0.0,0.0,0.0,0.0,0.0,0.0,0.0,0.0,0.0,0.0,0.0,0.0,0.0,0.0,0.0,0.0,0.0,0.0,0.0,0.0,0.0,0.0,0.0,0.0,0.0,0.0,0.0,0.0,0.0,0.0,0.0,0.0,0.0,0.0,0.0,0.0,0.0,0.0,0.0,0.0,0.0,0.0,0.0,0.0,0.0,0.0,0.0,0.0,0.0,0.0,0.0,0.0,0.0,0.0,0.0,0.0,0.0,0.0,0.0,0.0,0.0,0.0,0.0,0.0,0.0,0.0,0.0,0.0,0.0,0.0,0.0,0.0,0.0,0.0,0.0,0.0,0.0,0.0,0.0,0.0,0.0,0.0,0.0,0.0,0.0,0.0,0.0,0.0,0.0,0.0,0.0,0.0,0.0,0.0,0.0,0.0,0.0,0.0,0.0,0.0,0.0,0.0,0.0,0.0,0.0,0.0,0.0,0.0,0.0,0.0,0.0,0.0,0.0,0.0,0.0,0.0,0.0,0.0,0.0,0.0,0.0,0.0,0.0,0.0,0.0,0.0,0.0,0.0,0.0,0.0,0.0,0.0,0.0,0.0,0.0,0.0,0.0,0.0,0.0,0.0,0.0,0.0,0.0,0.0,0.0,0.0,0.0,0.0,0.0,0.0,0.0,0.0,0.0,0.0,0.0,0.0,0.0,0.0,0.0,0.0,0.0,0.0,0.0,0.0,0.0,0.0,0.0,0.0,0.0,0.0,0.0,0.0,0.0,0.0,0.0,0.0,0.0,0.0,0.0,0.0,0.0,0.0,0.0,0.0,0.0,0.0,0.0,0.0,0.0,0.0,0.0,0.0,0.0,0.0,0.0,0.0,0.0,0.0,0.0,0.0,0.0,0.0,0.0,0.0,0.0,0.0,0.0,0.0,0.0,0.0,0.0,0.0,0.0,0.0,0.0,0.0,0.0,0.0,0.0,0.0,0.0,0.0,0.0,0.0,0.0,0.0,0.0,0.0,0.0,0.0,0.0,0.0,0.0,0.0,0.0,0.0,0.0,0.0,0.0,0.0,0.0,0.0,0.0,0.0,0.0,0.0,0.0,0.0,0.0,0.0,0.0,0.0,0.0,0.0,0.0,0.0,0.0,0.0,0.0,0.0,0.0,0.0,0.0,0.0,0.0,0.0,0.0,0.0,0.0,0.0,0.0,0.0,0.0,0.0,0.0,0.0,0.0,0.0,0.0,0.0,0.0,0.0,0.0,0.0,0.0,0.0,0.0,0.0,0.0,0.0,0.0,0.0,0.0,0.0,0.0,0.0,0.0,0.0,0.0,0.0,0.0,0.0,0.0,0.0,0.0,0.0,0.0,0.0,0.0,0.0,0.0,0.0,0.0,0.0,0.0,0.0,0.0,0.0,0.0,0.0,0.0,0.0,0.0,0.0,0.0,0.0,0.0,0.0,0.0,0.0,0.0,0.0,0.0,0.0,0.0,0.0,0.0,0.0,0.0,0.0,0.0,0.0,0.0,0.0,0.0,0.0,0.0,0.0,0.0,0.0,0.0,0.0,0.0,0.0,0.0,0.0,0.0,0.0,0.0,0.0,0.0,0.0,0.0,0.0,0.0,0.0,0.0,0.0,0.0,0.0,0.0,0.0,0.0,0.0,0.0,0.0,0.0,0.0,0.0,0.0,0.0,0.0,0.0,0.0,0.0,0.0,0.0,0.0,0.0,0.0,0.0,0.0,0.0,0.0,0.0,0.0,0.0,0.0,0.0,0.0,0.0,0.0,0.0,0.0,0.0,0.0,0.0,0.0,0.0,0.0,0.0,0.0,0.0,0.0,0.0,0.0,0.0,0.0,0.0,0.0,0.0,0.0,0.0,0.0,0.0,0.0,0.0,0.0,0.0,0.0,0.0,0.0,0.0,0.0,0.0,0.0,0.0,0.0,0.0,0.0,0.0,0.0,0.0,0.0,0.0,0.0,0.0,0.0,0.0,0.0,0.0,0.0,0.0,0.0,0.0,0.0,0.0,0.0,0.0,0.0,0.0,0.0,0.0,0.0,0.0,0.0,0.0,0.0,0.0,0.0,0.0,0.0,0.0,0.0,0.0,0.0,0.0,0.0,0.0,0.0,0.0,0.0,0.0,0.0,0.0,0.0,0.0,0.0,0.0,0.0,0.0,0.0,0.0,0.0,0.0,0.0,0.0,0.0,0.0,0.0,0.0,0.0,0.0,0.0,0.0,0.0,0.0,0.0,0.0,0.0,0.0,0.0,0.0,0.0,0.0,0.0,0.0,0.0,0.0,0.0,0.0,0.0,0.0,0.0,0.0,0.0,0.0,0.0,0.0,0.0,0.0,0.0,0.0,0.0,0.0,0.0,0.0,0.0,0.0,0.0,0.0,0.0,0.0,0.0,0.0,0.0,0.0,0.0,0.0,0.0,0.0,0.0,0.0,0.0,0.0,0.0,0.0,0.0,0.0,0.0,0.0,0.0,0.0,0.0,0.0,0.0,0.0,0.0,0.0,0.0,0.0,0.0,0.0,0.0,0.0,0.0,0.0,0.0,0.0,0.0,0.0,0.0,0.0,0.0,0.0,0.0,0.0,0.0,0.0,0.0,0.0,0.0,0.0,0.0,0.0,0.0,0.0,0.0,0.0,0.0,0.0,0.0,0.0,0.0,0.0,0.0,0.0,0.0,0.0,0.0,0.0,0.0,0.0,0.0,0.0,0.0,0.0,0.0,0.0,0.0,0.0,0.0,0.0,0.0,0.0,0.0,0.0,0.0,0.0,0.0,0.0,0.0,0.0,0.0,0.0,0.0,0.0,0.0,0.0,0.0,0.0,0.0,0.0,0.0,0.0,0.0,0.0,0.0,0.0,0.0,0.0,0.0,0.0,0.0,0.0,0.0,0.0,0.0,0.0,0.0,0.0,0.0,0.0,0.0,0.0,0.0,0.0,0.0,0.0,0.0,0.0,0.0,0.0,0.0,0.0,0.0,0.0,0.0,0.0,0.0,0.0,0.0,0.0,0.0,0.0,0.0,0.0,0.0,0.0,0.0,0.0,0.0,0.0,0.0,0.0,0.0,0.0,0.0,0.0,0.0,0.0,0.0,0.0,0.0,0.0,0.0,0.0,0.0,0.0,0.0,0.0,0.0,0.0,0.0,0.0,0.0,0.0,0.0,0.0,0.0,0.0,0.0,0.0,0.0,0.0,0.0,0.0,0.0,0.0,0.0,0.0,0.0,0.0,0.0,0.0,0.0,0.0,0.0,0.0,0.0,0.0,0.0,0.0,0.0,0.0,0.0,0.0,0.0,0.0,0.0,0.0,0.0,0.0,0.0,0.0,0.0,0.0,0.0,0.0,0.0,0.0,0.0,0.0,0.0,0.0,0.0,0.0,0.0,0.0,0.0,0.0,0.0,0.0,0.0,0.0,0.0,0.0,0.0,0.0,0.0,0.0,0.0,0.0,0.0,0.0,0.0,0.0,0.0,0.0,0.0,0.0,0.0,0.0,0.0,0.0,0.0,0.0,0.0,0.0,0.0,0.0,0.0,0.0,0.0,0.0,0.0,0.0,0.0,0.0,0.0,0.0,0.0,0.0,0.0,0.0,0.0,0.0,0.0,0.0,0.0,0.0,0.0,0.0,0.0,0.0,0.0,0.0,0.0,-2.4853,-2.4124,0.0,0.0,0.0,0.0,0.0,0.0,0.0,0.0,0.0,0.0,0.0,0.0,0.0,0.0,0.0,0.0,0.0,0.0,0.0,0.0,0.0,0.0,0.0,0.0,0.0,0.0,0.0,0.0,0.0,0.0,0.0,0.0,0.0,0.0,0.0,0.0,0.0,0.0,-2.4445,-2.555,-2.6227,-2.652,-2.5558,-2.3569,0.0,0.0,0.0,0.0,0.0,0.0,0.0,0.0,0.0,0.0,0.0,0.0,0.0,0.0,0.0,0.0,0.0,0.0,0.0,0.0,0.0,0.0,0.0,0.0,0.0,0.0,0.0,0.0,0.0,0.0,0.0,0.0,0.0,0.0,0.0,0.0,0.0,0.0,0.0,0.0,0.0,0.0,0.0,0.0,0.0,0.0,0.0,0.0,0.0,0.0,0.0,0.0,0.0,0.0,0.0,0.0,0.0,0.0,0.0,0.0,0.0,0.0,0.0,0.0,0.0,0.0,0.0,0.0,0.0,0.0,-2.6073,-2.5369,0.0,0.0,0.0,0.0,0.0,0.0,0.0,0.0,0.0,0.0,0.0,0.0,0.0,0.0,0.0,0.0,0.0,0.0,0.0,0.0,0.0,0.0,0.0,0.0,-0.9231,-1.05,-1.1206,-1.1285,0.0,0.0,0.0,0.0,0.0,0.0,0.0,-1.7748,-2.0531,-2.3511,-2.5014,-2.6299,-2.7368,-2.8213,-2.7672,-2.595,-2.571,0.0,0.0,0.0,0.0,0.0,0.0,0.0,0.0,0.0,0.0,0.0,0.0,0.0,0.0,0.0,0.0,0.0,0.0,0.0,0.0,0.0,0.0,0.0,0.0,0.0,0.0,0.0,0.0,0.0,0.0,0.0,0.0,0.0,0.0,0.0,0.0,0.0,0.0,0.0,0.0,0.0,0.0,0.0,0.0,0.0,0.0,0.0,0.0,0.0,0.0,0.0,0.0,0.0,0.0,0.0,0.0,0.0,0.0,0.0,0.0,0.0,0.0,0.0,-2.9361,-2.9188,-2.8988,-2.9307,-2.9443,-2.9363,-2.7965,-2.7371,-2.7322,-2.5935,0.0,0.0,0.0,0.0,0.0,0.0,0.0,0.0,0.0,0.0,0.0,0.0,0.0,0.0,0.0,0.0,0.0,0.0,0.0,0.0,0.0,-0.7463,-0.8992,-0.9673,-1.0998,-1.194,0.0,0.0,0.0,0.0,0.0,0.0,-1.6655,-1.9275,-2.1831,-2.4353,-2.672,-2.8338,-2.9199,-3.0745,-3.1164,-3.0497,-2.7873,-2.6747,-2.6741,0.0,0.0,0.0,0.0,0.0,0.0,0.0,0.0,0.0,0.0,0.0,0.0,0.0,0.0,0.0,0.0,0.0,0.0,0.0,0.0,0.0,0.0,0.0,0.0,0.0,0.0,0.0,0.0,0.0,0.0,0.0,0.0,0.0,0.0,0.0,0.0,0.0,0.0,0.0,0.0,0.0,-3.031,-3.1821,0.0,0.0,0.0,0.0,0.0,0.0,0.0,0.0,0.0,0.0,0.0,0.0,0.0,-3.3562,-3.2911,-3.4218,-3.4192,-3.2611,-3.3463,-3.3433,-3.2416,-3.193,-3.173,-3.175,-3.1016,0.0,-2.7996,-2.7742,0.0,0.0,0.0,0.0,0.0,0.0,0.0,0.0,0.0,0.0,0.0,0.0,0.0,0.0,0.0,0.0,0.0,0.0,0.0,0.0,0.0,-0.8391,-1.0106,-1.1217,-1.2371,-1.3113,-1.3244,-1.23,0.0,0.0,0.0,-1.5342,-1.8219,-2.0612,-2.3123,-2.5841,-2.8476,-2.9941,-3.0312,-3.2009,-3.2677,-3.2407,-3.1036,-3.0036,-2.9258,-2.7922,0.0,0.0,0.0,0.0,0.0,0.0,0.0,0.0,0.0,0.0,0.0,0.0,0.0,0.0,0.0,0.0,0.0,0.0,0.0,0.0,0.0,0.0,0.0,0.0,0.0,0.0,0.0,0.0,0.0,0.0,0.0,0.0,0.0,0.0,0.0,0.0,0.0,0.0,0.0,-2.9429,-3.2387,-3.2055,-3.2853,-3.281,0.0,0.0,0.0,0.0,0.0,0.0,0.0,0.0,0.0,-3.668,-3.6542,-3.6553,-3.7001,-3.7093,-3.6853,-3.6367,-3.5615,-3.5142,-3.4982,-3.4058,-3.3458,-3.3144,-3.2905,-3.1888,-3.0319,-2.9076,-2.8142,-2.7367,0.0,0.0,0.0,0.0,-2.5949,-2.6214,0.0,0.0,0.0,0.0,0.0,0.0,0.0,0.0,0.0,0.0,0.0,0.0,-0.6421,-0.8864,-1.0926,-1.2253,-1.3361,-1.3873,-1.3681,-1.2827,0.0,0.0,-1.4215,-1.6283,-1.9547,-2.2184,-2.4846,-2.7578,-2.9805,-3.1016,-3.1269,-3.2715,-3.3336,-3.3214,-3.3423,-3.2821,-3.1509,-2.9964,-2.8394,-2.6866,0.0,0.0,0.0,0.0,0.0,0.0,0.0,0.0,0.0,0.0,0.0,0.0,0.0,0.0,0.0,0.0,0.0,0.0,0.0,0.0,0.0,0.0,0.0,0.0,0.0,0.0,0.0,0.0,0.0,0.0,0.0,0.0,0.0,0.0,0.0,0.0,0.0,-3.0975,-3.3966,-3.2728,-3.4691,-3.5333,0.0,0.0,0.0,0.0,0.0,0.0,-3.815,-3.8297,-3.8974,-4.0396,-3.9534,-3.9654,-4.0811,-3.971,-3.9281,-3.9492,-3.7853,-3.7084,-3.6862,-3.5877,-3.4942,-3.4084,-3.3985,-3.3345,-3.229,-3.0507,-2.9744,-2.9567,-2.799,-2.7442,-2.7455,-2.7037,-2.716,-2.7549,0.0,0.0,0.0,0.0,0.0,0.0,0.0,0.0,0.0,0.0,0.0,-0.2882,-0.4372,-0.8075,-1.0777,-1.1665,-1.283,-1.3591,-1.3784,-1.2579,-1.2628,-1.4438,-1.4081,-1.5951,-2.034,-2.4286,-2.7304,-2.9375,-3.0391,-3.1328,-3.2148,-3.3008,-3.332,-3.3242,-3.4072,-3.3992,-3.3154,-3.1172,-2.957,-2.82,-2.595,0.0,0.0,0.0,0.0,0.0,0.0,0.0,0.0,0.0,0.0,0.0,0.0,0.0,0.0,0.0,0.0,0.0,0.0,0.0,0.0,0.0,0.0,0.0,0.0,0.0,0.0,0.0,0.0,0.0,0.0,0.0,0.0,0.0,0.0,0.0,0.0,0.0,0.0,-3.5527,-3.8145,0.0,0.0,0.0,0.0,-3.8599,-3.8814,-3.9807,-4.1901,-4.2005,-4.2698,-4.4108,-4.3193,-4.3031,-4.3599,-4.2682,-4.1972,-4.148,-4.1308,-4.0182,-3.7994,-3.7398,-3.6206,-3.4653,-3.4122,-3.3571,-3.298,-3.2315,-3.2047,-3.1856,-3.0292,-2.9945,-3.0124,-2.8572,-2.8062,-2.8074,0.0,0.0,0.0,0.0,0.0,0.0,0.0,0.0,0.9787,0.6268,0.2481,-0.1076,-0.4025,-0.7865,-1.1135,-1.3303,-1.4114,-1.4633,-1.4869,-1.3993,-1.371,-1.4266,-1.5387,-1.8521,-2.3916,-2.6294,-2.8131,-2.9492,-3.0918,-3.1816,-3.2226,-3.2985,-3.3285,-3.32,-3.3473,-3.3238,-3.258,-3.1863,-3.06,-2.8878,-2.6645,-2.4956,0.0,0.0,0.0,0.0,0.0,0.0,0.0,0.0,0.0,0.0,0.0,0.0,0.0,0.0,0.0,0.0,0.0,0.0,0.0,0.0,0.0,0.0,0.0,0.0,0.0,0.0,0.0,0.0,0.0,0.0,0.0,0.0,0.0,0.0,0.0,0.0,0.0,-3.7815,-4.1345,0.0,-4.024,-4.071,-4.1131,-4.1121,-4.2498,-4.3685,-4.448,-4.4936,-4.5652,-4.6624,-4.5187,-4.4669,-4.5374,-4.3731,-4.2852,-4.2651,-4.196,-4.1184,-4.0322,-3.8595,-3.7138,-3.5762,-3.4864,-3.435,-3.4148,-3.39,-3.3551,-3.3146,-3.2484,-3.196,-3.1494,-3.0445,-2.9677,-2.9155,0.0,0.0,0.0,0.0,0.0,0.0,0.0,0.0,1.2129,0.892,0.4692,0.0533,-0.3171,-0.7518,-1.1206,-1.3736,-1.4518,-1.4895,-1.5008,-1.4296,-1.4,-1.4281,-1.753,-2.1539,-2.6238,-2.7129,-2.8031,-2.8998,-3.0147,-3.076,-3.0859,-3.1362,-3.1563,-3.1495,-3.1674,-3.1441,-3.0904,-3.0748,-3.0123,-2.9093,-2.7246,-2.5895,-2.4824,0.0,0.0,0.0,0.0,0.0,0.0,0.0,0.0,0.0,0.0,0.0,0.0,0.0,0.0,0.0,0.0,0.0,0.0,0.0,0.0,0.0,0.0,0.0,0.0,0.0,0.0,0.0,0.0,0.0,0.0,0.0,0.0,0.0,0.0,-3.6362,-3.9768,-3.9301,-4.3505,-4.5568,-4.3318,-4.4434,-4.5162,-4.4953,-4.6319,-4.7284,-4.7524,-4.7989,-4.8416,-4.8663,-4.7132,-4.6303,-4.6174,-4.4618,-4.3618,-4.3329,-4.2565,-4.2001,-4.1586,-3.9948,-3.8476,-3.695,-3.6169,-3.562,-3.5214,-3.5559,-3.5532,-3.5056,-3.4072,-3.339,-3.2872,-3.1486,-3.047,-2.9664,0.0,0.0,0.0,0.0,0.0,0.0,0.0,1.5301,1.3537,1.1012,0.6297,0.1853,-0.1732,-0.6929,-1.0916,-1.2686,-1.3746,-1.4289,-1.4121,-1.3418,-1.3576,-1.4866,-2.0476,-2.464,-2.6944,-2.6795,-2.7113,-2.7981,-2.8111,-2.8181,-2.8183,-2.8261,-2.8227,-2.813,-2.8756,-2.8793,-2.8333,-2.7869,-2.8136,-2.882,-2.7724,-2.6808,-2.6009,0.0,0.0,0.0,0.0,0.0,0.0,0.0,0.0,0.0,0.0,0.0,0.0,0.0,0.0,0.0,0.0,0.0,0.0,0.0,0.0,0.0,0.0,0.0,0.0,0.0,0.0,0.0,0.0,0.0,0.0,0.0,0.0,0.0,-3.3565,-3.6876,-3.954,-4.0135,-4.4843,-4.7733,-4.7005,-4.8257,-4.939,-5.0067,-5.0153,-5.047,-5.1142,-5.1214,-5.0835,-5.0085,-4.9215,-4.793,-4.6196,-4.5233,-4.4327,-4.3329,-4.3329,-4.2763,-4.1666,-4.1651,-4.0365,-3.8194,-3.8082,-3.7374,-3.6364,-3.7407,-3.782,-3.7605,-3.4925,-3.4145,-3.4281,-3.1609,-3.0278,-2.9512,0.0,0.0,0.0,0.0,0.0,0.0,0.0,1.436,1.305,1.0763,0.6221,0.1687,-0.2385,-0.6978,-1.0797,-1.3321,-1.3476,-1.3779,-1.4479,-1.4923,-1.6578,-1.9857,-2.3086,-2.5499,-2.6971,-2.6615,-2.6859,-2.7788,-2.7817,-2.7865,-2.7905,-2.8039,-2.8059,-2.8038,-2.8163,-2.7975,-2.7503,-2.7185,-2.6999,-2.6881,-2.6566,-2.6842,-2.7362,0.0,0.0,0.0,0.0,0.0,0.0,0.0,0.0,0.0,0.0,0.0,0.0,0.0,0.0,0.0,0.0,0.0,0.0,0.0,0.0,0.0,0.0,0.0,0.0,0.0,0.0,0.0,0.0,0.0,0.0,0.0,-3.2161,-3.5118,-3.5616,-3.9411,-4.2702,-4.4388,-4.7967,-5.0236,-5.0016,-5.0845,-5.1268,-5.093,-5.0926,-5.1011,-5.1214,-5.118,-5.0879,-5.0149,-4.9215,-4.791,-4.6189,-4.5235,-4.4327,-4.3329,-4.3329,-4.316,-4.2808,-4.2016,-4.0799,-3.9326,-3.8481,-3.7844,-3.7353,-3.7661,-3.8252,-3.8738,-3.6725,-3.5424,-3.4361,-3.2361,-3.0856,-2.9549,0.0,0.0,0.0,0.0,0.0,0.0,0.0,1.3514,1.2493,1.0358,0.6587,0.2597,-0.1305,-0.5349,-0.8955,-1.1873,-1.2616,-1.3226,-1.4118,-1.7748,-2.0922,-2.3272,-2.4511,-2.5468,-2.6151,-2.5837,-2.5753,-2.5942,-2.5979,-2.5869,-2.5667,-2.5771,-2.5832,-2.5866,-2.5677,-2.553,-2.5422,-2.4972,-2.4941,-2.5166,-2.5191,-2.6126,-2.7422,-2.6757,-2.6854,-2.7265,-2.6602,-2.5832,-2.51,-2.5079,0.0,0.0,0.0,0.0,0.0,0.0,0.0,0.0,0.0,0.0,0.0,0.0,0.0,0.0,0.0,0.0,0.0,0.0,0.0,0.0,0.0,0.0,0.0,0.0,-3.3995,-3.7319,-3.8542,-4.1575,-4.4425,-4.6656,-4.9443,-5.1319,-5.1606,-5.235,-5.2621,-5.2215,-5.2164,-5.2164,-5.2164,-5.2179,-5.1676,-5.0608,-5.005,-4.8787,-4.6831,-4.5898,-4.4913,-4.3942,-4.3528,-4.3329,-4.3235,-4.2609,-4.1818,-4.0835,-3.9892,-3.9262,-3.8894,-3.8587,-3.8807,-3.9235,0.0,0.0,0.0,0.0,-3.0543,-2.9651,0.0,0.0,0.0,0.0,0.0,0.0,0.0,1.2464,1.1859,0.9921,0.7309,0.4369,0.0998,-0.2509,-0.5844,-0.8765,-1.106,-1.2889,-1.4113,-2.101,-2.5118,-2.5277,-2.505,-2.4934,-2.4998,-2.4728,-2.4218,-2.3441,-2.3379,-2.3084,-2.2603,-2.2697,-2.2772,-2.285,-2.256,-2.2637,-2.2942,-2.2273,-2.2606,-2.3598,-2.3571,-2.4861,-2.671,-2.6429,-2.6784,-2.7442,-2.756,-2.7265,-2.6956,-2.7339,0.0,0.0,0.0,0.0,0.0,0.0,0.0,0.0,0.0,0.0,0.0,0.0,0.0,0.0,0.0,0.0,0.0,0.0,0.0,0.0,0.0,0.0,0.0,0.0,-3.5884,-3.9978,-4.2081,-4.3679,-4.5518,-4.7539,-4.9854,-5.1488,-5.2213,-5.3128,-5.3602,-5.3602,-5.3602,-5.3602,-5.3602,-5.3534,0.0,0.0,0.0,-5.0028,-4.7603,-4.6691,-4.5754,-4.478,-4.3807,-4.3329,-4.3329,-4.3329,-4.2917,-4.2253,-4.1684,-4.0982,-4.0209,-3.9631,-3.928,-3.887,-3.6874,-3.543,-3.4033,-3.1035,-2.9817,-2.9651,0.0,0.0,0.0,0.0,0.0,0.0,0.0,1.0482,1.0814,0.9773,0.8152,0.6218,0.3983,0.0783,-0.1998,-0.4142,-0.8379,-1.3265,-1.8833,-2.1954,-2.4057,-2.5086,-2.5034,-2.4993,-2.501,-2.3855,-2.3189,-2.3006,-2.2165,-2.1791,-2.1902,-2.2174,-2.2446,-2.2661,-2.2579,-2.2709,-2.295,-2.2106,-2.1788,-2.1757,-2.1166,-2.3117,-2.6452,-2.6914,-2.7594,-2.8308,-2.8596,-2.9971,-3.1272,-2.8596,-2.7406,-2.6776,-2.5589,-2.3251,0.0,0.0,0.0,0.0,0.0,0.0,0.0,0.0,0.0,0.0,0.0,0.0,0.0,0.0,0.0,0.0,0.0,0.0,0.0,-3.4209,-3.8381,-4.2255,-4.5261,-4.6946,-4.8015,-4.8445,-5.0091,-5.1488,-5.2213,-5.3533,-5.4381,-5.4381,-5.4381,-5.4381,-5.4381,-5.3805,-5.2775,-5.1229,-5.1176,-5.0028,-4.7603,-4.6673,-4.5759,-4.4809,-4.3741,0.0,-4.3329,-4.3329,-4.2638,-4.1562,-4.1445,-4.0678,-3.9601,-3.9454,-3.8393,-3.6767,-3.5863,-3.4641,-3.3038,-3.1144,-3.0175,-2.9779,0.0,0.0,0.0,0.0,0.0,0.0,0.0,0.6471,0.6481,0.6204,0.5383,0.4767,0.4562,0.2232,-0.0611,-0.3808,-1.0059,-1.6116,-2.1548,-2.3376,-2.4377,-2.4632,-2.44,-2.405,-2.367,-2.2667,-2.1954,-2.1552,-2.0878,-2.0445,-2.0255,-2.0552,-2.0814,-2.1003,-2.0929,-2.0908,-2.0841,-1.994,-1.9318,-1.889,-1.8278,-1.9411,-2.1663,-2.3694,-2.5127,-2.6176,-2.728,-2.8483,-2.9256,-2.6605,-2.5441,-2.5176,-2.5972,-2.3221,-1.9036,0.0,0.0,0.0,0.0,0.0,0.0,0.0,0.0,0.0,0.0,0.0,0.0,0.0,0.0,-2.276,-2.4908,0.0,-3.2718,-3.6079,-4.0329,-4.3945,-4.6257,-4.7915,-4.899,-4.9358,-5.0469,-5.1637,-5.283,-5.36,-5.4175,-5.4499,-5.4239,-5.4042,-5.4007,-5.296,-5.1984,-5.1212,-5.0841,-4.9865,-4.831,-4.6883,-4.5997,-4.5476,-4.4005,-4.3165,-4.2851,-4.2851,-4.2312,-4.1354,-4.1025,-4.0516,-3.98,-3.8988,-3.7987,-3.686,-3.5581,-3.3896,-3.2067,-3.0998,-3.0291,-2.9792,0.0,0.0,0.0,0.0,0.0,0.0,0.0,0.227,0.1804,0.2109,0.1984,0.2426,0.3764,0.2111,-0.1268,-0.655,-1.328,-1.9039,-2.3239,-2.4648,-2.4988,-2.4245,-2.3758,-2.3124,-2.2318,-2.1492,-2.0749,-2.0027,-1.9558,-1.9019,-1.8502,-1.8801,-1.8995,-1.9074,-1.8961,-1.8698,-1.8251,-1.7205,-1.6612,-1.6302,-1.5672,-1.5615,-1.6189,-1.9153,-2.1201,-2.2733,-2.4163,-2.4481,-2.3981,-2.2211,-2.093,-2.0428,-2.2655,-1.9998,-1.5172,-1.02,-1.0793,0.0,0.0,0.0,0.0,0.0,0.0,0.0,0.0,-2.1655,-1.9445,-2.0339,-2.0872,-2.234,-2.5962,-2.9969,-3.4044,-3.8132,-4.22,-4.558,-4.7467,-4.8826,-4.9915,-5.0649,-5.1184,-5.1919,-5.3156,-5.3632,-5.4104,-5.447,-5.3845,-5.3488,-5.3392,-5.2032,-5.1111,-5.101,-5.0435,-4.9746,-4.9018,-4.731,-4.6383,-4.6173,-4.4265,-4.3085,-4.2357,-4.2314,-4.1818,-4.1145,-4.0502,-4.0217,-4.0084,-3.8452,-3.7672,-3.7282,-3.5399,-3.3366,-3.1332,-3.0934,-3.0444,-2.9932,0.0,0.0,0.0,0.0,0.0,0.0,0.0,0.0,-0.0485,-0.0091,0.0417,0.1053,0.1857,-0.0085,-0.4655,-1.2671,-1.6106,-1.977,-2.4419,-2.5138,-2.5067,-2.4326,-2.3792,-2.3124,-2.2318,-2.0769,-1.979,-1.9405,-1.8195,-1.7502,-1.7382,-1.7828,-1.8021,-1.7969,-1.7897,-1.7405,-1.6491,-1.5113,-1.4913,-1.5337,-1.4272,-1.3575,-1.3319,-1.4871,-1.6827,-1.8719,-1.8891,-1.802,-1.652,-1.4866,-1.231,-0.9786,-0.9578,-0.765,-0.4778,-0.1142,-0.382,-0.8533,-1.1527,-1.6831,-2.2664,-2.7179,-2.6445,-2.4979,0.0,-2.245,-1.8713,-1.9221,-2.0624,-2.2756,-2.6257,-3.115,-3.6244,-4.1415,-4.4528,-4.7523,-5.1152,-5.1755,-5.2144,-5.2956,-5.2606,-5.2299,-5.2323,-5.4234,-5.5218,-5.4542,-5.384,-5.3399,-5.3418,-5.2021,-5.0873,-5.0255,-5.0147,-4.9746,-4.9018,-4.7983,-4.7001,-4.6173,-4.4497,-4.3273,-4.2419,-4.1758,-4.113,-4.0472,-3.9813,-3.9529,-3.9442,-3.8263,-3.7266,-3.6304,-3.5117,-3.3351,-3.1357,-3.1315,-3.0984,-3.0444,0.0,0.0,0.0,0.0,0.0,0.0,0.0,0.0,0.0,0.0,-0.5908,-0.472,-0.4748,-0.6895,-1.1294,-1.8644,-2.0186,-2.2018,-2.5046,-2.5336,-2.484,-2.3603,-2.3101,-2.1938,-2.0007,-1.8819,-1.8051,-1.7727,-1.6626,-1.6253,-1.662,-1.6702,-1.6581,-1.6272,-1.5924,-1.5548,-1.4888,-1.1292,-0.9144,-0.8008,-0.6512,-0.5913,-0.5918,-0.6079,-0.7109,-0.8679,-1.0433,-1.0483,0.0,-0.6314,-0.4517,-0.292,0.0773,0.2274,0.2917,0.424,0.0815,-0.4951,-1.2066,-1.8214,-2.3243,-2.5918,-2.6784,-2.65,-2.474,-1.9906,-1.5646,-1.519,-1.7582,-2.1092,-2.5605,-3.1215,-3.7009,-4.252,-4.5915,-4.8732,-5.1254,-5.1592,-5.1833,-5.2534,-5.2817,-5.3087,-5.352,-5.366,-5.3742,-5.3825,-5.2767,-5.2131,-5.2121,-5.0741,-4.9994,-5.0079,-4.9695,-4.93,-4.9001,-4.808,-4.7155,-4.6173,-4.4564,-4.3131,-4.1773,-4.1115,-4.0442,-3.9783,-3.911,-3.8525,-3.7887,-3.6404,-3.5252,-3.4243,-3.318,-3.2186,-3.1405,-3.1377,-3.0861,-3.0072,0.0,0.0,0.0,0.0,0.0,0.0,0.0,0.0,0.0,0.0,-1.1039,-0.9821,-1.0419,-1.2728,-1.6277,-2.1399,-2.2557,-2.352,-2.4725,-2.4979,-2.4316,-2.2629,-2.2222,-2.0952,-1.8596,-1.7648,-1.6908,-1.6375,-1.5565,-1.5194,-1.5315,-1.5266,-1.492,-1.4337,-1.3649,-1.2876,-1.1812,-0.7495,-0.3816,-0.0696,0.0703,0.1686,0.2243,0.238,0.198,0.086,-0.2852,-0.3492,-0.2019,0.1616,0.3069,0.4123,0.9084,0.9685,0.8649,0.8871,0.3067,-0.5124,-1.2905,-1.8523,-2.2214,-2.2258,-2.2196,-2.123,-1.7576,-1.325,-0.9958,-0.9612,-1.332,-1.868,-2.5289,-3.1422,-3.7628,-4.3933,-4.7427,-5.0064,-5.19,-5.1981,-5.2082,-5.2651,-5.3054,-5.3496,-5.4079,-5.336,-5.2924,-5.2943,-5.1896,-5.111,-5.0861,-4.9695,-4.9249,-4.978,-4.9283,-4.89,-4.8714,-4.8206,-4.7176,-4.5597,-4.4473,-4.2906,-4.1085,-4.0232,-3.9589,-3.9095,-3.8422,-3.76,-3.6576,-3.5046,-3.3824,-3.287,-3.186,-3.1298,-3.1173,-3.1173,-3.0708,-3.003,0.0,0.0,0.0,0.0,0.0,0.0,0.0,0.0,0.0,0.0,0.0,0.0,0.0,-1.5739,-1.7853,-1.9268,-2.1951,-2.3426,-2.3105,-2.3802,-2.3391,-2.1527,-2.1253,-2.0527,-1.9194,-1.8006,-1.6881,-1.5811,-1.527,-1.4367,-1.3095,-1.3441,-1.3096,-1.2222,-1.1169,-0.916,-0.6386,-0.4287,-0.0299,0.473,0.5291,0.7471,1.0302,0.8998,0.8538,0.7788,0.255,0.238,0.5171,0.8277,1.0502,1.2459,1.4895,1.3945,1.2191,1.3505,0.2456,-1.0775,-1.3323,-1.6746,-1.8855,-1.572,-0.9988,-0.4735,-0.2972,-0.1472,-0.0874,-0.263,-0.8007,-1.5429,-2.561,-3.211,-3.8594,-4.6577,-4.9577,-5.1878,-5.4502,-5.4205,-5.3845,-5.4259,-5.3665,-5.3182,-5.3237,-5.391,-5.3736,-5.2227,-5.1473,-5.0793,-5.0062,-4.9351,-4.9018,-4.9018,-4.9018,-4.8663,-4.7953,-4.8585,-4.7317,-4.4173,-4.4209,-4.2887,-4.0382,-3.905,-3.8437,-3.8377,-3.7719,-3.6906,-3.5928,-3.4864,-3.3824,-3.287,-3.186,-3.1085,-3.0633,-3.0633,-3.0603,-3.0486,0.0,0.0,0.0,0.0,0.0,0.0,0.0,0.0,0.0,0.0,0.0,0.0,0.0,0.0,0.0,0.0,-2.1448,-2.2562,-2.2784,-2.2591,-2.1972,-2.0848,-2.0055,-1.8745,-1.6859,-1.5805,-1.4703,-1.3482,-1.2551,-1.1685,-1.0974,-1.1653,-1.1318,-1.0093,-1.0229,-0.7951,-0.3865,-0.0948,0.3041,0.7477,0.8143,0.96,1.1285,1.0462,1.0079,0.9725,0.0,0.6323,0.7154,1.078,1.127,1.1149,1.5428,1.31,0.7986,0.377,-0.3174,-1.0272,-1.3787,-1.6949,-1.8009,-1.2771,-0.6761,-0.0,0.8,0.8787,0.6685,0.2567,-0.5111,-1.3419,-2.1188,-2.8984,-3.6572,-4.3679,-4.8163,-5.1512,-5.3508,-5.4258,-5.4446,-5.4031,-5.3986,-5.3794,-5.3261,-5.2527,-5.2058,-5.2089,-5.054,-4.9691,-4.9966,-4.9359,-4.9001,-4.9001,-4.9001,-4.8883,-4.8646,-4.8409,-4.7115,-4.4765,-4.27,-4.0978,-3.9723,-3.8811,-3.8392,-3.8332,-3.727,-3.5897,-3.4365,-3.3512,-3.2286,-3.0854,-3.0489,-3.0231,-3.0068,-3.0068,-3.0093,-3.0015,0.0,0.0,0.0,0.0,0.0,0.0,0.0,0.0,0.0,0.0,0.0,0.0,0.0,0.0,0.0,0.0,0.0,-2.1257,-2.1615,-2.1503,-2.1097,-2.0394,-1.9565,-1.8175,-1.6141,-1.5449,-1.3515,-1.019,-0.8105,-0.6606,-0.5643,-0.633,-0.6227,-0.5578,-0.6101,-0.4207,-0.0358,0.2173,0.5663,0.9514,1.0229,1.1157,1.2043,1.1408,1.0998,0.0,0.9621,0.7978,0.6951,1.1015,1.0227,0.8114,1.1398,0.8089,0.1917,-0.4007,-0.8928,-1.3115,-1.5959,-1.7874,-1.7725,-1.1803,-0.599,0.0797,1.0095,1.089,0.838,0.3786,-0.3174,-1.1492,-2.1564,-2.9011,-3.5711,-4.1952,-4.6787,-5.0415,-5.2247,-5.3459,-5.4078,-5.3832,-5.4269,-5.4244,-5.328,-5.2078,-5.1449,-5.1708,-5.0444,-4.9643,-4.9649,-4.9214,-4.9001,-4.9001,-4.8714,-4.846,-4.8223,-4.775,-4.6483,-4.4433,-4.1418,-3.9694,-3.9035,-3.8347,-3.7928,-3.7644,-3.6596,-3.502,-3.3218,-3.2759,-3.1476,-2.9792,-2.9792,-2.9792,-2.9792,-2.9792,-2.9792,-2.9792,0.0,0.0,0.0,0.0,0.0,0.0,0.0,0.0,0.0,0.0,0.0,0.0,0.0,0.0,0.0,0.0,0.0,0.0,-1.9588,-2.0411,-2.0623,-2.0016,-1.9523,-1.849,-1.6816,-1.6481,-1.2987,-0.6171,-0.2422,0.0394,0.2258,0.2073,0.1687,0.1077,0.0963,0.2139,0.4231,0.5301,0.77,1.0885,1.1531,1.2246,1.2881,1.208,1.1358,1.0728,1.0269,0.7517,0.4763,0.8941,0.7388,0.3584,0.3031,-0.0762,-0.576,-0.9446,-1.4447,-1.8973,-1.95,-1.9516,-1.8078,-1.2954,-0.7589,-0.1977,0.386,0.5151,0.4268,0.147,-0.2325,-1.0099,-2.6226,-3.1952,-3.6026,-4.157,-4.5707,-4.899,-5.1119,-5.2247,-5.3111,-5.3829,-5.4634,-5.4626,-5.3377,-5.2608,-5.1903,-5.1137,-5.1005,-5.041,-4.9185,-4.9063,-4.9001,-4.9001,-4.8267,-4.7539,-4.6853,-4.6693,-4.5407,-4.3023,-4.0561,-3.905,-3.8362,-3.7704,-3.7075,-3.6447,-3.5789,-3.4409,-3.2593,-3.2664,-3.1549,-2.9792,-2.9856,-2.9856,-2.9869,-2.9792,-2.9869,-2.9856,0.0,0.0,0.0,0.0,0.0,0.0,0.0,0.0,0.0,0.0,0.0,0.0,0.0,0.0,0.0,0.0,0.0,0.0,-1.8175,-1.8104,-1.8173,-1.845,-1.6969,-1.536,-1.3673,-1.13,-0.7761,-0.2992,0.0269,0.3309,0.6133,0.7046,0.7078,0.6402,0.7452,0.8728,1.0154,1.0612,1.0818,1.0883,1.1519,1.2499,1.3419,1.2264,1.1373,1.058,0.9456,0.5186,0.0266,0.1386,-0.0589,-0.4232,-0.8475,-1.2931,-1.6469,-1.6103,-1.8298,-2.0788,-2.0565,-2.0892,-2.0876,-1.9225,-1.4144,-0.8742,-0.5488,-0.3451,-0.1875,-0.0245,-0.6129,-1.4868,-2.5723,-3.1359,-3.6028,-4.1138,-4.6544,-5.0761,-5.2603,-5.4848,-5.6054,-5.5277,-5.6201,-5.6132,-5.4259,-5.3921,-5.3071,-5.1251,-5.0048,-4.9726,-5.0511,-4.9573,-4.9001,-4.9001,-4.8267,-4.7793,-4.7631,-4.523,-4.346,-4.2253,-4.0331,-3.905,-3.8362,-3.7704,-3.7075,-3.6447,-3.5789,-3.4409,-3.2664,-3.338,-3.2119,-2.9869,-3.0558,-3.0833,-3.0758,-3.0075,-3.0203,-3.0758,0.0,0.0,0.0,0.0,0.0,0.0,0.0,0.0,0.0,0.0,0.0,0.0,0.0,0.0,0.0,0.0,0.0,0.0,0.0,-1.7311,-1.7297,-1.7578,-1.6964,-1.5491,-1.3091,-1.247,-0.8953,-0.2282,0.5623,1.0756,1.318,1.2961,1.2464,1.1674,1.1616,1.1903,1.2387,1.2314,1.2045,0.0,0.0,1.223,1.278,1.1384,1.0704,1.01,0.7161,-0.0151,-0.8643,-1.0123,-1.2356,-1.4879,-1.7184,-1.9849,-2.2014,-2.1383,-2.204,-2.2979,-2.2876,-2.2923,-2.2819,-2.2211,-1.8446,-1.4363,-1.2271,-1.0279,-0.8727,-0.7971,-1.3245,-1.9687,-2.5493,-3.0974,-3.5848,-3.9646,-4.5326,-4.9964,-5.1993,-5.4285,-5.5727,-5.5694,-5.6303,-5.5957,-5.4062,-5.3906,-5.3251,-5.1665,-5.0434,-4.9901,-5.0172,-4.9095,-4.8528,-4.8523,-4.7471,-4.6767,-4.6447,-4.3889,-4.2286,-4.1533,-3.9795,-3.8467,-3.7539,-3.718,-3.6656,-3.6028,-3.5669,-3.4624,-3.3241,-3.3808,-3.2834,-3.1057,-3.1609,-3.1815,-3.1669,-3.0771,-3.0758,-3.1031,0.0,0.0,0.0,0.0,0.0,0.0,0.0,0.0,0.0,0.0,0.0,0.0,0.0,0.0,0.0,0.0,0.0,0.0,0.0,0.0,-1.7052,-1.7053,-1.762,-1.6452,-1.3245,-1.5076,-1.157,-0.2381,1.0193,1.7167,1.8695,1.7134,1.6135,1.5654,1.3864,1.302,1.2846,1.2263,1.226,1.2695,1.1977,1.1698,1.1575,0.0,0.9089,0.8357,0.2873,-0.7354,-1.8737,-2.1814,-2.3874,-2.497,-2.3653,-2.385,-2.4678,-2.5436,-2.5503,-2.5376,-2.5607,-2.5129,-2.4373,-2.3486,-2.1262,-1.8913,-1.7318,-1.577,-1.5331,-1.7467,-2.0764,-2.3818,-2.5612,-3.0893,-3.5786,-3.8266,-4.3525,-4.8185,-5.066,-5.2589,-5.4227,-5.5529,-5.5786,-5.5186,-5.3511,-5.3335,-5.2911,-5.191,-5.1194,-5.0255,-4.9059,-4.8226,-4.7716,-4.7619,-4.6336,-4.5348,-4.4587,-4.2892,-4.1661,-4.1006,-3.9244,-3.7719,-3.6492,-3.6492,-3.6133,-3.5504,-3.5504,-3.492,-3.4027,-3.4163,-3.3602,-3.2593,-3.2749,-3.282,-3.2664,-3.1609,-3.1241,-3.1254,0.0,0.0,0.0,0.0,0.0,0.0,0.0,0.0,0.0,0.0,-1.0875,-1.0369,0.0,0.0,0.0,0.0,0.0,0.0,0.0,0.0,0.0,-1.6264,-1.476,-1.2794,-1.0438,-0.8208,-0.4632,0.0344,0.4916,0.8158,1.0085,1.146,1.2884,1.4311,1.3629,1.396,1.49,1.39,1.29,1.1926,1.1275,1.1209,1.1168,0.7541,0.0,0.0,-0.6042,-1.4885,-2.3028,-2.4593,-2.5165,-2.5618,-2.7922,-2.8328,-2.7886,-2.7549,-2.7798,-2.7942,-2.6877,-2.653,-2.6293,-2.5354,-2.3669,-2.1943,-2.1093,-1.9782,-1.894,-1.9605,-2.2064,-2.473,-2.6713,-3.161,-3.6468,-3.9954,-4.4397,-4.8463,-5.1597,-5.4023,-5.5536,-5.5668,-5.6295,-5.6029,-5.4362,-5.3616,-5.2445,-5.0521,-4.9646,-4.9099,-4.8951,-4.769,-4.6735,-4.6078,-4.5828,-4.5365,-4.4587,-4.2892,-4.1629,-4.0976,-3.92,-3.7719,-3.6492,-3.6492,-3.6133,-3.5504,-3.5504,-3.492,-3.4095,-3.4905,-3.4192,-3.2664,-3.3449,-3.3739,-3.3518,-3.1815,-3.1669,-3.2105,0.0,0.0,0.0,0.0,0.0,0.0,0.0,-1.2314,-1.1976,-1.1707,-1.1279,-1.0971,-1.0908,-1.1084,-1.1644,0.0,0.0,0.0,0.0,0.0,0.0,0.0,0.0,0.0,-0.8822,-0.7551,-0.5585,-0.2975,0.0,0.3487,0.4976,0.7751,1.0027,1.1861,1.2001,1.2709,1.3748,1.2651,1.1702,1.0732,0.8802,0.7899,0.7281,0.0,0.0,0.0,-1.444,-1.9721,-2.3203,-2.5442,-2.6284,-2.6885,-3.0013,-3.0434,-2.9709,-2.931,-2.906,-2.8746,-2.8077,-2.8035,-2.8031,-2.7325,-2.6067,-2.4669,-2.3466,-2.2098,-2.1115,-2.1345,-2.3457,-2.6055,-2.8645,-3.2985,-3.695,-3.9275,-4.3654,-4.7755,-5.0538,-5.3113,-5.4957,-5.5605,-5.5673,-5.5015,-5.3332,-5.2803,-5.1671,-4.9554,-4.8675,-4.8117,-4.7815,-4.6777,-4.5874,-4.5179,-4.5151,-4.4976,-4.4587,-4.2949,-4.1545,-4.045,-3.8789,-3.7304,-3.5968,-3.5968,-3.5804,-3.5504,-3.5504,-3.5213,-3.4839,-3.5294,-3.492,-3.4124,-3.4624,-3.4758,-3.4543,-3.2607,-3.2249,-3.2321,0.0,0.0,0.0,0.0,0.0,0.0,0.0,-1.2501,-1.2529,-1.2165,-1.2132,-1.2009,-1.1682,-1.1442,-1.1679,0.0,0.0,0.0,0.0,0.0,0.0,0.0,0.0,0.0,0.0,0.0,0.0,-0.7056,-0.3435,0.0,0.0,0.0,0.0,0.0,0.8421,0.9455,1.069,0.9719,0.9055,0.0,0.0,0.3433,0.0,0.0,0.0,0.0,0.0,-2.247,-2.2697,-2.5531,-2.6767,-2.7551,-2.9954,-3.0447,-3.0118,-3.0186,-2.9751,-2.9291,-2.9351,-2.9573,-2.9656,-2.9092,-2.8118,-2.6889,-2.5249,-2.3912,-2.3094,-2.3468,-2.5217,-2.7559,-3.0376,-3.3878,-3.6792,-3.8141,-4.2134,-4.6086,-4.8999,-5.1486,-5.3539,-5.4992,-5.4597,-5.3646,-5.2155,-5.1683,-5.0757,-4.8865,-4.7829,-4.6968,-4.6336,-4.579,-4.5216,-4.4604,-4.4451,-4.4328,-4.4328,-4.2745,-4.1198,-3.974,-3.8309,-3.6871,-3.5504,-3.5504,-3.5504,-3.5504,-3.5504,-3.5504,-3.5504,-3.5504,-3.5504,-3.5504,-3.5504,-3.5504,-3.5279,-3.3533,-3.2749,-3.2393,0.0,0.0,0.0,0.0,0.0,0.0,0.0,-1.293,-1.316,-1.3543,-1.3596,-1.3152,-1.1902,-1.1007,-1.0734,0.0,0.0,0.0,0.0,0.0,0.0,0.0,0.0,0.0,0.0,0.0,0.0,-0.8528,-0.914,0.0,0.0,0.0,0.0,0.0,0.0,0.3314,0.5722,0.5077,0.0,0.0,0.0,0.0,0.0,0.0,0.0,0.0,0.0,-2.2453,-2.3676,-2.526,-2.597,-2.6305,-2.6755,-2.7481,-2.8345,-2.9295,-2.9984,-3.0517,-3.0821,-3.1142,-3.1172,-3.0273,-2.9368,-2.833,-2.6843,-2.6012,-2.5828,-2.6674,-2.7659,-2.9021,-3.1134,-3.3172,-3.534,-3.7832,-4.0007,-4.305,-4.7759,-4.9993,-5.1722,-5.3267,-5.3371,-5.2971,-5.2099,-5.0674,-4.9478,-4.8658,-4.6822,-4.5458,-4.4829,-4.4739,-4.4671,-4.4587,-4.3878,-4.348,-4.348,-4.1904,-4.042,-3.8985,-3.8012,-3.6871,-3.5504,-3.5504,-3.5504,-3.5504,-3.5504,-3.5504,-3.5504,-3.5504,-3.5504,-3.5504,-3.5504,-3.5504,-3.5359,-3.4245,-3.331,-3.2464,0.0,0.0,0.0,0.0,0.0,0.0,-1.2229,-1.2932,-1.3605,-1.3794,-1.3474,-1.2822,-1.1828,-1.088,-1.0782,-1.2018,0.0,0.0,0.0,0.0,0.0,0.0,0.0,0.0,0.0,0.0,-1.4047,-1.2429,-1.2368,0.0,0.0,0.0,0.0,0.0,0.0,-0.198,-0.0519,-0.0308,0.0,0.0,0.0,0.0,0.0,0.0,0.0,0.0,0.0,0.0,-2.4209,-2.4654,-2.4939,-2.5177,-2.5366,-2.5794,-2.654,-2.8231,-2.924,-3.0049,-3.111,-3.2186,-3.2868,-3.2375,-3.0937,-2.9545,-2.8998,-2.7604,-2.6748,-2.7796,-2.935,-3.0968,-3.2425,-3.3968,-3.555,-3.716,-3.886,-4.1412,-4.544,-4.7472,-4.9508,-5.2103,-5.1982,-5.1588,-5.1327,-5.0251,-4.8976,-4.741,-4.5822,-4.4647,-4.391,-4.3898,-4.3881,-4.3881,-4.3128,-4.2743,-4.2719,-4.1662,-4.0367,-3.8908,-3.8125,-3.6924,-3.5504,-3.5504,-3.5504,-3.5504,-3.5504,-3.5504,-3.5504,-3.5504,-3.5504,-3.5504,-3.5504,-3.5504,-3.5359,-3.4394,-3.3739,-3.331,0.0,0.0,0.0,0.0,0.0,-1.2009,-1.1787,-1.2618,-1.3367,-1.3501,-1.3072,-1.2425,-1.139,-1.0713,-1.0681,-1.1479,-1.2879,0.0,0.0,0.0,0.0,0.0,0.0,0.0,0.0,0.0,-1.813,-1.7371,-1.6146,-1.5534,0.0,0.0,-1.1385,-0.912,0.0,0.0,0.0,0.0,0.0,0.0,0.0,0.0,0.0,0.0,0.0,0.0,0.0,0.0,0.0,0.0,0.0,-2.4897,-2.5083,-2.5126,-2.5444,-2.7268,-2.8481,-2.9606,-3.113,-3.2683,-3.3829,-3.3644,-3.2046,-3.0492,-3.0457,-2.8984,-2.7969,-2.9109,-3.0917,-3.2577,-3.36,-3.4926,-3.6117,-3.6935,-3.8286,-4.0361,-4.3682,-4.5372,-4.7371,-5.032,-5.019,-4.9903,-5.0055,-4.9398,-4.8242,-4.6488,-4.5216,-4.4272,-4.3727,-4.3107,-4.2864,-4.3068,-4.2354,-4.1968,-4.1972,-4.1223,-4.0194,-3.8908,-3.8162,-3.7126,-3.5829,-3.5629,-3.5504,-3.5504,-3.5504,-3.5504,-3.5504,-3.5504,-3.5504,-3.5504,-3.5504,-3.5365,-3.5115,-3.4427,-3.3862,-3.335,0.0,0.0,0.0,0.0,0.0,0.0,-1.155,-1.1959,-1.2275,-1.2763,-1.2822,-1.215,-1.0375,-1.0541,-1.0292,-0.8938,-1.1208,0.0,0.0,0.0,0.0,0.0,0.0,0.0,0.0,0.0,-2.0596,-2.3107,-2.1303,-1.9566,-1.797,-1.7332,-1.569,-1.3272,0.0,0.0,0.0,0.0,0.0,0.0,0.0,0.0,0.0,0.0,0.0,0.0,0.0,0.0,0.0,0.0,0.0,0.0,0.0,-2.5571,-2.533,-2.6473,-2.7938,-2.9516,-3.1006,-3.2575,-3.3769,-3.3623,-3.2375,-3.1119,-3.0848,-3.017,-2.9899,-3.1107,-3.244,-3.3638,-3.4524,-3.5787,-3.6857,-3.741,-3.8232,-3.9868,-4.288,-4.4065,-4.5404,-4.749,-4.7807,-4.7943,-4.8289,-4.7775,-4.7078,-4.6242,-4.5064,-4.4418,-4.4401,-4.2398,-4.1559,-4.2286,-4.1608,-4.1201,-4.1184,-4.0493,-3.9721,-3.8908,-3.8162,-3.7344,-3.6591,-3.5829,-3.5504,-3.5504,-3.5504,-3.5504,-3.5504,-3.5504,-3.5504,-3.5504,-3.5504,-3.507,-3.4505,-3.4528,-3.3484,-3.2125,0.0,0.0,0.0,0.0,0.0,0.0,0.0,-1.2261,-1.2686,-1.2832,-1.2423,-1.1846,-1.1149,-1.1178,-1.0546,-0.8922,-1.2801,0.0,0.0,0.0,0.0,0.0,0.0,0.0,0.0,0.0,-2.1174,-2.2563,-2.1819,-2.086,-1.9706,-1.867,-1.6986,-1.4733,-1.4428,-1.3895,0.0,0.0,0.0,0.0,0.0,0.0,-2.3067,0.0,0.0,0.0,0.0,0.0,0.0,0.0,0.0,0.0,0.0,0.0,0.0,-2.7459,-2.7939,-2.873,-3.0337,-3.1828,-3.3023,-3.3544,-3.1794,-3.0272,-3.1436,-3.0383,-2.9661,-3.1312,-3.3072,-3.4354,-3.4656,-3.5806,-3.694,-3.7724,-3.8379,-3.9718,-4.2376,-4.2839,-4.4089,-4.7327,-4.7972,-4.7979,-4.7517,-4.6068,-4.5018,-4.4769,-4.3669,-4.2757,-4.2245,-4.1545,-4.1322,-4.1542,-4.0849,-4.046,-4.046,-4.0206,-3.9721,-3.8908,-3.8162,-3.7359,-3.6591,-3.5829,-3.5504,-3.5504,-3.5504,-3.5235,-3.4846,-3.531,-3.5235,-3.4846,-3.5325,-3.507,-3.4519,-3.4495,-3.4174,-3.3761,0.0,0.0,0.0,0.0,0.0,0.0,0.0,-1.2754,-1.3218,-1.3218,-1.2609,-1.2122,-1.1969,-1.1935,-1.2016,-1.2306,-1.5568,0.0,0.0,0.0,0.0,0.0,0.0,0.0,0.0,-1.9884,-2.1431,-2.2299,-2.2394,-2.2132,-2.1449,-2.0032,-1.8681,-1.7437,-1.6577,-1.6293,0.0,0.0,0.0,0.0,0.0,0.0,-2.4513,0.0,0.0,0.0,0.0,0.0,0.0,0.0,0.0,0.0,0.0,0.0,0.0,0.0,-2.7933,-2.8338,-2.9999,-3.1309,-3.2382,-3.307,-3.1442,-3.0113,-3.1751,-3.0898,-3.0265,-3.2037,-3.3712,-3.4946,-3.5249,-3.5997,-3.6926,-3.8115,-3.8385,-3.9331,-4.1808,-4.2175,-4.3263,-4.6227,-4.7076,-4.6966,-4.5865,-4.4767,-4.3988,-4.3687,-4.2546,-4.1677,-4.1221,-4.0933,-4.0781,-4.0781,-4.0324,-4.007,-4.007,-4.007,-3.9847,-3.9364,-3.8585,-3.7804,-3.6995,-3.6246,-3.5782,-3.5489,-3.5235,-3.4876,0.0,-3.4681,-3.4502,-3.4143,-3.4577,-3.4317,-3.3753,-3.3731,-3.3553,-3.3381,0.0,0.0,0.0,0.0,0.0,0.0,0.0,-1.3423,-1.3742,-1.3742,-1.329,-1.2878,-1.2742,-1.2839,-1.437,-1.7922,0.0,0.0,0.0,0.0,0.0,0.0,0.0,0.0,-1.9827,-2.0695,-2.1552,-2.2473,-2.3117,-2.3302,-2.3058,-2.142,-2.0735,-2.0775,-1.8549,-1.841,-1.9962,-2.0646,-2.1595,-2.2695,-2.3436,-2.4542,0.0,0.0,0.0,0.0,0.0,0.0,0.0,0.0,0.0,0.0,0.0,0.0,0.0,0.0,0.0,0.0,0.0,-3.1013,-3.1757,-3.2367,-3.134,-3.0547,-3.1918,-3.1618,0.0,-3.3053,-3.4319,-3.5393,-3.6136,-3.6382,-3.6992,-3.8556,-3.838,-3.8894,-4.1268,-4.2105,-4.3002,-4.4452,-4.5333,-4.5204,-4.3644,-4.3755,-4.3651,-4.2864,-4.1788,-4.1119,-4.1119,-4.046,-4.0054,-4.0003,-4.0003,-4.002,-4.007,-4.002,-4.002,-4.007,-3.9218,-3.8472,-3.7864,-3.6987,-3.6228,-3.5524,-3.4835,-3.4442,-3.4352,-3.3754,-3.3469,-3.3425,-3.3484,-3.3077,-3.2486,-3.249,-3.2109,-3.1543,0.0,0.0,0.0,0.0,0.0,0.0,0.0,0.0,0.0,0.0,-1.4354,-1.3921,-1.2945,-1.4485,-1.6536,0.0,0.0,0.0,0.0,0.0,0.0,0.0,0.0,0.0,-2.1646,-2.1897,-2.2652,-2.3976,-2.3806,-2.3402,-2.2769,-2.2533,-2.175,-2.0561,-2.0112,-2.0649,-2.1988,-2.2723,-2.3484,-2.4153,-2.4791,-2.5551,0.0,0.0,0.0,0.0,-2.6968,-2.7611,0.0,0.0,0.0,0.0,0.0,0.0,0.0,0.0,-3.0354,-3.06,-3.0983,0.0,-3.1052,-3.2455,-3.1938,-3.1321,0.0,-3.2015,-3.1907,-3.2892,-3.4499,-3.5778,-3.5967,-3.7205,-3.8328,-3.8747,-3.9317,-4.017,-4.1417,-4.3065,-4.4048,-4.3809,-4.4488,-4.4599,-4.3589,-4.2807,-4.2271,-4.2076,-4.0995,-4.0341,-4.0341,-4.0172,-3.9817,-3.9276,-3.9242,-3.9512,-4.007,-3.9529,-3.9529,-4.007,-3.8695,-3.8248,-3.8566,-3.7241,-3.6508,-3.6291,-3.5057,-3.4188,-3.3709,-3.3559,-3.32,-3.2796,-3.3305,-3.3077,-3.2476,-3.2481,-3.2377,-3.2288,0.0,0.0,0.0,0.0,0.0,0.0,0.0,0.0,0.0,0.0,0.0,-1.5048,-1.4926,-1.5519,0.0,0.0,0.0,0.0,0.0,0.0,0.0,0.0,0.0,-2.1469,-2.2673,-2.3636,-2.4483,-2.519,-2.4654,-2.4083,-2.3457,-2.2909,-2.2379,-2.1866,-2.229,-2.2913,-2.3663,-2.4489,-2.5303,-2.6033,-2.6209,0.0,0.0,0.0,0.0,0.0,-2.735,-2.7944,0.0,-2.8931,-2.9052,-2.9246,0.0,0.0,0.0,0.0,-3.0708,-3.1189,-3.1604,-3.1919,-3.2352,-3.3276,-3.2982,-3.2699,-3.3522,-3.3091,-3.2774,-3.3596,-3.4628,-3.5623,-3.652,-3.7432,-3.8345,-3.9261,-3.9943,-4.0719,-4.1773,-4.2879,-4.3571,-4.3497,-4.3883,-4.3975,-4.3534,-4.2483,-4.181,-4.181,-4.072,-4.007,-4.007,-3.9766,-3.9394,-3.9005,-3.8667,-3.8684,-3.9089,-3.8684,-3.8715,-3.9069,-3.8254,-3.7686,-3.7422,-3.6572,-3.5814,-3.5141,-3.4029,-3.338,-3.3021,-3.2721,-3.2377,-3.2093,-3.2452,-3.2348,-3.2035,-3.2035,-3.2035,-3.2035,0.0,0.0,0.0,0.0,0.0,0.0,0.0,0.0,0.0,0.0,0.0,0.0,0.0,0.0,0.0,0.0,0.0,0.0,0.0,0.0,0.0,0.0,0.0,-2.3098,-2.3619,-2.554,-2.6479,-2.6352,-2.5738,-2.519,-2.4641,-2.3243,-2.2973,-2.3645,-2.447,-2.5002,-2.5262,-2.6116,-2.7016,-2.7843,-2.7556,0.0,0.0,0.0,0.0,0.0,0.0,0.0,0.0,-2.8948,-2.8814,-2.8847,-2.9444,0.0,0.0,0.0,0.0,0.0,-3.1939,-3.3456,-3.4736,-3.4366,-3.432,-3.4478,-3.4884,-3.432,-3.3876,-3.4457,-3.4706,-3.5394,-3.73,-3.7465,-3.7929,-3.9887,-4.0408,-4.1033,-4.2298,-4.2488,-4.269,-4.324,-4.3424,-4.3408,-4.3191,-4.2246,-4.1573,-4.1488,-4.0414,-3.9749,-3.9749,-3.9157,-3.8768,-3.8667,-3.8058,-3.7618,-3.7381,-3.7618,-3.7784,-3.7908,-3.779,-3.7085,-3.5854,-3.5766,-3.4888,-3.3502,-3.2676,-3.2362,-3.2302,-3.1539,-3.1228,-3.136,-3.127,-3.124,-3.124,-3.124,-3.124,-3.1198,0.0,0.0,0.0,0.0,0.0,0.0,0.0,0.0,0.0,0.0,0.0,0.0,0.0,0.0,0.0,0.0,0.0,0.0,0.0,0.0,0.0,-2.6837,-2.5959,-2.5477,-2.5571,-2.6941,-2.773,-2.7879,-2.7374,-2.6727,-2.588,-2.4523,-2.4148,-2.464,-2.5554,-2.6419,-2.7196,-2.7867,-2.8315,-2.8631,-2.8584,0.0,0.0,0.0,0.0,0.0,0.0,0.0,0.0,-2.864,-2.8496,-2.8714,-3.0204,0.0,0.0,0.0,0.0,0.0,-3.1827,-3.4703,-3.7175,-3.5135,-3.5799,-3.6483,-3.473,-3.4759,-3.4921,-3.409,-3.4699,-3.5866,-3.7536,-3.781,-3.8428,-4.0391,-4.1095,-4.1857,-4.3143,-4.3314,-4.3112,-4.2543,-4.3075,-4.3028,-4.185,-4.1207,-4.0651,-4.0147,-3.8961,-3.8244,-3.8244,-3.8142,-3.7787,-3.7144,-3.7009,-3.6332,-3.503,-3.6315,-3.7263,-3.7919,-3.7263,-3.6827,-3.6605,-3.5979,-3.4934,-3.3576,-3.2239,-3.1616,-3.1584,-3.0372,-3.0193,-3.0612,-3.0088,-2.9879,-2.9879,-2.9879,-2.9879,-2.9773,0.0,0.0,0.0,0.0,0.0,0.0,0.0,0.0,0.0,0.0,0.0,0.0,0.0,0.0,0.0,0.0,0.0,0.0,0.0,0.0,0.0,-2.6965,-2.711,-2.713,-2.7032,-2.7984,-2.8433,-2.8322,-2.7501,-2.7122,-2.711,-2.5966,-2.5614,-2.6007,-2.7293,-2.8408,-2.9344,-3.015,-3.0536,-3.0601,0.0,0.0,0.0,0.0,0.0,0.0,0.0,0.0,0.0,0.0,-2.829,-2.8282,-2.9251,0.0,0.0,0.0,0.0,0.0,-3.1459,-3.3813,-3.6049,-3.5671,-3.7304,-3.8761,-3.7734,-3.7357,-3.6962,-3.5983,-3.6233,-3.697,-3.8308,-3.8939,-3.9981,-4.2164,-4.1842,-4.1704,-4.2705,-4.2488,-4.2231,-4.2286,-4.2249,-4.2145,-4.1903,-4.0787,-3.9941,-3.9648,-3.8568,-3.7905,-3.7905,-3.7503,-3.6949,-3.6182,-3.5744,-3.5054,-3.3912,-3.4621,-3.5334,-3.6062,-3.5734,-3.5215,-3.4546,-3.4567,-3.3457,-3.1466,-3.1136,-3.0791,-3.0432,-2.9834,-2.9744,-2.9983,-2.9699,-2.9579,-2.9579,-2.9579,-2.9317,-2.8864,0.0,0.0,0.0,0.0,0.0,0.0,0.0,0.0,0.0,0.0,0.0,0.0,0.0,0.0,0.0,0.0,0.0,0.0,0.0,0.0,-2.6369,-2.6964,-2.7772,-2.8136,-2.7861,-2.8608,-2.871,-2.8146,-2.7412,-2.7228,-2.756,-2.6843,-2.683,-2.7526,-2.8974,-3.0185,-3.1195,-3.1953,-3.2276,-3.2183,0.0,0.0,0.0,0.0,0.0,0.0,0.0,0.0,0.0,0.0,0.0,0.0,0.0,0.0,0.0,-2.9172,-2.9728,-3.0362,-3.1109,-3.2921,-3.4862,-3.6011,-3.7877,-3.9556,-3.9834,-3.9013,-3.8144,-3.7833,-3.7692,-3.7851,-3.8832,-3.9751,-4.1036,-4.3002,-4.2303,-4.1742,-4.247,-4.2047,-4.1827,-4.2249,-4.1772,-4.1434,-4.1611,-4.0213,-3.9146,-3.8918,-3.795,-3.7297,-3.711,-3.6561,-3.5896,-3.5119,-3.4544,-3.3912,-3.314,-3.3127,-3.3508,-3.4244,-3.4229,-3.3574,-3.2337,-3.287,-3.1765,-2.9411,-2.9829,-2.9789,-2.934,-2.9175,-2.9205,-2.934,-2.9175,-2.9116,-2.9101,-2.894,-2.8393,-2.7655,0.0,0.0,0.0,0.0,0.0,0.0,0.0,0.0,0.0,0.0,0.0,0.0,0.0,0.0,0.0,0.0,0.0,0.0,0.0,0.0,-2.581,-2.7717,-2.8174,-2.8202,-2.7812,-2.8585,-2.8461,-2.7373,-2.7692,-2.7402,-2.6601,-2.6528,-2.7442,-2.9166,-3.016,-3.1292,-3.2454,-3.2461,-3.248,-3.239,-3.1332,0.0,0.0,0.0,0.0,0.0,0.0,0.0,0.0,0.0,0.0,0.0,0.0,0.0,-2.8255,-2.9704,-3.0168,-3.0305,-3.0796,-3.3177,-3.5623,-3.6161,-3.6619,-3.7288,-3.8534,-3.7721,-3.7094,-3.8358,-3.8176,-3.7975,-3.8621,-3.9589,-4.0521,-4.1209,-4.2075,-4.2854,-4.3345,-4.3351,-4.3057,-4.2378,-4.2249,-4.154,-3.9872,-3.8968,-3.8088,-3.7053,-3.6226,-3.5487,-3.4776,-3.4684,-3.4326,-3.3564,-3.3507,-3.3111,-3.2404,-3.2378,-3.2763,-3.3488,-3.3474,-3.2807,-3.156,-3.1629,-3.0569,-2.868,-2.8725,-2.8712,-2.8622,-2.7979,-2.8098,-2.8607,-2.7964,-2.776,-2.7658,-2.6972,-2.625,-2.5619,0.0,0.0,0.0,0.0,0.0,0.0,0.0,0.0,0.0,0.0,0.0,0.0,0.0,0.0,0.0,0.0,0.0,0.0,0.0,-2.4152,-2.5363,-2.7435,-2.8014,-2.8192,-2.8046,-2.8662,-2.8675,-2.7972,-2.7921,-2.7557,-2.6951,-2.8171,-2.9536,-3.1022,-3.2126,-3.2981,-3.3623,-3.4146,-3.4173,-3.3786,-3.2835,-3.2171,0.0,0.0,0.0,0.0,0.0,0.0,0.0,0.0,-2.743,-2.747,-2.8531,-2.8429,-2.8116,-2.9143,-2.9466,-2.9587,-3.0281,-3.2619,-3.5037,-3.5699,-3.5937,-3.6732,-3.957,-3.9888,-3.9608,-3.9674,-4.0275,-4.0655,-4.028,-4.0541,-4.1033,-4.175,-4.2216,-4.2544,-4.2742,-4.2745,-4.2451,-4.1662,-4.1111,-4.0522,-3.9819,-3.8043,-3.6932,-3.7045,-3.5326,-3.432,-3.4489,-3.4066,-3.3482,-3.2757,-3.2744,-3.2354,-3.1594,-3.1641,-3.1765,-3.2049,-3.251,-3.2083,-3.0888,-3.1322,-3.0188,-2.7973,-2.8398,-2.8345,-2.7934,-2.773,-2.7775,-2.7934,-2.773,-2.7625,-2.7524,-2.6774,-2.6014,-2.5369,0.0,0.0,0.0,0.0,0.0,0.0,0.0,0.0,0.0,0.0,0.0,0.0,0.0,0.0,0.0,0.0,0.0,0.0,-2.2841,-2.3743,-2.505,-2.6948,-2.7617,-2.8014,-2.8201,-2.8489,-2.8554,-2.8323,-2.7513,-2.747,-2.8147,-2.9372,-3.0885,-3.2593,-3.3245,-3.393,-3.4641,-3.4861,-3.4859,-3.4628,-3.3665,-3.3106,0.0,0.0,0.0,0.0,0.0,0.0,0.0,0.0,-2.7428,-2.7289,-2.8275,-2.809,-2.774,-2.8706,-2.8994,-2.9198,-3.0103,-3.1934,-3.3796,-3.475,-3.5144,-3.6161,-3.9474,-4.0002,-3.9964,-4.0643,-4.0937,-4.1089,-4.1104,-4.0487,-4.0304,-4.1368,-4.1754,-4.1919,-4.1919,-4.1919,-4.1534,-4.0487,-3.9863,-3.9282,-3.8574,-3.6906,-3.5954,-3.6186,-3.4616,-3.3658,-3.3778,-3.3117,-3.2388,-3.1624,-3.1375,-3.104,-3.0497,-3.0501,-3.0523,-3.0523,-3.1263,-3.1206,-3.0467,-3.0684,-2.9753,-2.7913,-2.8201,-2.8002,-2.7625,-2.7625,-2.7625,-2.7625,-2.7625,-2.7625,-2.7458,-2.6496,-2.5837,-2.5286,0.0,0.0,0.0,0.0,0.0,0.0,0.0,0.0,0.0,0.0,0.0,0.0,0.0,0.0,0.0,0.0,0.0,0.0,-2.2291,-2.3523,-2.4873,-2.6455,-2.7014,-2.7587,-2.8174,-2.8032,-2.8031,-2.8205,-2.6359,-2.7044,-3.0113,-2.9799,-3.1134,-3.378,-3.319,-3.3872,-3.5397,-3.4286,-3.4139,-3.4585,-3.3468,-3.2847,-3.2519,0.0,0.0,0.0,0.0,0.0,0.0,0.0,-2.767,-2.6979,-2.8527,-2.7931,-2.7022,-2.8544,-2.8989,-2.9248,-3.0362,-3.1224,-3.2102,-3.3316,-3.4147,-3.535,-3.7754,-3.726,-3.7366,-4.1047,-3.9685,-3.8486,-4.0701,-3.9129,-3.8028,-3.9625,-4.0579,-4.1093,-4.1093,-4.1093,-4.0487,-3.8872,-3.8689,-3.7857,-3.5724,-3.5497,-3.5114,-3.4185,-3.4068,-3.3544,-3.2347,-3.1579,-3.0857,-3.0102,-2.9367,-2.9011,-2.9011,-2.9017,-2.8985,-2.9002,-2.9739,-3.0184,-3.0281,-2.9674,-2.9099,-2.8467,-2.7883,-2.7625,-2.7625,-2.7625,-2.7625,-2.7625,-2.7625,-2.7625,-2.7408,-2.5946,-2.5398,-2.5175,0.0,0.0,0.0,0.0,0.0,0.0,0.0,0.0,0.0,0.0,0.0,0.0,0.0,0.0,0.0,0.0,0.0,0.0,-2.3026,-2.3792,-2.5025,-2.6856,-2.7657,-2.8103,-2.8207,-2.9266,-2.9411,-2.8613,-2.868,-2.9788,-3.1863,-3.2343,-3.31,-3.4074,-3.3897,-3.3757,-3.368,-3.3767,-3.379,-3.3797,-3.3814,-3.3692,-3.3323,0.0,0.0,0.0,0.0,0.0,0.0,0.0,0.0,0.0,-2.8852,-2.8391,-2.7791,-2.822,-2.8351,-2.8431,-2.876,-3.0808,-3.2849,-3.3102,-3.4555,-3.6411,-3.8069,-3.8131,-3.8503,-4.0732,-3.9552,-3.8611,-4.0167,-3.9309,-3.8689,-3.9717,-4.0102,-4.0065,-3.9496,-3.9423,-3.8817,-3.7202,-3.7019,-3.674,-3.6109,-3.4961,-3.4338,-3.455,-3.3028,-3.189,-3.1529,-3.0835,-3.0074,-2.9333,-2.9113,-2.9011,-2.9011,-2.8977,-2.8996,-2.9013,-2.9736,-2.9895,-2.9516,-2.9879,-2.9453,-2.8514,-2.8325,-2.7984,-2.7625,-2.7625,-2.7625,-2.7625,-2.7625,-2.7306,-2.6721,-2.5728,-2.5063,-2.4452,0.0,0.0,0.0,0.0,0.0,0.0,0.0,0.0,0.0,0.0,0.0,0.0,0.0,0.0,0.0,0.0,0.0,0.0,0.0,-2.3865,-2.5016,-2.6733,-2.7509,-2.8066,-2.8509,-3.0219,-3.081,-3.0152,-3.0522,-3.15,-3.3077,-3.3689,-3.4227,-3.4699,-3.4353,-3.3904,-3.3436,-3.3689,-3.3637,-3.3449,-3.3976,-3.4049,-3.3707,0.0,0.0,0.0,0.0,0.0,0.0,0.0,0.0,0.0,-2.9349,-2.8818,-2.8169,-2.845,-2.8359,-2.8291,-2.8874,-3.069,-3.2598,-3.3082,-3.4894,-3.6854,-3.7657,-3.8257,-3.9032,-4.0233,-3.8793,-3.7727,-3.9068,-3.8154,-3.7514,-3.8322,-3.8469,-3.8303,-3.7808,-3.7753,-3.7147,-3.5495,-3.5312,-3.5055,-3.4412,-3.3415,-3.2836,-3.2958,-3.162,-3.0671,-3.0349,-2.96,-2.8991,-2.8535,-2.7943,-2.7774,-2.8061,-2.7791,-2.7791,-2.8078,-2.8839,-2.8992,-2.8655,-2.9783,-2.9782,-2.8833,-2.8078,-2.7524,-2.7186,-2.7186,-2.7335,-2.7595,-2.729,-2.6916,-2.6361,-2.5394,-2.4691,-2.4176,0.0,0.0,0.0,0.0,0.0,0.0,0.0,0.0,0.0,0.0,0.0,0.0,0.0,0.0,0.0,0.0,0.0,0.0,0.0,0.0,-2.5039,-2.6358,-2.7091,-2.8052,-2.9289,-3.1111,-3.2165,-3.239,-3.1992,-3.2556,-3.3953,-3.4205,-3.4686,-3.5311,-3.4532,-3.4135,-3.402,-3.3832,-3.3617,-3.3443,-3.397,-3.4018,-3.3715,-3.3295,0.0,0.0,0.0,0.0,0.0,0.0,0.0,0.0,-2.9842,-2.9175,-2.8342,-2.8857,-2.8647,-2.8534,-2.9848,-3.0756,-3.1625,-3.3031,-3.5054,-3.6737,-3.6769,-3.772,-3.8681,-3.921,-3.7574,-3.636,-3.7521,-3.6285,-3.5367,-3.6064,-3.6174,-3.6119,-3.5973,-3.5954,-3.5367,-3.377,-3.3587,-3.2999,-3.1531,-3.1334,-3.0984,-3.0277,-3.0137,-2.9754,-2.8946,-2.8213,-2.7722,-2.7587,-2.6319,-2.5896,-2.6488,-2.5896,-2.5947,-2.6607,-2.7435,-2.7789,-2.7805,-2.9379,-2.9748,-2.9033,-2.7273,-2.6507,-2.6531,-2.6497,-2.6856,-2.7335,-2.6737,-2.6394,-2.6093,-2.4797,-2.4203,-2.3974,0.0,0.0,0.0,0.0,0.0,0.0,0.0,0.0,0.0,0.0,0.0,0.0,0.0,0.0,0.0,0.0,0.0,0.0,0.0,0.0,-2.5435,-2.717,-2.9335,-3.0872,-3.1659,-3.2698,-3.3445,-3.3936,-3.352,-3.3952,-3.5147,-3.5185,-3.4836,-3.417,-3.4194,-3.37,-3.2893,-3.3313,-3.3449,-3.3425,-3.3734,-3.3655,-3.3295,-3.2838,-3.2256,0.0,0.0,0.0,0.0,0.0,0.0,0.0,-2.9504,-2.9254,-2.8946,-2.804,-2.7685,-2.779,-2.8606,-2.9643,-3.0804,-3.2351,-3.4377,-3.6169,-3.6666,-3.5774,-3.502,-3.559,-3.6327,-3.6746,-3.6379,-3.6168,-3.5862,-3.5367,-3.5265,-3.4853,-3.3587,-3.3403,-3.3036,-3.2027,-3.1916,-3.177,-3.1421,-3.083,-3.038,-3.0198,-2.9624,-2.8901,-2.8095,-2.7874,-2.7249,-2.6116,-2.5778,-2.5406,-2.4997,-2.5389,-2.5693,-2.5862,-2.7182,-2.7595,-2.7284,-2.8215,-2.8094,-2.7063,-2.6207,-2.5818,-2.5832,-2.5811,-2.5899,-2.6019,-2.5869,-2.5145,-2.4184,-2.3875,-2.3071,-2.2122,0.0,0.0,0.0,0.0,0.0,0.0,0.0,0.0,0.0,0.0,0.0,0.0,0.0,0.0,0.0,0.0,0.0,0.0,0.0,0.0,-2.5652,-2.7489,-2.9393,-3.0875,-3.1835,-3.2513,-3.3208,-3.3982,-3.4278,-3.4802,-3.5493,-3.5369,-3.498,-3.4429,-3.444,-3.388,-3.2958,-3.3545,-3.3559,-3.3224,-3.3442,-3.3406,-3.3118,-3.2432,-3.2024,-3.1651,-3.0644,0.0,0.0,0.0,0.0,0.0,0.0,0.0,-2.8849,-2.8134,-2.7485,-2.7244,-2.8233,-2.9194,-3.0479,-3.2964,-3.4419,-3.5209,-3.4892,-3.4249,-3.348,-3.2724,-3.3397,-3.4144,-3.4199,-3.3962,-3.3615,-3.3321,-3.3293,-3.2981,-3.2137,-3.1696,-3.1164,-3.0356,-2.9916,-2.9677,-2.9677,-2.9305,-2.9062,-2.9095,-2.839,-2.76,-2.6792,-2.6404,-2.5863,-2.5107,-2.4732,-2.4695,-2.5017,-2.505,-2.5423,-2.6133,-2.6911,-2.6878,-2.6225,-2.703,-2.6869,-2.5978,-2.5382,-2.5104,-2.5122,-2.5106,-2.5317,-2.5543,-2.4917,-2.4238,-2.351,-2.2899,-2.2153,-2.1531,0.0,0.0,0.0,0.0,0.0,0.0,0.0,0.0,0.0,0.0,0.0,0.0,0.0,0.0,0.0,0.0,0.0,0.0,0.0,0.0,0.0,-2.75,-2.8685,-2.9872,-3.1083,-3.1774,-3.2693,-3.3889,-3.4653,-3.542,-3.6128,-3.5465,-3.5202,-3.523,-3.4907,-3.4386,-3.3769,-3.407,-3.3727,-3.3018,-3.3148,-3.3077,-3.2788,-3.2067,-3.1687,-3.1443,-3.0496,-3.0012,-2.9739,-2.9392,0.0,0.0,0.0,0.0,-2.8505,-2.8394,-2.7606,-2.7033,-2.8118,-2.9024,-3.0379,-3.3525,-3.4266,-3.3862,-3.2756,-3.2756,-3.2485,-3.0641,-3.057,-3.1172,-3.2037,-3.15,-3.0939,-3.1057,-3.1157,-3.1072,-3.0705,-3.0167,-2.9494,-2.8663,-2.8007,-2.7585,-2.7585,-2.7478,-2.7435,-2.7493,-2.6823,-2.6115,-2.5463,-2.4837,-2.4447,-2.4305,-2.3722,-2.3934,-2.5033,-2.4543,-2.4997,-2.6319,-2.6387,-2.5941,-2.5069,-2.5586,-2.5617,-2.5124,-2.4646,-2.443,-2.4432,-2.4433,-2.4762,-2.5153,-2.3973,-2.3419,-2.31,-2.1898,-2.1366,-2.1204,0.0,0.0,0.0,0.0,0.0,0.0,0.0,0.0,0.0,0.0,0.0,0.0,0.0,0.0,0.0,0.0,0.0,0.0,-2.4617,0.0,0.0,-2.7355,-2.8403,-2.9348,-3.0264,-3.1809,-3.3525,-3.5404,-3.4963,-3.6139,-3.8738,-3.6498,-3.5572,-3.5771,-3.5267,-3.5107,-3.5158,-3.4498,-3.3738,-3.3018,-3.3153,-3.253,-3.155,-3.1726,-3.1241,-3.0429,-2.9754,-2.8795,-2.7936,-2.8425,-2.8252,0.0,0.0,0.0,-2.8394,-2.7876,-2.7615,-2.7489,-2.7674,-2.866,-3.0152,-3.2338,-3.241,-3.1921,-3.1751,-3.0899,-3.0046,-2.9704,-3.031,-3.1001,-3.1368,-3.1154,-3.0677,-2.9944,-3.0129,-2.9747,-2.7997,-2.7976,-2.7824,-2.7034,-2.6833,-2.6759,-2.6759,-2.6177,-2.5806,-2.5808,-2.5196,-2.474,-2.4658,-2.454,-2.4202,-2.3573,-2.3439,-2.3182,-2.275,-2.3274,-2.3951,-2.4797,-2.5228,-2.503,-2.4335,-2.3548,-2.3435,-2.3831,-2.3786,-2.3743,-2.3744,-2.3744,-2.3774,-2.379,-2.3076,-2.2461,-2.1849,-2.1175,-2.0514,-2.01,0.0,0.0,0.0,0.0,0.0,0.0,0.0,0.0,0.0,0.0,0.0,0.0,0.0,0.0,0.0,-2.1884,-2.292,-2.408,-2.5388,-2.6272,-2.6679,-2.65,-2.6916,-2.7827,-2.941,-3.0161,-3.161,-3.3785,-3.4136,-3.5455,-3.7603,-3.6622,-3.6684,-3.7527,-3.6493,-3.5856,-3.5416,-3.4163,-3.3204,-3.2493,-3.2449,-3.1846,-3.0958,-3.0948,-3.0681,-3.0105,-2.8796,-2.8167,-2.8006,-2.7531,-2.7444,-2.7605,-2.7907,0.0,0.0,0.0,-2.7309,-2.7116,-2.7519,-2.8293,-2.9357,-3.0615,-3.0694,-3.0308,-3.0008,-2.9463,-2.9004,-2.8958,-2.8951,-2.9108,-2.9689,-2.9295,-2.8898,-2.8927,-2.8692,-2.8282,-2.7638,-2.6893,-2.6319,-2.597,-2.5369,-2.5154,-2.5608,-2.5183,-2.4996,-2.5269,-2.4635,-2.4125,-2.3888,-2.3479,-2.3119,-2.2777,-2.2789,-2.2846,-2.2926,-2.3248,-2.3968,-2.5118,-2.4775,-2.4468,-2.4147,-2.2769,-2.2473,-2.3056,-2.2697,-2.2936,-2.3565,-2.3245,-2.3111,-2.3016,-2.2377,-2.1555,-2.0704,-2.038,-1.9864,-1.9447,0.0,0.0,0.0,0.0,0.0,0.0,0.0,0.0,0.0,0.0,0.0,0.0,0.0,0.0,0.0,0.0,-2.2492,-2.3599,-2.5535,-2.5688,-2.5558,-2.5199,-2.532,-2.6286,-2.808,-2.8463,-2.9774,-3.2135,-3.3177,-3.4795,-3.6935,-3.7162,-3.8115,-3.9563,-3.7716,-3.6489,-3.5708,-3.4181,-3.3069,-3.2306,-3.162,-3.0903,-3.0158,-2.9708,-2.9442,-2.9159,-2.7639,-2.7292,-2.7366,-2.6741,-2.6728,-2.7121,-2.7275,-2.7345,0.0,0.0,0.0,-2.6155,-2.666,-2.7189,-2.7733,-2.861,-2.8951,-2.9035,-2.8689,-2.8606,-2.8554,-2.8301,-2.7807,-2.7527,-2.7939,-2.7655,-2.7531,-2.8047,-2.7769,-2.7441,-2.7245,-2.6344,-2.5548,-2.5146,-2.4342,-2.4031,-2.4563,-2.4307,-2.4196,-2.4475,-2.3915,-2.3442,-2.313,-2.2596,-2.231,-2.231,-2.231,-2.257,-2.3136,-2.3323,-2.3887,-2.4843,-2.4237,-2.3795,-2.349,-2.2087,-2.1724,-2.2188,-2.1849,-2.2237,-2.3071,-2.2615,-2.2468,-2.2362,-2.175,-2.0934,-2.014,-1.9749,-1.9447,-1.9258,0.0,0.0,0.0,0.0,0.0,0.0,0.0,0.0,0.0,0.0,0.0,0.0,-1.8954,-1.916,-1.9851,-2.138,-2.1249,-2.2008,-2.4271,-2.4558,-2.4249,-2.3306,-2.4144,0.0,-2.5949,-2.733,-2.9243,-3.1655,-3.238,-3.4796,-3.8671,-3.8746,-3.9808,-4.1514,-3.8439,-3.693,-3.6545,-3.4991,-3.39,-3.2979,-3.0924,-2.9593,-2.8797,-2.7822,-2.7143,-2.6652,-2.6415,-2.5629,-2.4885,-2.6081,-2.6096,-2.5721,-2.6437,-2.6665,-2.6534,0.0,0.0,0.0,-2.4648,-2.4688,-2.5015,-2.6395,-2.7212,-2.7885,-2.8447,-2.8581,-2.8447,-2.7805,-2.75,-2.7199,-2.6593,-2.7044,-2.7466,-2.7355,-2.7911,-2.7697,-2.587,-2.6162,-2.597,-2.4447,-2.4226,-2.4072,-2.3807,-2.3463,-2.314,-2.2842,-2.2549,-2.2378,-2.235,-2.2299,-2.231,-2.231,-2.231,-2.2327,-2.2361,-2.3056,-2.322,-2.2851,-2.3058,-2.2633,-2.1615,-2.1015,-2.0789,-2.0831,-2.1435,-2.1728,-2.1799,-2.1754,-2.1757,-2.1683,-2.1101,-2.0819,-2.0604,-1.9482,-1.9359,-1.9698,0.0,0.0,0.0,0.0,0.0,0.0,0.0,0.0,0.0,0.0,0.0,0.0,0.0,-1.8512,-1.9524,-2.2283,-2.3085,-2.3349,-2.3145,-2.3453,-2.3231,-2.238,-2.359,-2.427,-2.3988,-2.6141,-2.8005,-2.9445,-3.1533,-3.3619,-3.5608,-3.685,-3.7642,-3.8004,-3.8014,-3.7615,-3.6855,-3.4261,-3.2741,-3.1898,-3.0231,-2.9082,-2.8296,-2.7189,-2.6657,-2.6346,-2.543,-2.5089,-2.5065,-2.508,-2.5256,-2.5469,-2.5767,-2.5568,-2.5106,-2.4532,-2.4406,-2.4372,-2.4077,-2.4546,-2.5029,-2.4803,-2.5497,-2.6312,-2.6623,-2.7027,-2.7373,-2.7539,-2.7545,-2.7312,-2.6525,-2.6798,-2.7019,-2.6824,-2.6849,-2.6833,-2.6626,-2.6188,-2.5584,-2.4744,-2.4265,-2.3766,-2.3122,-2.2781,-2.2571,-2.2436,-2.2332,-2.231,-2.231,-2.231,-2.231,-2.231,-2.231,-2.231,-2.231,-2.3039,-2.3141,-2.2701,-2.2539,-2.2106,-2.1475,-2.0485,-2.0064,-2.0072,-2.0303,-2.0908,-2.1625,-2.0872,-2.0554,-2.0474,-1.9925,-1.9278,-1.8635,-1.8929,-1.8694,-1.8367,0.0,0.0,0.0,0.0,0.0,0.0,0.0,0.0,0.0,-1.6628,0.0,0.0,0.0,0.0,-1.9469,-2.2303,-2.3083,-2.3063,-2.2352,-2.261,-2.2521,-2.1952,-2.2598,-2.2962,-2.2813,-2.4845,-2.6308,-2.7283,-3.0095,-3.2264,-3.3817,-3.5096,-3.5894,-3.6377,-3.714,-3.7171,-3.6479,-3.4238,-3.2869,-3.1991,-2.9839,-2.864,-2.8014,-2.6596,-2.6022,-2.5784,-2.4696,-2.4549,-2.4924,-2.4463,-2.4622,-2.5012,-2.5039,-2.4459,-2.3702,-2.3138,-2.3363,-2.3625,-2.3125,-2.3501,-2.3974,-2.3428,-2.3958,-2.4653,-2.5177,-2.5941,-2.6707,-2.7156,-2.7259,-2.6985,-2.6244,-2.6248,-2.6349,-2.633,-2.6265,-2.638,-2.6764,-2.6321,-2.5711,-2.5177,-2.4729,-2.4086,-2.3189,-2.2944,-2.2685,-2.2327,-2.231,-2.231,-2.231,-2.231,-2.231,-2.231,-2.231,-2.231,-2.231,-2.2796,-2.2717,-2.2136,-2.1874,-2.1428,-2.087,-2.005,-1.969,-1.969,-1.969,-2.0198,-2.0953,-1.9957,-1.9543,-1.9516,-1.9003,-1.8332,-1.7727,-1.8279,-1.8242,-1.8053,0.0,0.0,0.0,0.0,0.0,0.0,0.0,0.0,-1.7638,-1.6488,0.0,0.0,0.0,0.0,0.0,-2.1272,-2.097,-2.1016,-2.1851,-2.2159,-2.2159,-2.1851,-2.1047,-2.1217,-2.2468,-2.3403,-2.4332,-2.531,-2.811,-3.0952,-3.3808,-3.3765,-3.4951,-3.7036,-3.5951,-3.5429,-3.5404,-3.4979,-3.4375,-3.3353,-2.979,-2.8255,-2.7883,-2.5923,-2.5079,-2.4851,-2.4205,-2.3991,-2.4066,-2.4249,-2.4244,-2.4266,-2.4332,-2.3437,-2.2258,-2.176,-2.1902,-2.2146,0.0,0.0,0.0,-2.2356,-2.2594,-2.2974,-2.437,-2.5644,-2.6494,-2.6561,-2.6528,-2.6289,-2.5552,-2.5292,-2.5378,-2.5863,-2.6215,-2.6384,-2.6148,-2.6446,-2.639,-2.5597,-2.5493,-2.5095,-2.3979,-2.3894,-2.3441,-2.2372,-2.231,-2.231,-2.231,-2.231,-2.231,-2.231,-2.231,-2.231,-2.231,-2.231,-2.1877,-2.1005,-2.1014,-2.0548,-1.969,-1.969,-1.969,-1.969,-1.969,-1.969,-1.9632,-1.9118,-1.8865,-1.8789,-1.8332,-1.8164,-1.8116,-1.7576,-1.8078,-1.8883,0.0,0.0,0.0,0.0,0.0,-1.8965,-1.8525,-1.8467,-1.8389,0.0,0.0,0.0,-1.9513,-1.9905,-2.0665,-2.1946,-2.2399,-2.244,-2.1956,-2.2623,-2.2492,-2.1037,-2.108,-2.1505,-2.2105,-2.3721,-2.4258,-2.3749,-2.8408,-3.1756,-3.3799,-3.313,-3.3386,-3.4303,-3.4226,-3.388,-3.3314,-3.3214,-3.2861,-3.2122,-2.8893,-2.7581,-2.7295,-2.4859,-2.3838,-2.3758,-2.3545,-2.3418,-2.3412,-2.3446,-2.3446,-2.3386,-2.3018,-2.2337,-2.1732,-2.1554,-2.1325,-2.1094,-2.0966,0.0,0.0,0.0,0.0,0.0,-2.4326,-2.5202,-2.5792,-2.5879,-2.5879,-2.5386,-2.3758,-2.3442,-2.3591,-2.412,-2.4948,-2.5743,-2.6301,-2.6285,-2.6146,-2.604,-2.5737,-2.5043,-2.3653,-2.354,-2.3187,-2.2361,-2.231,-2.231,-2.231,-2.231,-2.231,-2.231,-2.231,-2.231,-2.231,-2.231,-2.1877,-2.1005,-2.1014,-2.0548,-1.969,-1.969,-1.969,-1.969,-1.969,-1.9487,-1.908,-1.8556,-1.8099,-1.7697,-1.7192,-1.7232,-1.7589,-1.7438,-1.7827,-1.8468,0.0,0.0,0.0,0.0,0.0,-2.001,-1.9756,-1.9873,-1.9873,0.0,0.0,0.0,-2.0299,-2.0906,-2.1519,-2.2046,-2.2631,-2.2527,-2.169,-2.197,-2.1765,-2.0622,-2.0925,-2.1479,-2.2291,-2.3526,-2.3841,-2.3109,-2.7547,-3.0933,-3.326,-3.2732,-3.2644,-3.2908,-3.311,-3.2823,-3.2196,-3.1934,-3.1524,-3.0817,-2.8595,-2.7372,-2.6558,-2.4422,-2.3707,-2.3829,-2.3263,-2.3236,-2.3452,-2.3153,-2.3078,-2.2955,-2.2031,-2.1799,-2.1731,-2.1294,-2.1238,-2.135,-2.1091,-2.1643,-2.216,-2.1536,0.0,0.0,-2.3237,-2.3958,-2.4597,-2.4416,-2.4371,-2.402,-2.2855,-2.2427,-2.2413,-2.3022,-2.3713,-2.4594,-2.5793,-2.5786,-2.5707,-2.5765,-2.5581,-2.5063,-2.4072,-2.3706,-2.3318,-2.2794,-2.2468,-2.231,-2.231,-2.231,-2.231,-2.231,-2.231,-2.231,-2.231,-2.231,-2.1877,-2.1005,-2.1014,-2.0548,-1.969,-1.969,-1.969,-1.969,-1.969,-1.9257,-1.8526,-1.8232,-1.7788,-1.7229,-1.671,-1.6722,-1.7024,-1.7024,-1.7526,-1.8254,0.0,0.0,-2.0254,-2.1094,-2.123,-2.125,-2.1299,-2.1641,-2.1602,0.0,-2.1064,-2.1338,-2.1435,-2.1971,-2.2207,-2.2031,-2.2207,-2.202,-2.1406,-2.087,-2.0639,-2.0654,-2.0596,-2.1192,-2.259,-2.3212,-2.3436,-2.3212,-2.5828,-2.8728,-3.1875,-3.2081,-3.2143,-3.2108,-3.2039,-3.181,-3.137,-3.0656,-2.9807,-2.893,-2.8218,-2.7055,-2.5629,-2.4022,-2.3853,-2.43,-2.3067,-2.3177,-2.3828,-2.3314,-2.3078,-2.2857,-2.162,-2.1736,-2.2133,-2.1204,-2.1543,-2.2133,-2.1694,-2.1927,-2.2317,-2.2281,-2.2297,0.0,-2.1971,-2.2674,-2.3269,-2.2793,-2.2612,-2.2538,-2.2352,-2.1799,-2.1612,-2.2305,-2.2488,-2.3172,-2.4855,-2.5051,-2.5051,-2.5073,-2.5104,-2.494,-2.4641,-2.4049,-2.3603,-2.3338,-2.2688,-2.231,-2.231,-2.231,-2.231,-2.231,-2.231,-2.231,-2.231,-2.231,-2.1877,-2.1005,-2.1014,-2.0548,-1.969,-1.969,-1.969,-1.969,-1.9645,-1.9022,-1.8087,-1.8051,-1.7679,-1.7146,-1.668,-1.6534,-1.6602,-1.6522,-1.7237,-1.8204,0.0,-2.0772,-2.0605,-2.1143,-2.123,-2.1357,-2.1709,-2.1836,-2.1826,-2.165,-2.1709,-2.2021,-2.2695,-2.2549,-2.2539,-2.2861,-2.2598,-2.2363,-2.2275,-2.1197,-2.0774,-2.1103,-2.0762,-2.1115,-2.2115,-2.3557,-2.419,-2.3991,-2.3963,-2.53,-2.7854,-2.9311,-2.9854,-2.9606,-2.9247,-2.9061,-2.8881,-2.7479,-2.5747,-2.404,-2.5157,-2.516,-2.4157,-2.204,-2.1753,-2.2426,-2.213,-2.2604,-2.3288,-2.3115,-2.3078,-2.3053,-2.2747,-2.2483,-2.2347,-2.2585,-2.2184,-2.1719,-2.2058,-2.2216,-2.2299,-2.2329,-2.2312,0.0,-2.3545,-2.3581,-2.328,-2.2751,-2.2605,-2.2128,-2.0642,-2.0232,-2.0361,-2.1053,-2.1496,-2.2456,-2.4313,-2.4138,-2.3967,-2.4331,-2.4405,-2.4147,-2.3497,-2.3587,-2.3453,-2.2801,-2.2462,-2.231,-2.231,-2.231,-2.231,-2.231,-2.231,-2.231,-2.231,-2.231,-2.1877,-2.1005,-2.1014,-2.0548,-1.969,-1.969,-1.969,-1.9675,-1.9241,-1.8702,-1.8084,-1.7653,-1.7127,-1.6637,-1.6552,-1.682,-1.7188,-1.6683,-1.7237,-1.8182,-2.0377,-2.0489,-2.0866,-2.0693,-2.1207,-2.1777,-2.2412,-2.251,-2.251,-2.251,-2.251,-2.2676,-2.3096,-2.2949,-2.291,-2.3125,-2.2949,-2.2734,-2.2519,-2.1894,-2.1467,-2.117,-2.1016,-2.1241,-2.1962,-2.3078,-2.3851,-2.4357,-2.2955,-2.3197,-2.5025,-2.5625,-2.6079,-2.6477,-2.6441,-2.5799,-2.4603,-2.3744,-2.2553,-2.1449,-2.2606,-2.2513,-2.1475,-2.0322,-2.0726,-2.1877,-2.1877,-2.2445,-2.3017,-2.2641,-2.2763,-2.3005,-2.2628,-2.2565,-2.2723,-2.2723,-2.2523,-2.2309,-2.2309,-2.2472,-2.2707,-2.2707,-2.2693,0.0,0.0,-2.2837,-2.2278,-2.1761,-2.139,-2.0926,-1.995,-2.0037,-2.0398,-2.0749,-2.1233,-2.192,-2.2905,-2.3064,-2.3031,-2.2966,-2.2966,-2.2933,-2.2829,-2.2948,-2.2948,-2.262,-2.2762,-2.2683,-2.2327,-2.231,-2.231,-2.231,-2.231,-2.231,-2.231,-2.2065,-2.1645,-2.0991,-2.0746,-2.0303,-1.969,-1.969,-1.9564,-1.9307,-1.9,-1.8435,-1.7689,-1.7408,-1.6993,-1.6522,-1.6522,-1.6683,-1.6901,-1.6602,-1.7049,-1.7791,-1.9977,-2.0533,-2.113,-2.0588,-2.1265,-2.2139,-2.29,-2.3018,-2.3047,-2.3125,-2.294,-2.2988,-2.3174,-2.3262,-2.333,-2.3496,-2.3281,-2.3066,-2.2891,-2.2646,-2.2197,-2.1514,-2.1306,-2.1432,-2.1803,-2.239,-2.305,-2.3833,-2.2356,-2.2027,-2.2885,-2.2521,-2.2811,-2.358,-2.3728,-2.2893,-2.1331,-2.0534,-1.9827,-1.9131,-1.9052,-1.9019,-1.892,-1.8767,-1.9911,-2.1678,-2.2002,-2.2567,-2.3005,-2.2384,-2.2567,-2.3017,-2.2322,-2.2567,-2.2977,-2.2598,-2.2786,-2.3037,-2.2585,-2.2799,-2.3078,-2.2884,-2.2919,-2.284,0.0,0.0,0.0,-2.0982,-2.0473,-2.0062,-1.9849,-2.0188,-2.0549,-2.0575,-2.1172,-2.1471,-2.1166,-2.174,-2.1978,-2.1396,-2.1459,-2.163,-2.1932,-2.2325,-2.2552,-2.261,-2.3323,-2.3448,-2.2745,-2.2807,-2.2796,-2.2733,-2.2733,-2.2649,-2.2491,-2.2042,-2.1553,-2.1004,-2.0516,-2.0095,-1.969,-1.969,-1.9403,-1.8905,-1.8796,-1.8187,-1.7286,-1.7193,-1.6894,-1.6522,-1.6522,-1.6522,-1.6522,-1.6522,-1.682,-1.7226,-2.1656,-2.1695,-2.1826,-2.17,-2.1802,-2.2041,-2.251,-2.2578,-2.2715,-2.3086,-2.2556,-2.2509,-2.3621,-2.3721,-2.4023,-2.4785,-2.3799,-2.3437,-2.416,-2.3028,-2.2357,-2.2373,-2.1694,-2.1361,-2.1322,-2.2237,-2.2336,-2.1554,-2.2105,-2.207,-2.145,-2.1888,-2.2049,-2.191,-2.1155,-2.1493,-2.2507,-1.94,-1.7072,-1.5057,-1.2398,-1.3987,-1.791,-1.7198,-1.8506,-2.091,-2.2433,-2.3005,-2.3078,-2.3005,-2.3005,-2.3065,-2.3005,-2.3017,-2.3065,-2.3002,-2.3027,-2.3065,-2.3002,-2.3027,-2.2944,-2.2187,-2.2189,-2.2322,-2.203,0.0,-2.207,-2.1537,0.0,-2.0991,-1.9987,0.0,0.0,-1.9914,-2.0797,-2.0949,-1.9271,-1.9946,-2.049,-1.999,-2.0508,-2.0693,-2.0052,-2.1816,-2.2938,-2.2714,-2.4057,-2.4695,-2.4266,-2.4582,-2.462,-2.4269,-2.4269,-2.3939,-2.3283,-2.2803,-2.2051,-2.0983,-2.0538,-2.0095,-1.969,-1.969,-1.9403,-1.8863,-1.8411,-1.784,-1.7269,-1.6786,-1.657,-1.6522,-1.6522,-1.6522,-1.6522,-1.6522,-1.6534,-1.669,-2.0733,-2.147,-2.2068,-2.1448,-2.1268,-2.1314,-2.1714,-2.1346,-2.1383,-2.2295,-2.2099,-2.2575,-2.438,-2.4307,-2.4502,-2.5381,-2.4717,-2.4418,-2.4667,-2.381,-2.3153,-2.2873,-2.2562,-2.2173,-2.1843,-2.2367,-2.2252,-2.1306,-2.1797,-2.1421,-2.0302,-1.9923,-1.9649,-1.9488,-1.8548,-1.7571,-1.6536,-1.4505,-1.1695,-0.8645,-0.9554,-1.2365,-1.6173,-1.695,-1.9207,-2.2113,-2.2884,-2.3078,-2.3078,-2.3078,-2.3078,-2.3078,-2.3078,-2.3078,-2.3078,-2.3078,-2.3078,-2.3017,-2.2506,-2.2384,-2.2322,-2.2002,-2.2003,-2.2152,-2.2494,-2.2441,-2.2222,-2.2027,0.0,0.0,0.0,0.0,0.0,0.0,-2.0143,-1.9982,-1.8875,-1.8768,-1.8873,-1.9121,-1.9386,-1.9674,-1.9855,-2.1599,-2.2494,-2.1861,-2.3961,-2.4859,-2.3905,-2.4672,-2.4925,-2.4496,-2.4503,-2.4143,-2.3414,-2.2702,-2.1911,-2.098,-2.0289,-1.9852,-1.969,-1.969,-1.9403,-1.8863,-1.8344,-1.7804,-1.7269,-1.6739,-1.6522,-1.6522,-1.6522,-1.6522,-1.6522,-1.6522,-1.6522,-1.6559,-2.056,-2.155,-2.2284,-2.1089,-2.0802,-2.0718,-2.0642,-2.0195,-2.0289,-2.1823,-2.2023,-2.287,-2.5061,-2.5078,-2.5312,-2.6191,-2.5752,-2.5369,-2.5174,-2.4268,-2.3574,-2.309,-2.3137,-2.2843,-2.2389,-2.2524,-2.2139,-2.135,-2.142,-2.0808,-1.9742,-1.8821,-1.8373,-1.828,-1.7213,-1.543,-1.311,-1.1316,-0.8694,-0.5921,-0.9668,-1.3325,-1.6612,-1.8086,-2.0235,-2.2494,-2.2944,-2.3078,-2.3078,-2.3078,-2.3078,-2.3078,-2.3078,-2.3078,-2.3078,-2.2823,-2.2763,-2.2567,-2.1741,-2.1553,-2.1553,-2.1553,-2.1753,-2.2063,-2.2641,-2.2633,-2.2472,-2.2304,-2.1675,0.0,0.0,0.0,-2.0423,-1.9626,0.0,-1.9223,-1.8247,-1.78,-1.7779,-1.8352,-1.8555,-1.897,-1.9568,-2.1212,-2.1913,-2.1046,-2.3759,-2.501,-2.4031,-2.5079,-2.5586,-2.5272,-2.5147,-2.4638,-2.3716,-2.2834,-2.1938,-2.097,-2.0111,-1.969,-1.969,-1.969,-1.9403,-1.8848,-1.8323,-1.7794,-1.7269,-1.6739,-1.6522,-1.6522,-1.6522,-1.6522,-1.6522,-1.6522,-1.6522,-1.6522,-2.2252,-2.2707,-2.2621,-2.0962,-2.0716,-2.0271,-1.9049,-1.9274,-2.0103,-2.1787,-2.2351,-2.3379,-2.5421,-2.6084,-2.667,-2.7529,-2.6836,-2.6162,-2.5723,-2.4032,-2.3076,-2.3067,-2.3125,-2.293,-2.25,-2.2389,-2.1964,-2.124,-2.085,-2.0399,-1.9883,-1.9463,-1.9258,-1.9228,-1.7777,-1.6759,-1.5742,-1.1891,-0.9854,-0.9477,-1.3383,-1.7111,-2.0443,-2.095,-2.0917,-2.091,-2.2506,-2.3078,-2.3078,-2.3078,-2.3078,-2.3078,-2.3078,-2.3078,-2.2944,-2.2199,-2.1939,-2.1753,-2.0846,-2.0655,-2.0655,-2.0655,-2.1302,-2.1877,-2.1939,-2.2555,-2.2962,-2.2422,-2.2284,-2.1933,-2.092,-2.0718,-2.025,-1.897,-1.9233,0.0,0.0,-1.7032,-1.7485,-1.7634,-1.8286,-1.8698,-1.8722,-2.0473,-2.1293,-2.0493,-2.3626,-2.5568,-2.5444,-2.6567,-2.7208,-2.7198,-2.6843,-2.5913,-2.4489,-2.3604,-2.2435,-2.1007,-2.012,-1.969,-1.969,-1.969,-1.9403,-1.8876,-1.8325,-1.7788,-1.7269,-1.6739,-1.6522,-1.6522,-1.6522,-1.6522,-1.6522,-1.6522,-1.6522,-1.6522,-2.0473,-2.0142,-2.015,-2.0926,-1.9757,-1.8597,-1.8148,-1.8342,-1.9344,-2.1437,-2.2691,-2.4253,-2.6589,-2.7313,-2.7998,-2.8857,-2.8125,-2.762,-2.7456,-2.5797,-2.4565,-2.3967,-2.3046,-2.2354,-2.194,-2.1332,-2.1367,-2.1938,-2.1034,-2.0556,-2.0332,-1.9808,-1.9457,-1.9277,-1.8165,-1.6946,-1.5725,-1.4018,-1.2494,-1.1452,-1.4675,-1.7586,-2.0184,-2.1275,-2.2163,-2.2931,-2.3455,-2.3453,-2.3078,-2.3078,-2.3078,-2.3017,-2.2445,-2.2322,-2.2125,-2.1302,-2.1049,-2.0846,-2.0009,-1.9759,-1.9759,-1.9759,-1.9944,-2.0333,-2.091,-2.1024,-2.104,-2.1356,-2.0736,-2.0286,-2.0628,-1.9812,-1.8998,-1.873,-1.805,-1.7309,0.0,-1.669,-1.7006,-1.7564,-1.8696,-1.9098,-1.827,-1.9597,-2.0024,-1.8692,-2.1967,-2.3983,-2.3921,-2.5717,-2.6813,-2.6877,-2.6775,-2.6051,-2.4713,-2.4148,-2.3203,-2.1838,-2.084,-2.0363,-2.0348,-1.9884,-1.9594,-1.9388,-1.8491,-1.8012,-1.7748,-1.6888,-1.6522,-1.6522,-1.6522,-1.6522,-1.6522,-1.6522,-1.6522,-1.6522,-1.905,-1.8569,-1.837,-1.9183,-1.8179,-1.721,-1.721,-1.8527,-2.0083,-2.1703,-2.3598,-2.561,-2.753,-2.8163,-2.8721,-2.9128,-2.8939,-2.8682,-2.8341,-2.7206,-2.5807,-2.3935,-2.2772,-2.189,-2.1147,-2.0078,-2.0064,-2.1098,-2.0606,-2.0404,-2.0339,-2.0159,-1.9905,-1.9736,-1.8966,-1.788,-1.6685,-1.6372,-1.5237,-1.3927,-1.6268,-1.8701,-2.1044,-2.2092,-2.297,-2.3578,-2.3642,-2.3441,-2.3078,-2.3078,-2.2884,-2.2567,-2.2063,-2.169,-2.1302,-2.0398,-2.0139,-1.9944,-1.9044,-1.8854,-1.8911,-1.9233,-1.9299,-1.9444,-2.0176,-2.0138,-2.0025,-2.0514,-2.0081,-1.9807,-2.0418,-1.9942,-1.9124,-1.8239,-1.7268,-1.6503,0.0,-1.6337,-1.6778,-1.7487,-1.8655,-1.8964,-1.7874,-1.9083,-1.9291,-1.7773,-2.0955,-2.3062,-2.3331,-2.5234,-2.6515,-2.6894,-2.6775,-2.6084,-2.4804,-2.4398,-2.357,-2.2278,-2.1212,-2.0714,-2.0684,-2.0019,-1.9589,-1.939,-1.8484,-1.8003,-1.7748,-1.6845,-1.6522,-1.6522,-1.6522,-1.6522,-1.6522,-1.6522,-1.6522,-1.6522,-1.8208,-1.788,-1.7289,-1.6099,-1.6157,-1.635,-1.6363,-1.9583,-2.2207,-2.2705,-2.533,-2.7422,-2.8262,-2.873,-2.8826,-2.8382,-2.9346,-2.958,-2.8347,-2.8094,-2.6468,-2.3064,-2.2407,-2.1607,-2.0346,-1.8762,-1.8237,-1.8734,-1.9566,-1.996,-2.0018,-2.041,-2.0576,-2.0518,-2.0117,-1.9453,-1.8621,-1.8564,-1.7852,-1.6894,-1.8199,-2.0354,-2.2894,-2.322,-2.3048,-2.2655,-2.2997,-2.3042,-2.3005,-2.3017,-2.2457,-2.1815,-2.1753,-2.1164,-2.0333,-1.9497,-1.9233,-1.9044,-1.8202,-1.8008,-1.8202,-1.9044,-1.9233,-1.9314,-1.9736,-1.98,-1.9778,-1.984,-2.0121,-2.0377,-2.0278,-2.0867,-2.0344,-1.7349,-1.6864,-1.6519,-1.5536,-1.5979,-1.6719,-1.7501,-1.819,-1.834,-1.7677,-1.885,-1.9089,-1.7615,-2.0505,-2.2732,-2.3606,-2.5095,-2.6337,-2.7216,-2.6877,-2.6084,-2.4837,-2.4394,-2.3597,-2.2332,-2.131,-2.0771,-2.0712,-2.0064,-1.9419,-1.888,-1.8326,-1.7804,-1.7269,-1.6739,-1.6522,-1.6522,-1.6522,-1.6522,-1.6522,-1.6522,-1.6522,-1.6534,-1.6425,-1.6545,-1.6903,-1.7508,-1.7508,-1.7428,-1.7565,-2.0646,-2.3709,-2.5831,-2.7429,-2.8515,-2.8891,-2.9478,-2.9726,-2.9283,-3.0105,-3.0128,-2.879,-2.5756,-2.4182,-2.4742,-2.233,-2.0554,-1.9788,-1.786,-1.7294,-1.8285,-1.9407,-1.9986,-2.0027,-2.0714,-2.0713,-2.0088,-2.0303,-1.9736,-1.8621,-1.9245,-1.9333,-1.9046,-1.9438,-2.048,-2.1739,-2.148,-2.1484,-2.1858,-2.2533,-2.2531,-2.2087,-2.1452,-2.1088,-2.0846,-2.0139,-1.9814,-1.9431,-1.8596,-1.8337,-1.8269,-1.8076,-1.8008,-1.8076,-1.8269,-1.8337,-1.8365,-1.8445,-1.8228,-1.8189,-1.8744,-1.8426,-1.8291,-1.929,-1.9171,-1.8473,-1.7094,-1.628,-1.571,-1.541,-1.5584,-1.611,-1.7159,-1.7159,-1.7202,-1.7578,-1.8096,-1.7763,-1.631,-1.8812,-2.0691,-2.1409,-2.3907,-2.5654,-2.6333,-2.6239,-2.5826,-2.5099,-2.4586,-2.3968,-2.3254,-2.252,-2.1914,-2.144,-2.0751,-1.9894,-1.888,-1.8326,-1.7804,-1.7269,-1.6739,-1.6522,-1.6522,-1.6522,-1.6522,-1.6522,-1.6522,-1.6764,-1.7188,-1.5999,-1.6259,-1.6749,-1.7421,-1.7969,-1.8342,-1.8662,-2.1007,-2.3309,-2.5044,-2.6509,-2.7924,-2.9368,-2.8465,-2.8013,-2.8906,-2.8876,-2.8359,-2.7076,-2.4133,-2.2771,-2.3378,-2.1643,-1.9979,-1.8722,-1.7231,-1.6684,-1.7087,-1.8838,-1.9798,-1.9939,-2.1006,-2.107,-2.0256,-2.0459,-1.9951,-1.8936,-1.9228,-1.957,-1.9893,-2.0216,-2.0595,0.0,-2.1203,-2.1275,-2.1408,-2.124,-2.124,-2.1262,-2.075,-2.0358,-1.9944,-1.9431,-1.9044,-1.8664,-1.8134,-1.8008,-1.8008,-1.8008,-1.8008,-1.8008,-1.8008,-1.8008,-1.7959,-1.7773,-1.7549,-1.7504,-1.794,-1.7447,-1.7298,-1.8468,-1.8312,-1.7709,-1.6798,-1.5936,-1.5478,-1.5674,-1.5693,-1.6148,-1.7324,-1.7259,-1.7222,-1.764,-1.7743,-1.7452,-1.667,-1.8748,-2.0409,-2.119,-2.3717,-2.5397,-2.5983,-2.627,-2.5987,-2.5191,-2.4948,-2.4407,-2.3595,-2.2999,-2.2352,-2.1668,-2.0738,-1.9693,-1.8513,-1.7974,-1.7433,-1.6913,-1.6615,-1.6522,-1.6522,-1.6522,-1.6654,-1.6892,-1.6878,-1.7119,-1.7424,-1.5973,-1.6461,-1.676,-1.6954,-1.8002,-1.903,-1.9598,-2.1036,-2.2149,-2.2285,-2.4241,-2.6534,-2.8926,-2.6471,-2.5613,-2.7757,-2.674,-2.5544,-2.4242,-2.2767,-2.1592,-2.0989,-2.0604,-1.9607,-1.7595,-1.7048,-1.6498,-1.5852,-1.8356,-1.9595,-1.9745,-2.1191,-2.1428,-2.0633,-2.0575,-2.0088,-1.9268,-1.8945,-1.9199,-1.9879,-2.0555,-2.0719,-2.0688,-2.1398,-2.1377,-2.0766,-1.9596,-1.9694,-2.042,-2.0325,-1.9756,-1.911,-1.911,-1.8596,-1.8008,-1.8008,-1.8008,-1.8008,-1.8008,-1.8008,-1.8008,-1.8008,-1.8008,-1.79,-1.748,-1.7383,-1.7363,-1.7314,-1.7002,-1.6982,-1.7878,-1.8021,-1.7634,-1.6606,-1.5919,-1.5723,-1.6094,-1.6152,-1.6545,-1.7626,-1.7714,0.0,-1.7709,-1.769,-1.7622,-1.7636,-1.9241,-2.0696,-2.1696,-2.3679,-2.5072,-2.5644,-2.6243,-2.6119,-2.5104,-2.5158,-2.4655,-2.3595,-2.3081,-2.2381,-2.1542,-2.051,-1.9309,-1.795,-1.7515,-1.6982,-1.6522,-1.6522,-1.6522,-1.6522,-1.6579,-1.6954,-1.7443,-1.7549,-1.7547,-1.7543,-1.4737,-1.5929,-1.7354,-1.8556,-1.8224,-1.8408,-2.013,-2.185,-2.2549,-2.117,-2.4382,-2.6267,-2.5027,-2.5483,-2.5857,-2.5842,-2.5637,-2.4684,-2.2807,-2.0957,-2.021,-2.0981,-1.9843,-1.8658,-1.7602,-1.7248,-1.6774,-1.6249,-1.8457,-1.9126,-1.8572,-2.0819,-2.1469,-2.0596,-2.0596,-2.0088,-1.9307,-1.958,-1.958,-1.9453,-2.0305,-2.0222,-1.9598,-1.9713,-1.9304,-1.8564,-1.8309,-1.8787,-1.9441,-1.8694,-1.8357,-1.8202,-1.8202,-1.8134,-1.8008,-1.8008,-1.8008,-1.8008,-1.8008,-1.8008,-1.8008,-1.8008,-1.8008,-1.79,-1.748,-1.7383,-1.7285,-1.6924,-1.6953,-1.7223,-1.7887,-1.7974,-1.7747,-1.7063,-1.6717,-1.6523,-1.6602,-1.6611,-1.6801,-1.7402,-1.7153,-1.702,-1.7402,-1.7636,-1.7492,-1.694,-1.8158,-1.9168,-1.9657,-2.1965,-2.3509,-2.3896,-2.454,-2.4736,-2.4524,-2.4135,-2.3801,-2.3595,-2.3492,-2.2585,-2.1041,-2.0804,-1.9502,-1.7413,-1.7359,-1.6982,-1.6522,-1.6522,-1.6522,-1.6529,-1.7048,-1.733,-1.7501,-1.8405,-1.8324,-1.7802,-1.4721,-1.611,-1.7569,-1.8288,-1.8167,-1.836,-1.929,-2.0499,-2.0928,-2.0079,-2.2035,-2.2935,-2.1281,-2.1826,-2.2911,-2.3972,-2.2791,-2.1938,-2.1658,-2.009,-1.9398,-1.99,-1.8952,-1.8123,-1.7375,-1.7068,-1.6686,-1.6001,-1.7774,-1.8747,-1.9098,-2.0301,-2.0941,-2.0878,-2.0449,-2.0127,-1.9932,-1.9687,-1.9727,-1.9971,-2.0156,-1.9847,-1.9306,-1.9336,-1.875,-1.8008,-1.8008,-1.8269,-1.8596,-1.8134,-1.8008,-1.8008,-1.8008,-1.8008,-1.8008,-1.8008,-1.8008,-1.8008,-1.8008,-1.8008,-1.8008,-1.8008,-1.7755,-1.7531,-1.7422,-1.7207,-1.6982,-1.6777,-1.6665,-1.689,-1.7451,-1.7511,-1.7491,-1.7323,-1.6968,-1.6807,-1.7041,-1.707,-1.7207,-1.7644,-1.7311,-1.7213,-1.7654,-1.7666,-1.7359,-1.6717,-1.7884,-1.8772,-1.916,-2.1545,-2.3257,-2.4013,-2.4925,-2.542,-2.544,-2.4929,-2.4309,-2.364,-2.3304,-2.2308,-2.0826,-2.0249,-1.914,-1.7735,-1.7132,-1.6751,-1.6547,-1.6848,-1.6974,-1.7011,-1.7604,-1.7576,-1.7331,-1.8129,-1.7903,-1.7303,-1.4645,-1.5671,-1.6587,-1.7209,-1.7766,-1.8236,-1.8584,-1.9032,-1.9408,-1.9435,-1.9766,-1.969,-1.8646,-1.8604,-1.9348,-2.1102,-1.9514,-1.8546,-1.9243,-1.842,-1.7981,-1.8275,-1.7779,-1.7338,-1.7068,-1.6767,-1.6357,-1.5717,-1.7066,-1.8323,-1.9591,-1.9976,-2.0344,-2.0747,-1.9875,-1.9678,-1.9957,-1.9221,-1.9506,-2.04,-1.9918,-1.9543,-1.9319,-1.9282,-1.875,-1.8008,-1.8008,-1.8008,-1.8008,-1.8008,-1.8008,-1.8008,-1.8008,-1.8008,-1.8008,-1.8008,-1.8008,-1.8008,-1.8008,-1.8008,-1.7988,-1.79,-1.7502,-1.7106,-1.7129,-1.6836,-1.6562,-1.6465,-1.6278,-1.6306,-1.6905,-1.706,-1.7222,-1.749,-1.7227,-1.7129,-1.7471,-1.7519,-1.7598,-1.7812,-1.7701,-1.7543,-1.7622,-1.7553,-1.7288,-1.6631,-1.7696,-1.8574,-1.9112,-2.1285,-2.3036,-2.4088,-2.5475,-2.6227,-2.6256,-2.5685,-2.4815,-2.3681,-2.3034,-2.1981,-2.0605,-1.9692,-1.8848,-1.7982,-1.7063,-1.669,-1.6717,-1.72,-1.7347,-1.7393,-1.794,-1.7706,-1.7087,-1.765,-1.7269,-1.6652,-1.3337,-1.3072,-1.3347,-1.5846,-1.647,-1.7128,-1.8645,-1.9158,-1.9359,-1.9448,-1.9441,-1.9244,-1.8844,-1.8151,-1.729,-1.6098,-1.6287,-1.562,-1.3389,-1.402,-1.4992,-1.6113,-1.5827,-1.5959,-1.676,-1.646,-1.6019,-1.5411,-1.6965,-1.798,-1.8551,-2.0006,-2.0205,-1.9336,-1.8417,-1.8072,-1.8115,-1.7708,-1.8433,-1.9924,-1.9325,-1.9172,-1.9316,-1.9297,-1.875,-1.8008,-1.8008,-1.8008,-1.8008,-1.8008,-1.8008,-1.8008,-1.8008,-1.8008,-1.8008,-1.8008,-1.8008,-1.8008,-1.8008,-1.8008,-1.792,-1.7539,-1.7295,-1.6918,-1.6338,-1.6213,-1.6016,-1.5615,-1.5523,-1.5766,-1.6563,-1.6941,-1.7319,-1.7881,-1.792,-1.79,-1.7949,-1.7949,-1.785,-1.7475,-1.7733,-1.7504,-1.6377,-1.7293,-1.7432,-1.6282,-1.7001,-1.7912,-1.8892,-2.0461,-2.1839,-2.2814,-2.4685,-2.5668,-2.5648,-2.4938,-2.4322,-2.3703,-2.2951,-2.1749,-2.0092,-1.9953,-1.9006,-1.7488,-1.7351,-1.7295,-1.7347,-1.74,-1.7269,-1.7182,-1.7745,-1.7454,-1.6901,-1.7412,-1.7145,-1.6549,-1.2542,-1.2885,-1.3556,-1.5109,-1.5676,-1.6659,-1.8564,-1.9152,-1.9233,-1.8964,-1.9158,-1.8695,-1.6909,-1.6818,-1.6414,-1.5499,-1.4998,-1.5071,-1.569,-1.5382,-1.58,-1.715,-1.6711,-1.66,-1.6714,-1.642,-1.6072,-1.5658,-1.6305,-1.7066,-1.7998,-1.8136,-1.8189,-1.8004,-1.7433,-1.7263,-1.7482,-1.7138,-1.7522,-1.8303,-1.7909,-1.7621,-1.7424,-1.7267,-1.6839,-1.6367,-1.6932,-1.7142,-1.7281,-1.7823,-1.8008,-1.8008,-1.8008,-1.8008,-1.8008,-1.8008,-1.8008,-1.7959,-1.7705,-1.7541,-1.7387,-1.705,-1.6523,-1.61,-1.6079,-1.5908,-1.5625,-1.5449,-1.5604,-1.5943,-1.6289,-1.6831,-1.7356,-1.7607,-1.7842,-1.8008,-1.8008,-1.7793,-1.7406,-1.6694,-1.6754,-1.6553,-1.5837,-1.6654,-1.7194,-1.7246,-1.7531,-1.8152,-1.8981,-1.9924,-2.1443,-2.3695,-2.4162,-2.4948,-2.6155,-2.4702,-2.3622,-2.3045,-2.2029,-2.0941,-1.9888,-1.9544,-1.8834,-1.7899,-1.7899,-1.8078,-1.8309,-1.7867,-1.7664,-1.7568,-1.7694,-1.7055,-1.6214,-1.6725,-1.6467,-1.5826,-1.1693,-1.2602,-1.3507,-1.4547,-1.5172,-1.6115,-1.7849,-1.7988,-1.7774,-1.7767,-1.7551,-1.7002,-1.6104,-1.5344,-1.5065,-1.516,-1.4196,-1.4272,-1.5922,-1.504,-1.5115,-1.6359,-1.6014,-1.6049,-1.6587,-1.6293,-1.5999,-1.5705,-1.5604,-1.6306,-1.7697,-1.7026,-1.6835,-1.6838,-1.6319,-1.628,-1.6708,-1.6163,-1.6452,-1.7228,-1.6691,-1.6325,-1.6187,-1.5906,-1.5541,-1.5305,-1.593,-1.6191,-1.636,-1.725,-1.7619,-1.7608,-1.7881,-1.8008,-1.8008,-1.8008,-1.8008,-1.792,-1.75,-1.7311,-1.7096,-1.6616,-1.6085,-1.566,-1.5846,-1.5634,-1.541,-1.541,-1.5654,-1.5908,-1.6096,-1.6572,-1.708,-1.7344,-1.7637,-1.7871,-1.7988,-1.7646,-1.7156,-1.6552,-1.6494,-1.6263,-1.5726,-1.6418,-1.7083,-1.741,-1.7708,-1.8253,-1.9177,-1.9854,-2.1381,-2.384,-2.4042,-2.4817,-2.6159,-2.46,-2.3406,-2.2598,-2.1502,-2.0568,-1.9798,-1.9265,-1.8767,-1.8425,-1.8288,-1.8387,-1.8659,-1.8105,-1.7751,-1.7475,-1.7339,-1.658,-1.5648,-1.6058,-1.5878,-1.541,-1.1007,-1.1729,-1.2473,-1.367,-1.4907,-1.5733,-1.6204,-1.5057,-1.4632,-1.5745,-1.3911,-1.379,-1.718,-1.4152,-1.2577,-1.4542,-1.3846,-1.2729,-1.1328,-1.1219,-1.167,-1.2846,-1.2625,-1.3623,-1.6286,-1.5985,-1.5691,-1.5398,-1.5292,-1.607,-1.7699,-1.7278,-1.6692,-1.5904,-1.4916,-1.4801,-1.5248,-1.4455,-1.5387,-1.7147,-1.5828,-1.5709,-1.6187,-1.5906,-1.5541,-1.5234,-1.5234,-1.5238,-1.5348,-1.6264,-1.6624,-1.6754,-1.7676,-1.8008,-1.8008,-1.8008,-1.8008,-1.792,-1.75,-1.7366,-1.7175,-1.6335,-1.6128,-1.5966,-1.5508,-1.542,-1.541,-1.541,-1.542,-1.5557,-1.5986,-1.6135,-1.6429,-1.7236,-1.7393,-1.7539,-1.7949,-1.7646,-1.7409,-1.7421,-1.7392,-1.703,-1.6185,-1.686,-1.7053,-1.6164,-1.6894,-1.8025,-1.9544,-2.0468,-2.151,-2.2612,-2.4394,-2.5404,-2.5382,-2.4693,-2.3725,-2.2596,-2.1822,-2.0888,-1.9798,-1.9265,-1.9013,-1.8951,-1.8423,-1.8088,-1.7885,-1.7881,-1.7373,-1.6502,-1.6513,-1.6048,-1.5391,-1.541,-1.541,-1.541,-0.9864,-1.0108,-1.0772,-1.2163,-1.2847,-1.3226,-1.3204,-1.1659,-1.1205,-1.2855,-1.116,-1.0775,-1.3199,-1.2745,-1.2381,-1.2687,-1.2502,-1.2555,-1.3321,-1.1889,-1.1884,-1.4054,-1.3909,-1.4547,-1.6273,-1.5979,-1.5785,-1.5691,-1.5385,-1.5345,-1.5549,-1.5385,-1.5095,-1.462,-1.4385,-1.4325,-1.4455,-1.4237,-1.4496,-1.5018,-1.4174,-1.398,-1.4137,-1.359,-1.3316,-1.3302,-1.3954,-1.4196,-1.4364,-1.5292,-1.5651,-1.58,-1.6766,-1.7501,-1.8008,-1.8008,-1.8008,-1.7852,-1.7139,-1.6933,-1.6691,-1.5851,-1.5596,-1.5576,-1.542,-1.541,-1.541,-1.541,-1.541,-1.5459,-1.5596,-1.5859,-1.626,-1.6846,-1.6627,-1.6437,-1.6691,-1.6309,-1.567,-1.4914,-1.5845,-1.6166,-1.5374,-1.6305,-1.7069,-1.739,-1.7641,-1.8405,-1.9717,-2.0019,-2.1248,-2.3659,-2.3459,-2.3702,-2.4622,-2.3167,-2.2198,-2.1822,-2.0832,-2.0156,-1.9798,-1.9089,-1.879,-1.8766,-1.8071,-1.7774,-1.7641,-1.7149,-1.6773,-1.6479,-1.5976,-1.5631,-1.541,-1.541,-1.541,-1.541,-0.9215,-0.9781,-1.0537,-1.1419,-1.1841,-1.1867,-1.1568,-1.0063,-0.9372,-1.0566,-0.9514,-0.9065,-1.0103,-1.0758,-1.1185,-1.1581,-1.1008,-1.1289,-1.287,-1.1672,-1.177,-1.3701,-1.364,-1.4317,-1.6106,-1.5925,-1.5772,-1.5665,-1.5257,-1.4761,-1.4349,-1.4382,-1.4262,-1.4088,-1.4088,-1.4021,-1.3921,-1.3921,-1.3854,-1.3714,-1.3233,-1.3033,-1.2979,-1.2485,-1.2305,-1.2378,-1.2952,-1.315,-1.3339,-1.4283,-1.4609,-1.4798,-1.5762,-1.6473,-1.7079,-1.7794,-1.79,-1.7627,-1.6924,-1.6611,-1.6309,-1.5586,-1.541,-1.541,-1.541,-1.541,-1.541,-1.541,-1.541,-1.5294,-1.4991,-1.5273,-1.5638,-1.5734,-1.5471,-1.5326,-1.5542,-1.5308,-1.5024,-1.4589,-1.5623,-1.6198,-1.5892,-1.6548,-1.704,-1.7298,-1.7611,-1.8161,-1.9148,-1.9885,-2.1113,-2.3,-2.274,-2.301,-2.3826,-2.2364,-2.1613,-2.1468,-2.0064,-1.9368,-1.938,-1.8799,-1.8458,-1.8271,-1.7967,-1.76,-1.7136,-1.6661,-1.6336,-1.6059,-1.5583,-1.541,-1.5449,-1.5623,-1.5545,-1.542,-0.8937,-1.0359,-1.1446,-1.1,-1.1345,-1.1455,-1.0983,-0.979,-0.8869,-0.8828,-0.8908,-0.8628,-0.8052,-0.8469,-0.9406,-1.0837,-0.9482,-0.9079,-1.0427,-1.0522,-1.1053,-1.2154,-1.2149,-1.3335,-1.5737,-1.5812,-1.5645,-1.5331,-1.4892,-1.4475,-1.4088,-1.4088,-1.4075,-1.4055,-1.4055,-1.3895,-1.3532,-1.3532,-1.3454,-1.318,-1.2872,-1.2822,-1.2788,-1.2418,-1.2305,-1.2305,-1.2305,-1.2305,-1.2439,-1.3331,-1.3563,-1.376,-1.48,-1.5119,-1.5438,-1.7257,-1.7475,-1.7145,-1.6616,-1.6181,-1.5827,-1.5341,-1.5294,-1.5352,-1.541,-1.541,-1.541,-1.541,-1.541,-1.5177,-1.4369,-1.4468,-1.4523,-1.4155,-1.3999,-1.4098,-1.4494,-1.4642,-1.5016,-1.5808,-1.635,-1.6839,-1.7362,-1.7421,-1.7071,-1.6311,-1.6963,-1.7626,-1.7988,-1.9966,-2.1065,-2.0971,-2.2225,-2.2944,-2.2944,-2.2115,-2.1548,-2.1188,-1.9485,-1.8689,-1.8658,-1.8356,-1.8006,-1.7632,-1.8005,-1.7492,-1.6477,-1.6436,-1.6035,-1.541,-1.541,-1.542,-1.5508,-1.5932,-1.584,-1.5566,-0.8916,-0.917,-0.945,-0.946,-0.9485,-0.9556,-0.9316,-0.8977,-0.871,-0.8557,-0.8546,-0.836,-0.822,-0.8213,-0.8371,-0.8754,-0.836,-0.8236,-0.8625,-0.8823,-0.9758,-1.1835,-1.1923,-1.3169,-1.573,-1.5504,-1.5041,-1.4425,-1.4495,-1.4376,-1.4088,-1.4088,-1.3968,-1.3748,-1.3748,-1.3587,-1.3313,-1.3313,-1.3273,-1.318,-1.2872,-1.2822,-1.2788,-1.2418,-1.2305,-1.2305,-1.2305,-1.2305,-1.2298,-1.2579,-1.2652,-1.2813,-1.3775,-1.4049,-1.426,-1.5171,-1.5436,-1.516,-1.4487,-1.4236,-1.4081,-1.364,-1.4034,-1.4628,-1.5235,-1.541,-1.541,-1.541,-1.541,-1.5214,-1.4671,-1.4432,-1.4268,-1.4105,-1.3257,-1.2726,-1.2949,-1.3123,-1.3443,-1.4111,-1.531,-1.6421,-1.7324,-1.7409,-1.7468,-1.7539,-1.7744,-1.788,-1.7962,-1.9412,-2.0378,-2.0687,-2.1043,-2.1164,-2.1164,-2.027,-1.9377,-1.8536,-1.843,-1.8397,-1.8351,-1.7733,-1.7582,-1.773,-1.6929,-1.6444,-1.6155,-1.5818,-1.5566,-1.541,-1.541,-1.5644,-1.5976,-1.6049,-1.6196,-1.6409,-0.891,-0.8872,-0.8842,-0.8923,-0.8879,-0.8808,-0.8723,-0.8652,-0.8554,-0.8404,-0.8422,-0.8347,-0.8174,-0.8062,-0.8029,-0.8045,-0.8041,-0.8004,-0.7968,-0.8062,-0.9318,-1.1755,-1.1945,-1.3108,-1.573,-1.5571,-1.5199,-1.452,-1.4356,-1.4242,-1.4088,-1.4088,-1.3928,-1.3559,-1.3559,-1.34,-1.2999,-1.2999,-1.2919,-1.2779,-1.2612,-1.2545,-1.2525,-1.2365,-1.2305,-1.2305,-1.2305,-1.2305,-1.2305,-1.2305,-1.2305,-1.2372,-1.2879,-1.3098,-1.3128,-1.3356,-1.3923,-1.4355,-1.3965,-1.3609,-1.3248,-1.3058,-1.3614,-1.4232,-1.4314,-1.4864,-1.5303,-1.4911,-1.4827,-1.4715,-1.4214,-1.3626,-1.3195,-1.2884,-1.2275,-1.1995,-1.2519,-1.306,-1.3685,-1.462,-1.5851,-1.6883,-1.758,-1.7666,-1.7686,-1.7715,-1.79,-1.793,-1.7734,-1.8582,-1.936,-2.002,-2.0398,-2.059,-2.059,-1.984,-1.8939,-1.8008,-1.8051,-1.8073,-1.8073,-1.7533,-1.7296,-1.7244,-1.6867,-1.6597,-1.6377,-1.6117,-1.6013,-1.6011,-1.5998,-1.6138,-1.6407,-1.6607,-1.6691,-1.6728,-0.8838,-0.8852,-0.8845,-0.8866,-0.8764,-0.8669,-0.8648,-0.8533,-0.8397,-0.8255,-0.834,-0.8292,-0.8055,-0.8038,-0.8038,-0.8038,-0.7955,-0.7971,-0.8048,-0.8038,-0.9118,-1.1556,-1.1755,-1.3011,-1.533,-1.5644,-1.5418,-1.483,-1.4329,-1.4088,-1.4088,-1.4088,-1.3908,-1.3581,-1.3581,-1.3247,-1.2755,-1.2755,-1.2532,-1.2305,-1.2305,-1.2305,-1.2305,-1.2305,-1.2305,-1.2305,-1.2305,-1.2305,-1.2305,-1.2305,-1.2305,-1.2291,-1.2251,-1.2238,-1.2151,-1.1932,-1.2654,-1.3605,-1.3605,-1.314,-1.2642,-1.2765,-1.3322,-1.367,-1.3158,-1.4043,-1.4862,-1.4228,-1.4061,-1.3942,-1.342,-1.2745,-1.209,-1.1585,-1.1444,-1.1784,-1.2795,-1.3534,-1.4537,-1.5918,-1.6798,-1.7484,-1.7978,-1.8008,-1.7861,-1.75,-1.7812,-1.7852,-1.75,-1.7812,-1.8337,-1.911,-1.9814,-2.0171,-2.0105,-1.9701,-1.9082,-1.8194,-1.7874,-1.7719,-1.7729,-1.7521,-1.7217,-1.6943,-1.7246,-1.7189,-1.6802,-1.6709,-1.6674,-1.6706,-1.6674,-1.6743,-1.6822,-1.7105,-1.698,-1.6718,-0.8523,-0.8459,-0.8411,-0.853,-0.8533,-0.8476,-0.8357,-0.8319,-0.8248,-0.8096,-0.8075,-0.8065,-0.8041,-0.8038,-0.8038,-0.8038,-0.7959,-0.7962,-0.8041,-0.8038,-0.8726,-1.0194,-1.1361,-1.2415,-1.3538,-1.4673,-1.4912,-1.4222,-1.4135,-1.4088,-1.4088,-1.4088,-1.3801,-1.328,-1.328,-1.2939,-1.2371,-1.2371,-1.2345,-1.2305,-1.2305,-1.2305,-1.2305,-1.2305,-1.2305,-1.2305,-1.2305,-1.2305,-1.2305,-1.2305,-1.2305,-1.2258,-1.2011,-1.1937,-1.1884,-1.156,-1.1452,-1.1511,-1.1511,-1.1261,-1.1115,-1.1834,-1.2058,-1.2289,-1.2879,-1.3172,-1.342,-1.3476,-1.3515,-1.3453,-1.3157,-1.284,-1.2521,-1.2222,-1.172,-1.1845,-1.3056,-1.3338,-1.4064,-1.5918,-1.6492,-1.7033,-1.794,-1.8008,-1.7978,-1.792,-1.7978,-1.7978,-1.792,-1.7978,-1.8076,-1.8202,-1.8337,-1.8225,-1.7931,-1.8155,-1.7859,-1.6953,-1.7323,-1.7471,-1.7471,-1.7419,-1.7539,-1.7793,-1.751,-1.739,-1.7282,-1.6857,-1.6712,-1.6724,-1.6703,-1.6928,-1.7229,-1.6402,-1.636,-1.6482,-0.8452,-0.8428,-0.8404,-0.8472,-0.8418,-0.8347,-0.8282,-0.8201,-0.8123,-0.8048,-0.8038,-0.8038,-0.8038,-0.8038,-0.8038,-0.8038,-0.8038,-0.8038,-0.8038,-0.8038,-0.8627,-0.9899,-1.0583,-1.1395,-1.2405,-1.2842,-1.3207,-1.3429,-1.3193,-1.347,-1.4088,-1.4088,-1.3774,-1.3213,-1.3213,-1.2872,-1.2305,-1.2305,-1.2305,-1.2305,-1.2305,-1.2305,-1.2305,-1.2305,-1.2305,-1.2305,-1.2305,-1.2305,-1.2305,-1.2305,-1.2305,-1.2245,-1.1975,-1.1901,-1.1868,-1.1471,-1.1216,-1.0962,-1.0802,-1.0661,-1.0688,-1.1045,-1.1469,-1.1772,-1.1725,-1.246,-1.3108,-1.2806,-1.2923,-1.3016,-1.3114,-1.2478,-1.2026,-1.2044,-1.1819,-1.2263,-1.3854,-1.4218,-1.4999,-1.6917,-1.725,-1.752,-1.794,-1.8008,-1.8008,-1.8008,-1.8008,-1.8008,-1.8008,-1.8008,-1.8008,-1.8008,-1.8008,-1.792,-1.7725,-1.791,-1.7812,-1.7422,-1.7627,-1.7715,-1.7715,-1.7715,-1.7822,-1.7998,-1.7803,-1.7715,-1.7715,-1.7474,-1.7377,-1.7366,-1.6805,-1.6745,-1.6868,-1.5878,-1.5649,-1.5791,-0.8357,-0.8381,-0.8381,-0.8381,-0.8289,-0.8218,-0.8218,-0.8116,-0.8038,-0.8038,-0.8038,-0.8038,-0.8038,-0.8038,-0.8038,-0.8038,-0.8038,-0.8038,-0.8038,-0.8038,-0.8432,-0.9509,-0.9453,-1.0114,-1.1541,-1.1119,-1.1431,-1.2709,-1.2422,-1.2942,-1.4088,-1.4088,-1.3774,-1.3213,-1.3213,-1.2872,-1.2305,-1.2305,-1.2305,-1.2305,-1.2305,-1.2305,-1.2305,-1.2305,-1.2305,-1.2305,-1.2305,-1.2305,-1.2305,-1.2305,-1.2305,-1.2225,-1.1874,-1.1827,-1.1827,-1.1323,-1.1141,-1.0929,-1.0641,-1.0624,-1.0624,-1.0624,-1.1045,-1.1351,-1.0744,-1.1768,-1.2709,-1.2157,-1.2291,-1.2631,-1.2875,-1.2218,-1.1752,-1.2018,-1.2038,-1.257,-1.4331,-1.4759,-1.5476,-1.7166,-1.7364,-1.7364,-1.7364,-1.7529,-1.7676,-1.7676,-1.7881,-1.8008,-1.8008,-1.8008,-1.8008,-1.8008,-1.8008,-1.8008,-1.8008,-1.8008,-1.8008,-1.8008,-1.8008,-1.8008,-1.8008,-1.8008,-1.8008,-1.8008,-1.8008,-1.8008,-1.8008,-1.8008,-1.7872,-1.7588,-1.6857,-1.6447,-1.6167,-1.5224,-1.4881,-1.4792,-0.8069,-0.8072,-0.8072,-0.8072,-0.8065,-0.8058,-0.8058,-0.8045,-0.8038,-0.8038,-0.8038,-0.8038,-0.8038,-0.8038,-0.8038,-0.8038,-0.8038,-0.8038,-0.8038,-0.8038,-0.8038,-0.8137,-0.7945,-0.8922,-1.1308,-1.021,-1.0524,-1.2357,-1.2334,-1.2942,-1.4088,-1.4088,-1.3774,-1.3213,-1.3213,-1.2872,-1.2305,-1.2305,-1.2305,-1.2305,-1.2305,-1.2305,-1.2305,-1.2305,-1.2305,-1.2305,-1.2305,-1.2305,-1.2305,-1.2305,-1.2305,-1.2204,-1.163,-1.1643,-1.1774,-1.092,-1.0788,-1.0929,-1.0641,-1.0624,-1.0624,-1.0624,-1.0624,-1.0681,-1.0624,-1.0918,-1.1215,-1.1424,-1.1747,-1.2063,-1.2331,-1.2298,-1.2304,-1.2714,-1.2465,-1.2755,-1.4052,-1.3968,-1.4204,-1.5296,-1.5376,-1.5376,-1.5376,-1.6211,-1.6675,-1.6675,-1.748,-1.8008,-1.8008,-1.8008,-1.8008,-1.8008,-1.8008,-1.8008,-1.8008,-1.8008,-1.8008,-1.8008,-1.8008,-1.8008,-1.8008,-1.8008,-1.8008,-1.8008,-1.8008,-1.8008,-1.8008,-1.8008,-1.7501,-1.6706,-1.6636,-1.6088,-1.5171,-1.4178,-1.3833,-1.3688,-0.8038,-0.8038,-0.8038,-0.8038,-0.8038,-0.8038,-0.8038,-0.8038,-0.8038,-0.8038,-0.8038,-0.8038,-0.8038,-0.8038,-0.8038,-0.8038,-0.8038,-0.8038,-0.8038,-0.8038,-0.7997,-0.7902,-0.7821,-0.8146,-0.8822,-0.8461,-0.85,-0.9078,-0.9812,-1.0783,-1.1912,-1.1912,-1.173,-1.132,-1.1764,-1.1656,-1.1312,-1.2024,-1.2313,-1.2304,-1.2325,-1.2305,-1.2305,-1.2305,-1.2305,-1.2305,-1.2305,-1.2305,-1.2305,-1.2305,-1.2305,-1.2231,-1.1824,-1.1777,-1.1764,-1.1249,-1.1176,-1.1236,-1.1129,-1.1096,-1.1122,-1.1094,-1.1096,-1.11,-1.1069,-1.1322,-1.1579,-1.1693,-1.1931,-1.2171,-1.2278,-1.2305,-1.2338,-1.2452,-1.2378,-1.2707,-1.377,-1.3807,-1.4038,-1.51,-1.5201,-1.521,-1.5224,-1.5491,-1.5694,-1.5756,-1.6056,-1.651,-1.7116,-1.7658,-1.8008,-1.8008,-1.8008,-1.8008,-1.8008,-1.8008,-1.8008,-1.8008,-1.8008,-1.8008,-1.8008,-1.8008,-1.8008,-1.8008,-1.8008,-1.8008,-1.8008,-1.8008,-1.7432,-1.6567,-1.593,-1.5155,-1.4171,-1.3164,-1.2806,-1.2806,-0.8038,-0.8038,-0.8038,-0.8038,-0.8038,-0.8038,-0.8038,-0.8038,-0.8038,-0.8038,-0.8038,-0.8038,-0.8038,-0.8038,-0.8038,-0.8038,-0.8038,-0.8038,-0.8038,-0.8038,-0.7991,-0.7885,-0.7794,-0.7648,-0.7448,-0.735,-0.741,-0.7701,-0.8524,-0.9492,-1.0611,-1.0611,-1.0494,-1.0198,-1.0923,-1.0843,-1.0288,-1.0833,-1.1323,-1.1851,-1.1793,-1.2003,-1.2305,-1.2305,-1.2305,-1.2305,-1.2305,-1.2305,-1.2305,-1.2305,-1.2305,-1.2251,-1.1957,-1.1804,-1.171,-1.1597,-1.1563,-1.1563,-1.1563,-1.163,-1.1627,-1.1473,-1.1394,-1.1418,-1.1403,-1.1683,-1.1867,-1.1907,-1.2116,-1.2305,-1.2305,-1.2305,-1.2305,-1.2305,-1.2378,-1.2628,-1.3178,-1.3336,-1.3601,-1.4186,-1.4283,-1.4286,-1.4302,-1.4595,-1.4735,-1.4722,-1.5018,-1.5627,-1.6569,-1.7189,-1.7686,-1.8008,-1.8008,-1.7862,-1.7579,-1.7997,-1.8135,-1.8008,-1.786,-1.786,-1.8008,-1.7716,-1.7716,-1.8008,-1.8008,-1.7862,-1.7579,-1.7579,-1.6784,-1.5649,-1.4942,-1.4099,-1.3178,-1.2628,-1.2385,-1.2318,-0.8038,-0.8038,-0.8038,-0.8038,-0.8038,-0.8038,-0.8038,-0.8038,-0.8038,-0.8038,-0.8038,-0.8038,-0.8038,-0.8038,-0.8038,-0.8038,-0.8038,-0.8038,-0.8038,-0.8038,-0.8038,-0.8038,-0.7756,-0.76,-0.76,-0.7299,-0.7669,-0.889,-0.889,-0.9492,-1.0611,-1.0611,-1.0409,-1.0193,-1.0844,-1.0519,-0.9438,-0.8655,-0.9251,-1.0783,-1.0783,-1.1391,-1.2305,-1.2305,-1.2305,-1.2305,-1.2298,-1.2298,-1.2298,-1.2305,-1.2305,-1.2251,-1.1964,-1.167,-1.149,-1.179,-1.187,-1.187,-1.187,-1.2084,-1.2131,-1.1578,-1.1418,-1.143,-1.143,-1.1666,-1.1907,-1.1868,-1.2138,-1.2305,-1.2305,-1.2305,-1.2305,-1.2305,-1.2552,-1.2721,-1.2351,-1.2559,-1.2708,-1.2338,-1.2305,-1.2305,-1.2305,-1.3145,-1.366,-1.366,-1.4615,-1.5615,-1.6562,-1.6614,-1.7014,-1.794,-1.8008,-1.7501,-1.6636,-1.791,-1.8348,-1.794,-1.7426,-1.7478,-1.794,-1.7001,-1.7079,-1.8018,-1.7949,-1.7432,-1.6567,-1.6567,-1.5438,-1.3673,-1.3673,-1.3098,-1.2338,-1.2632,-1.2559,-1.2345,-0.8038,-0.8038,-0.8038,-0.8038,-0.8038,-0.8038,-0.8038,-0.8038,-0.8038,-0.8038,-0.8038,-0.8038,-0.8038,-0.8038,-0.8038,-0.8038,-0.8038,-0.8038,-0.8038,-0.8038,-0.8038,-0.8038,-0.7851,-0.7604,-0.7503,-0.7404,-0.7483,-0.784,-0.7723,-0.7837,-0.8185,-0.8185,-0.8009,-0.7851,-0.8062,-0.7867,-0.7493,-0.8064,-0.859,-0.9084,-0.9523,-0.9895,-1.0196,-1.0196,-1.0196,-1.0271,-1.1019,-1.1242,-1.1391,-1.207,-1.2305,-1.2285,-1.2204,-1.2111,-1.2058,-1.2144,-1.2171,-1.2171,-1.2171,-1.2238,-1.2271,-1.2072,-1.2005,-1.2037,-1.2037,-1.2091,-1.219,-1.2215,-1.2264,-1.2305,-1.2305,-1.2472,-1.2612,-1.2612,-1.2761,-1.2746,-1.2649,-1.2559,-1.2405,-1.2311,-1.2305,-1.2305,-1.2305,-1.2553,-1.2721,-1.2721,-1.3601,-1.4297,-1.4577,-1.5242,-1.5754,-1.6018,-1.6018,-1.5869,-1.5658,-1.6684,-1.6885,-1.6314,-1.614,-1.6272,-1.6562,-1.6277,-1.6309,-1.6624,-1.6633,-1.6353,-1.5889,-1.5889,-1.5025,-1.3673,-1.3673,-1.3098,-1.2311,-1.2405,-1.2378,-1.2311,-0.8038,-0.8038,-0.8038,-0.8038,-0.8038,-0.8038,-0.8038,-0.8038,-0.8038,-0.8038,-0.8038,-0.8038,-0.8038,-0.8038,-0.8038,-0.8038,-0.8038,-0.8038,-0.8038,-0.8038,-0.8038,-0.8038,-0.795,-0.7711,-0.7506,-0.7448,-0.7343,-0.7282,-0.7187,-0.7139,-0.7139,-0.7139,-0.7051,-0.6892,-0.677,-0.6702,-0.6631,-0.7202,-0.7737,-0.8102,-0.8138,-0.8595,-0.9296,-0.9296,-0.9296,-0.9372,-0.9965,-1.0484,-1.0864,-1.1465,-1.1996,-1.2305,-1.2305,-1.2305,-1.2305,-1.2305,-1.2305,-1.2305,-1.2305,-1.2305,-1.2305,-1.2305,-1.2305,-1.2305,-1.2305,-1.2305,-1.2305,-1.2305,-1.2432,-1.2463,-1.2463,-1.2752,-1.2926,-1.2926,-1.3026,-1.3086,-1.2955,-1.2812,-1.2619,-1.2492,-1.2371,-1.2305,-1.2305,-1.2305,-1.2305,-1.2305,-1.2858,-1.3346,-1.37,-1.4299,-1.4807,-1.5163,-1.5234,-1.5086,-1.4808,-1.5369,-1.564,-1.5614,-1.5353,-1.5549,-1.5976,-1.5654,-1.5643,-1.603,-1.5994,-1.5654,-1.5043,-1.5043,-1.4408,-1.3343,-1.3214,-1.2882,-1.2478,-1.2478,-1.2405,-1.2325,-0.8038,-0.8038,-0.8038,-0.8038,-0.8038,-0.8038,-0.8038,-0.8038,-0.8038,-0.8038,-0.8038,-0.8038,-0.8038,-0.8038,-0.8038,-0.8038,-0.8038,-0.8038,-0.8038,-0.8038,-0.8038,-0.8038,-0.8038,-0.7902,-0.7607,-0.7461,-0.7316,-0.7163,-0.7146,-0.7139,-0.7139,-0.7139,-0.7031,-0.6912,-0.6656,-0.6525,-0.6444,-0.6315,-0.6795,-0.7553,-0.667,-0.7359,-0.8993,-0.8993,-0.8993,-0.9069,-0.9145,-0.9744,-1.0559,-1.0634,-1.1316,-1.215,-1.215,-1.2224,-1.2305,-1.2305,-1.2305,-1.2305,-1.2305,-1.2305,-1.2305,-1.2305,-1.2305,-1.2311,-1.2338,-1.2318,-1.2318,-1.2371,-1.2576,-1.2822,-1.2855,-1.3028,-1.3253,-1.3253,-1.3467,-1.3479,-1.324,-1.324,-1.3113,-1.2846,-1.2559,-1.2371,-1.2345,-1.2318,-1.2305,-1.2305,-1.2305,-1.2659,-1.3528,-1.36,-1.4042,-1.4999,-1.4966,-1.4639,-1.4133,-1.4111,-1.4538,-1.5429,-1.4953,-1.5064,-1.5806,-1.4983,-1.5026,-1.5867,-1.5867,-1.5202,-1.414,-1.414,-1.3582,-1.2761,-1.2438,-1.2492,-1.2788,-1.2808,-1.2559,-1.2358,-0.8038,-0.8038,-0.8038,-0.8038,-0.8038,-0.8038,-0.8038,-0.8038,-0.8038,-0.8038,-0.8038,-0.8038,-0.8038,-0.8038,-0.8038,-0.8038,-0.8038,-0.8038,-0.8038,-0.8038,-0.8038,-0.8038,-0.8038,-0.7902,-0.7607,-0.7567,-0.7475,-0.7322,-0.72,-0.7139,-0.7139,-0.7139,-0.6993,-0.6732,-0.6709,-0.6552,-0.6305,-0.6352,-0.6416,-0.6641,-0.6402,-0.6556,-0.6949,-0.6949,-0.6949,-0.7022,-0.7859,-0.8237,-0.8533,-0.9367,-1.0265,-1.1162,-1.1162,-1.1694,-1.2305,-1.2305,-1.2305,-1.2305,-1.2305,-1.2305,-1.2305,-1.2305,-1.2305,-1.2365,-1.2599,-1.2472,-1.2438,-1.2919,-1.2893,-1.2859,-1.31,-1.3367,-1.3547,-1.3547,-1.3519,-1.3612,-1.3502,-1.3319,-1.316,-1.3147,-1.3054,-1.2919,-1.2672,-1.2438,-1.2305,-1.2305,-1.2305,-1.2372,-1.2586,-1.2592,-1.2843,-1.3304,-1.3079,-1.3077,-1.3413,-1.3244,-1.3418,-1.4012,-1.393,-1.4107,-1.4538,-1.4289,-1.4282,-1.4538,-1.4538,-1.4068,-1.342,-1.342,-1.3056,-1.2418,-1.2585,-1.2545,-1.2425,-1.2735,-1.2559,-1.2318,-0.8038,-0.8038,-0.8038,-0.8038,-0.8038,-0.8038,-0.8038,-0.8038,-0.8038,-0.8038,-0.8038,-0.8038,-0.8038,-0.8038,-0.8038,-0.8038,-0.8038,-0.8038,-0.8038,-0.8038,-0.8004,-0.7835,-0.7929,-0.7694,-0.7399,-0.7489,-0.7414,-0.7261,-0.718,-0.7139,-0.7139,-0.7041,-0.6868,-0.6713,-0.6616,-0.6486,-0.6338,-0.6338,-0.6338,-0.6338,-0.6338,-0.6338,-0.6338,-0.6338,-0.6338,-0.6338,-0.6872,-0.7403,-0.7936,-0.8993,-0.9669,-1.0115,-1.0115,-1.0789,-1.1465,-1.1025,-1.1248,-1.162,-1.162,-1.162,-1.1694,-1.215,-1.2305,-1.2345,-1.2498,-1.2525,-1.2605,-1.2926,-1.3086,-1.322,-1.3387,-1.3661,-1.3854,-1.3854,-1.3854,-1.3818,-1.3866,-1.3605,-1.3373,-1.3378,-1.328,-1.3108,-1.2825,-1.2479,-1.2305,-1.2305,-1.2438,-1.2512,-1.2512,-1.2654,-1.2837,-1.2993,-1.2852,-1.2939,-1.342,-1.3232,-1.3366,-1.3844,-1.3682,-1.3796,-1.4088,-1.4088,-1.4088,-1.4088,-1.4088,-1.3828,-1.3407,-1.3267,-1.3019,-1.2726,-1.2592,-1.2525,-1.2518,-1.2525,-1.2175,-1.1556,-0.8038,-0.8038,-0.8038,-0.8038,-0.8038,-0.8038,-0.8038,-0.8038,-0.8038,-0.8038,-0.8038,-0.8038,-0.8038,-0.8038,-0.8038,-0.8038,-0.8038,-0.8038,-0.8038,-0.8038,-0.7885,-0.7754,-0.7727,-0.7587,-0.7227,-0.7292,-0.7295,-0.7139,-0.7139,-0.7139,-0.7136,-0.6946,-0.6843,-0.6661,-0.6544,-0.6443,-0.6338,-0.6338,-0.6338,-0.6338,-0.6338,-0.6338,-0.6338,-0.6338,-0.6338,-0.6338,-0.6338,-0.6872,-0.7706,-0.8542,-0.8922,-0.9069,-0.9069,-0.9744,-1.0415,-0.9523,-0.9895,-1.0565,-1.0565,-1.0565,-1.0714,-1.1545,-1.1774,-1.1787,-1.1832,-1.2339,-1.2849,-1.2956,-1.3293,-1.3661,-1.3707,-1.3921,-1.4088,-1.4088,-1.4088,-1.4088,-1.4088,-1.3874,-1.3721,-1.3721,-1.34,-1.3144,-1.2927,-1.2621,-1.2419,-1.2486,-1.2721,-1.2876,-1.2903,-1.306,-1.3212,-1.328,-1.3214,-1.3347,-1.366,-1.3608,-1.3748,-1.4082,-1.385,-1.3864,-1.4088,-1.4088,-1.4088,-1.4088,-1.4088,-1.3895,-1.3547,-1.3313,-1.3146,-1.3013,-1.2552,-1.2498,-1.2639,-1.2236,-1.1403,-1.0574,-0.8038,-0.8038,-0.8038,-0.8038,-0.8038,-0.8038,-0.8038,-0.8038,-0.8038,-0.8038,-0.8038,-0.8038,-0.8038,-0.8038,-0.8038,-0.8038,-0.8038,-0.8038,-0.8038,-0.8038,-0.8031,-0.8007,-0.768,-0.7442,-0.757,-0.725,-0.7108,-0.7139,-0.7139,-0.7139,-0.7136,-0.6987,-0.6834,-0.6675,-0.6596,-0.6455,-0.6338,-0.6338,-0.6338,-0.6338,-0.6338,-0.6338,-0.6338,-0.6338,-0.6338,-0.6338,-0.6338,-0.6416,-0.649,-0.6641,-0.7249,-0.8012,-0.8012,-0.8689,-0.9448,-0.9372,-0.9372,-0.9523,-0.9523,-0.9523,-0.9523,-0.9674,-0.9674,-0.9721,-0.9834,-1.1384,-1.2893,-1.3414,-1.3587,-1.3721,-1.3981,-1.4062,-1.4088,-1.4088,-1.4088,-1.4088,-1.4088,-1.4055,-1.4028,-1.4028,-1.3763,-1.352,-1.3468,-1.3216,-1.3049,-1.3076,-1.3138,-1.3148,-1.314,-1.3182,-1.3342,-1.3507,-1.3313,-1.3474,-1.4018,-1.3763,-1.3736,-1.4088,-1.4035,-1.4035,-1.4088,-1.4088,-1.4088,-1.4088,-1.4088,-1.3774,-1.3267,-1.3227,-1.2899,-1.2438,-1.2619,-1.2552,-1.2284,-1.1329,-1.0393,-0.9474,-0.8038,-0.8038,-0.8038,-0.8038,-0.8038,-0.8038,-0.8038,-0.8038,-0.8038,-0.8038,-0.8038,-0.8038,-0.8038,-0.8038,-0.8038,-0.8038,-0.8038,-0.8038,-0.8038,-0.8038,-0.7967,-0.7801,-0.763,-0.7486,-0.735,-0.7185,-0.7118,-0.7139,-0.7139,-0.7139,-0.7136,-0.6909,-0.6766,-0.6692,-0.6458,-0.6318,-0.6338,-0.6338,-0.6338,-0.6338,-0.6338,-0.6338,-0.6338,-0.6338,-0.6338,-0.6338,-0.6338,-0.6338,-0.6338,-0.6338,-0.6567,-0.6945,-0.6945,-0.7629,-0.8389,-0.7783,-0.8008,-0.8466,-0.8466,-0.8466,-0.8618,-0.9145,-0.9296,-0.9352,-0.9486,-1.0336,-1.1494,-1.2462,-1.3348,-1.3928,-1.4062,-1.4088,-1.4088,-1.4088,-1.4088,-1.4088,-1.4088,-1.4088,-1.4088,-1.4088,-1.3831,-1.3609,-1.3612,-1.3366,-1.3193,-1.3189,-1.3367,-1.338,-1.3454,-1.3595,-1.3743,-1.3911,-1.3748,-1.3821,-1.4082,-1.3931,-1.3931,-1.4088,-1.4088,-1.4088,-1.4088,-1.4088,-1.4088,-1.4088,-1.4088,-1.3848,-1.344,-1.328,-1.2953,-1.2545,-1.1891,-1.1277,-1.0576,-1.0143,-0.9331,-0.844]},{"header":{"parameterUnit":"m.s-1","parameterCategory":1,"la1":30.6,"la2":28.766,"lo1":-90.7593,"lo2":-88.6598,"dy":0.0162,"dx":0.0183,"nx":116,"ny":114,"refTime":"2023-06-09T06:00:00:Z","depth":0,"parameterNumber":3,"parameterNumberName":"V-component_of_WINDS"},"data":[0.0,0.0,0.0,0.0,0.0,0.0,0.0,0.0,0.0,0.0,0.0,0.0,0.0,0.0,0.0,0.0,0.0,0.0,0.0,0.0,0.0,0.0,0.0,0.0,0.0,0.0,0.0,0.0,0.0,0.0,0.0,0.0,0.0,0.0,0.0,0.0,0.0,0.0,0.0,0.0,0.0,0.0,0.0,0.0,0.0,0.0,0.0,0.0,0.0,0.0,0.0,0.0,0.0,0.0,0.0,0.0,0.0,0.0,0.0,0.0,0.0,0.0,0.0,0.0,0.0,0.0,0.0,0.0,0.0,0.0,0.0,0.0,0.0,0.0,0.0,0.0,0.0,0.0,0.0,0.0,0.0,0.0,0.0,0.0,0.0,0.0,0.0,0.0,0.0,0.0,0.0,0.0,0.0,0.0,0.0,0.0,0.0,0.0,0.0,0.0,0.0,0.0,0.0,0.0,0.0,0.0,0.0,0.0,0.0,0.0,0.0,0.0,0.0,0.0,0.0,0.0,0.0,0.0,0.0,0.0,0.0,0.0,0.0,0.0,0.0,0.0,0.0,0.0,0.0,0.0,0.0,0.0,0.0,0.0,0.0,0.0,0.0,0.0,0.0,0.0,0.0,0.0,0.0,0.0,0.0,0.0,0.0,0.0,0.0,0.0,0.0,0.0,0.0,0.0,0.0,0.0,0.0,0.0,0.0,0.0,0.0,0.0,0.0,0.0,0.0,0.0,0.0,0.0,0.0,0.0,0.0,0.0,0.0,0.0,0.0,0.0,0.0,0.0,0.0,0.0,0.0,0.0,0.0,0.0,0.0,0.0,0.0,0.0,0.0,0.0,0.0,0.0,0.0,0.0,0.0,0.0,0.0,0.0,0.0,0.0,0.0,0.0,0.0,0.0,0.0,0.0,0.0,0.0,0.0,0.0,0.0,0.0,0.0,0.0,0.0,0.0,0.0,0.0,0.0,0.0,0.0,0.0,0.0,0.0,0.0,0.0,0.0,0.0,0.0,0.0,0.0,0.0,0.0,0.0,0.0,0.0,0.0,0.0,0.0,0.0,0.0,0.0,0.0,0.0,0.0,0.0,0.0,0.0,0.0,0.0,0.0,0.0,0.0,0.0,0.0,0.0,0.0,0.0,0.0,0.0,0.0,0.0,0.0,0.0,0.0,0.0,0.0,0.0,0.0,0.0,0.0,0.0,0.0,0.0,0.0,0.0,0.0,0.0,0.0,0.0,0.0,0.0,0.0,0.0,0.0,0.0,0.0,0.0,0.0,0.0,0.0,0.0,0.0,0.0,0.0,0.0,0.0,0.0,0.0,0.0,0.0,0.0,0.0,0.0,0.0,0.0,0.0,0.0,0.0,0.0,0.0,0.0,0.0,0.0,0.0,0.0,0.0,0.0,0.0,0.0,0.0,0.0,0.0,0.0,0.0,0.0,0.0,0.0,0.0,0.0,0.0,0.0,0.0,0.0,0.0,0.0,0.0,0.0,0.0,0.0,0.0,0.0,0.0,0.0,0.0,0.0,0.0,0.0,0.0,0.0,0.0,0.0,0.0,0.0,0.0,0.0,0.0,0.0,0.0,0.0,0.0,0.0,0.0,0.0,0.0,0.0,0.0,0.0,0.0,0.0,0.0,0.0,0.0,0.0,0.0,0.0,0.0,0.0,0.0,0.0,0.0,0.0,0.0,0.0,0.0,0.0,0.0,0.0,0.0,0.0,0.0,0.0,0.0,0.0,0.0,0.0,0.0,0.0,0.0,0.0,0.0,0.0,0.0,0.0,0.0,0.0,0.0,0.0,0.0,0.0,0.0,0.0,0.0,0.0,0.0,0.0,0.0,0.0,0.0,0.0,0.0,0.0,0.0,0.0,0.0,0.0,0.0,0.0,0.0,0.0,0.0,0.0,0.0,0.0,0.0,0.0,0.0,0.0,0.0,0.0,0.0,0.0,0.0,0.0,0.0,0.0,0.0,0.0,0.0,0.0,0.0,0.0,0.0,0.0,0.0,0.0,0.0,0.0,0.0,0.0,0.0,0.0,0.0,0.0,0.0,0.0,0.0,0.0,0.0,0.0,0.0,0.0,0.0,0.0,0.0,0.0,0.0,0.0,0.0,0.0,0.0,0.0,0.0,0.0,0.0,0.0,0.0,0.0,0.0,0.0,0.0,0.0,0.0,0.0,0.0,0.0,0.0,0.0,0.0,0.0,0.0,0.0,0.0,0.0,0.0,0.0,0.0,0.0,0.0,0.0,0.0,0.0,0.0,0.0,0.0,0.0,0.0,0.0,0.0,0.0,0.0,0.0,0.0,0.0,0.0,0.0,0.0,0.0,0.0,0.0,0.0,0.0,0.0,0.0,0.0,0.0,0.0,0.0,0.0,0.0,0.0,0.0,0.0,0.0,0.0,0.0,0.0,0.0,0.0,0.0,0.0,0.0,0.0,0.0,0.0,0.0,0.0,0.0,0.0,0.0,0.0,0.0,0.0,0.0,0.0,0.0,0.0,0.0,0.0,0.0,0.0,0.0,0.0,0.0,0.0,0.0,0.0,0.0,0.0,0.0,0.0,0.0,0.0,0.0,0.0,0.0,0.0,0.0,0.0,0.0,0.0,0.0,0.0,0.0,0.0,0.0,0.0,0.0,0.0,0.0,0.0,0.0,0.0,0.0,0.0,0.0,0.0,0.0,0.0,0.0,0.0,0.0,0.0,0.0,0.0,0.0,0.0,0.0,0.0,0.0,0.0,0.0,0.0,0.0,0.0,0.0,0.0,0.0,0.0,0.0,0.0,0.0,0.0,0.0,0.0,0.0,0.0,0.0,0.0,0.0,0.0,0.0,0.0,0.0,0.0,0.0,0.0,0.0,0.0,0.0,0.0,0.0,0.0,0.0,0.0,0.0,0.0,0.0,0.0,0.0,0.0,0.0,0.0,0.0,0.0,0.0,0.0,0.0,0.0,0.0,0.0,0.0,0.0,0.0,0.0,0.0,0.0,0.0,0.0,0.0,0.0,0.0,0.0,0.0,0.0,0.0,0.0,0.0,0.0,0.0,0.0,0.0,0.0,0.0,0.0,0.0,0.0,0.0,0.0,0.0,0.0,0.0,0.0,0.0,0.0,0.0,0.0,0.0,0.0,0.0,0.0,0.0,0.0,0.0,0.0,0.0,0.0,0.0,0.0,0.0,0.0,0.0,0.0,0.0,0.0,0.0,0.0,0.0,0.0,0.0,0.0,0.0,0.0,0.0,0.0,0.0,0.0,0.0,0.0,0.0,0.0,0.0,0.0,0.0,0.0,0.0,0.0,0.0,0.0,0.0,0.0,0.0,0.0,0.0,0.0,0.0,0.0,0.0,0.0,0.0,0.0,0.0,0.0,0.0,0.0,0.0,0.0,0.0,0.0,0.0,0.0,0.0,0.0,0.0,0.0,0.0,0.0,0.0,0.0,0.0,0.0,0.0,0.0,0.0,0.0,0.0,0.0,0.0,0.0,0.0,0.0,0.0,0.0,0.0,0.0,0.0,0.0,0.0,0.0,0.0,0.0,0.0,0.0,0.0,0.0,0.0,0.0,0.0,0.0,0.0,0.0,0.0,0.0,0.0,0.0,0.0,0.0,0.0,0.0,0.0,0.0,0.0,0.0,0.0,0.0,0.0,0.0,0.0,0.0,0.0,0.0,0.0,0.0,0.0,0.0,0.0,0.0,0.0,0.0,0.0,0.0,0.0,0.0,0.0,0.0,0.0,0.0,0.0,0.0,0.0,0.0,0.0,0.0,0.0,0.0,0.0,0.0,0.0,0.0,0.0,0.0,0.0,0.0,0.0,0.0,0.0,0.0,0.0,0.0,0.0,0.0,0.0,0.0,0.0,0.0,0.0,0.0,0.0,0.0,0.0,0.0,0.0,0.0,0.0,0.0,0.0,0.0,0.0,0.0,0.0,0.0,0.0,0.0,0.0,0.0,0.0,0.0,0.0,0.0,0.0,0.0,0.0,0.0,0.0,0.0,0.0,0.0,0.0,0.0,0.0,0.0,0.0,0.0,0.0,0.0,0.0,0.0,0.0,0.0,0.0,0.0,0.0,0.0,0.0,0.0,0.0,0.0,0.0,0.0,0.0,0.0,0.0,0.0,0.0,0.0,0.0,0.0,0.0,0.0,0.0,0.0,0.0,0.0,0.0,0.0,0.0,0.0,0.0,0.0,0.0,0.0,0.0,0.0,0.0,0.0,0.0,0.0,0.0,0.0,0.0,0.0,0.0,0.0,0.0,0.0,0.0,0.0,0.0,0.0,0.0,0.0,0.0,0.0,0.0,0.0,0.0,0.0,0.0,0.0,0.0,0.0,0.0,0.0,0.0,0.0,0.0,0.0,0.0,0.0,0.0,0.0,0.0,0.0,0.0,0.0,0.0,0.0,0.0,0.0,0.0,0.0,0.0,0.0,0.0,0.0,0.0,0.0,0.0,0.0,0.0,0.0,0.0,0.0,0.0,0.0,0.0,0.0,0.0,0.0,0.0,0.0,0.0,0.0,0.0,0.0,0.0,0.0,0.0,0.0,0.0,0.0,0.0,0.0,0.0,0.0,0.0,0.0,0.0,0.0,0.0,0.0,0.0,0.0,0.0,0.0,0.0,0.0,0.0,0.0,0.0,0.0,0.0,0.0,0.0,0.0,0.0,0.0,0.0,0.0,0.0,0.0,0.0,0.0,0.0,0.0,0.0,0.0,0.0,0.0,0.0,0.0,0.0,0.0,0.0,0.0,0.0,0.0,0.0,0.0,0.0,0.0,0.0,0.0,0.0,0.0,0.0,0.0,0.0,0.0,0.0,0.0,0.0,0.0,0.0,0.0,0.0,0.0,0.0,0.0,0.0,0.0,0.0,0.0,0.0,0.0,0.0,0.0,0.0,0.0,0.0,0.0,0.0,0.0,0.0,0.0,0.0,0.0,0.0,0.0,0.0,0.0,0.0,0.0,0.0,0.0,0.0,0.0,0.0,0.0,0.0,0.0,0.0,0.0,0.0,0.0,0.0,0.0,0.0,0.0,0.0,0.0,0.0,0.0,0.0,0.0,0.0,0.0,0.0,0.0,0.0,0.0,0.0,0.0,0.0,0.0,0.0,0.0,0.0,0.0,0.0,0.0,0.0,0.0,0.0,0.0,0.0,0.0,0.0,0.0,0.0,0.0,0.0,0.0,0.0,0.0,0.0,0.0,0.0,0.0,0.0,0.0,0.0,0.0,0.0,0.0,0.0,0.0,0.0,0.0,0.0,0.0,0.0,0.0,0.0,0.0,0.0,0.0,0.0,0.0,0.0,0.0,0.0,0.0,0.0,0.0,0.0,0.0,0.0,0.0,0.0,0.0,0.0,0.0,0.0,0.0,0.0,0.0,0.0,0.0,0.0,0.0,0.0,0.0,0.0,0.0,0.0,0.0,0.0,0.0,0.0,0.0,0.0,0.0,0.0,0.0,0.0,0.0,0.0,0.0,0.0,0.0,0.0,0.0,0.0,0.0,0.0,0.0,0.0,0.0,0.0,0.0,0.0,0.0,0.0,0.0,0.0,0.0,0.0,0.0,0.0,0.0,0.0,0.0,0.0,0.0,0.0,0.0,0.0,0.0,0.0,0.0,0.0,0.0,0.0,0.0,0.0,0.0,0.0,0.0,0.0,0.0,0.0,0.0,0.0,0.0,0.0,0.0,0.0,0.0,0.0,0.0,0.0,0.0,0.0,0.0,0.0,0.0,0.0,0.0,0.0,0.0,0.0,0.0,0.0,0.0,0.0,0.0,0.0,0.0,0.0,0.0,0.0,0.0,0.0,0.0,0.0,0.0,0.0,0.0,0.0,0.0,0.0,0.0,0.0,0.0,0.0,0.0,0.0,0.0,0.0,0.0,0.0,0.0,0.0,0.0,0.0,0.0,0.0,0.0,0.0,0.0,0.0,0.0,0.0,0.0,0.0,0.0,0.0,0.0,0.0,0.0,0.0,0.0,0.0,0.0,0.0,0.0,0.0,0.0,0.0,0.0,0.0,0.0,0.0,0.0,0.0,0.0,0.0,0.0,0.0,0.0,0.0,0.0,0.0,0.0,0.0,0.0,0.0,0.0,0.0,-3.0691,-2.9395,0.0,0.0,0.0,0.0,0.0,0.0,0.0,0.0,0.0,0.0,0.0,0.0,0.0,0.0,0.0,0.0,0.0,0.0,0.0,0.0,0.0,0.0,0.0,0.0,0.0,0.0,0.0,0.0,0.0,0.0,0.0,0.0,0.0,0.0,0.0,0.0,0.0,0.0,-0.5419,-0.2798,-0.1088,-0.11,-0.3934,-0.9284,0.0,0.0,0.0,0.0,0.0,0.0,0.0,0.0,0.0,0.0,0.0,0.0,0.0,0.0,0.0,0.0,0.0,0.0,0.0,0.0,0.0,0.0,0.0,0.0,0.0,0.0,0.0,0.0,0.0,0.0,0.0,0.0,0.0,0.0,0.0,0.0,0.0,0.0,0.0,0.0,0.0,0.0,0.0,0.0,0.0,0.0,0.0,0.0,0.0,0.0,0.0,0.0,0.0,0.0,0.0,0.0,0.0,0.0,0.0,0.0,0.0,0.0,0.0,0.0,0.0,0.0,0.0,0.0,0.0,0.0,-3.2342,-3.1329,0.0,0.0,0.0,0.0,0.0,0.0,0.0,0.0,0.0,0.0,0.0,0.0,0.0,0.0,0.0,0.0,0.0,0.0,0.0,0.0,0.0,0.0,0.0,0.0,-2.4365,-2.4293,-2.376,-2.3527,0.0,0.0,0.0,0.0,0.0,0.0,0.0,-1.5841,-1.2094,-0.8441,-0.4354,-0.1897,-0.0896,-0.1664,-0.4321,-0.8432,-0.9869,0.0,0.0,0.0,0.0,0.0,0.0,0.0,0.0,0.0,0.0,0.0,0.0,0.0,0.0,0.0,0.0,0.0,0.0,0.0,0.0,0.0,0.0,0.0,0.0,0.0,0.0,0.0,0.0,0.0,0.0,0.0,0.0,0.0,0.0,0.0,0.0,0.0,0.0,0.0,0.0,0.0,0.0,0.0,0.0,0.0,0.0,0.0,0.0,0.0,0.0,0.0,0.0,0.0,0.0,0.0,0.0,0.0,0.0,0.0,0.0,0.0,0.0,0.0,-3.348,-3.4327,-3.4547,-3.5552,-3.5718,-3.5149,-3.4076,-3.3351,-3.2706,-2.9835,0.0,0.0,0.0,0.0,0.0,0.0,0.0,0.0,0.0,0.0,0.0,0.0,0.0,0.0,0.0,0.0,0.0,0.0,0.0,0.0,0.0,-2.4412,-2.3891,-2.3497,-2.3058,-2.2695,0.0,0.0,0.0,0.0,0.0,0.0,-1.7475,-1.3876,-1.053,-0.7388,-0.2691,-0.0309,-0.0191,-0.1006,-0.3001,-0.5859,-0.6885,-0.882,-1.1282,0.0,0.0,0.0,0.0,0.0,0.0,0.0,0.0,0.0,0.0,0.0,0.0,0.0,0.0,0.0,0.0,0.0,0.0,0.0,0.0,0.0,0.0,0.0,0.0,0.0,0.0,0.0,0.0,0.0,0.0,0.0,0.0,0.0,0.0,0.0,0.0,0.0,0.0,0.0,0.0,0.0,-2.3574,-2.4749,0.0,0.0,0.0,0.0,0.0,0.0,0.0,0.0,0.0,0.0,0.0,0.0,0.0,-2.7421,-2.9503,-3.1492,-3.3309,-3.5125,-3.6518,-3.7624,-3.8631,-3.8222,-3.7982,-3.7838,-3.7128,0.0,-3.3365,-3.2915,0.0,0.0,0.0,0.0,0.0,0.0,0.0,0.0,0.0,0.0,0.0,0.0,0.0,0.0,0.0,0.0,0.0,0.0,0.0,0.0,0.0,-2.4543,-2.41,-2.3517,-2.3638,-2.3414,-2.2709,-2.3256,0.0,0.0,0.0,-1.9116,-1.5838,-1.2263,-0.8075,-0.3173,-0.1057,0.0,0.0,-0.0419,-0.157,-0.3335,-0.3811,-0.5975,-0.9436,-1.037,0.0,0.0,0.0,0.0,0.0,0.0,0.0,0.0,0.0,0.0,0.0,0.0,0.0,0.0,0.0,0.0,0.0,0.0,0.0,0.0,0.0,0.0,0.0,0.0,0.0,0.0,0.0,0.0,0.0,0.0,0.0,0.0,0.0,0.0,0.0,0.0,0.0,0.0,0.0,-2.3304,-2.3208,-2.3828,-2.2474,-2.1307,0.0,0.0,0.0,0.0,0.0,0.0,0.0,0.0,0.0,-2.4974,-2.6794,-2.8558,-3.0096,-3.2529,-3.4366,-3.5582,-3.7367,-3.8688,-3.954,-3.9877,-3.9873,-3.9499,-3.9215,-3.8003,-3.6133,-3.4651,-3.3242,-3.1901,0.0,0.0,0.0,0.0,-3.0517,-3.1519,0.0,0.0,0.0,0.0,0.0,0.0,0.0,0.0,0.0,0.0,0.0,0.0,-2.4828,-2.4687,-2.4254,-2.3413,-2.3857,-2.3789,-2.2768,-2.326,0.0,0.0,-2.0208,-1.7769,-1.4398,-1.0286,-0.5508,0.0,0.0,0.0,0.0,0.0,-0.0509,-0.1378,-0.1898,-0.4175,-0.7637,-0.8805,-0.9501,-0.9845,0.0,0.0,0.0,0.0,0.0,0.0,0.0,0.0,0.0,0.0,0.0,0.0,0.0,0.0,0.0,0.0,0.0,0.0,0.0,0.0,0.0,0.0,0.0,0.0,0.0,0.0,0.0,0.0,0.0,0.0,0.0,0.0,0.0,0.0,0.0,0.0,0.0,-2.4309,-2.3783,-2.367,-2.2101,-2.1021,0.0,0.0,0.0,0.0,0.0,0.0,-2.1256,-2.2222,-2.3418,-2.4876,-2.7682,-2.9746,-3.1033,-3.3469,-3.5214,-3.6346,-3.7524,-3.8908,-4.0582,-4.1455,-4.1458,-4.08,-4.0502,-3.9738,-3.8482,-3.6357,-3.5135,-3.4466,-3.3063,-3.1708,-3.076,-3.2079,-3.2511,-3.2542,0.0,0.0,0.0,0.0,0.0,0.0,0.0,0.0,0.0,0.0,0.0,-2.4814,-2.4793,-2.4669,-2.4064,-2.2772,-2.3147,-2.2958,-2.1741,-2.2347,-2.2207,-2.091,-1.9029,-1.6445,-1.3146,-0.7541,-0.3111,0.0,0.0,0.0,0.0,0.0,0.0,-0.0145,-0.2159,-0.4098,-0.5995,-0.6839,-0.8549,-1.0684,-1.2239,0.0,0.0,0.0,0.0,0.0,0.0,0.0,0.0,0.0,0.0,0.0,0.0,0.0,0.0,0.0,0.0,0.0,0.0,0.0,0.0,0.0,0.0,0.0,0.0,0.0,0.0,0.0,0.0,0.0,0.0,0.0,0.0,0.0,0.0,0.0,0.0,0.0,0.0,-2.4992,-2.489,0.0,0.0,0.0,0.0,-2.2285,-2.1184,-2.1277,-2.2988,-2.3645,-2.4404,-2.5594,-2.8589,-3.1121,-3.3304,-3.4563,-3.6325,-3.8512,-3.7194,-3.8803,-4.3133,-4.3212,-4.2768,-4.1851,-4.0845,-4.0008,-3.9305,-3.8512,-3.6866,-3.4917,-3.5156,-3.4448,-3.3456,-3.4816,-3.5278,-3.5294,0.0,0.0,0.0,0.0,0.0,0.0,0.0,0.0,-2.2643,-2.3191,-2.4111,-2.4644,-2.4377,-2.4388,-2.3879,-2.2584,-2.326,-2.3191,-2.194,-2.2394,-2.1834,-1.9908,-1.7315,-1.3518,-0.841,-0.601,-0.3267,0.0,0.0,0.0,0.0,-0.1224,-0.1526,-0.1232,-0.2341,-0.4597,-0.7522,-0.8389,-0.9064,-0.9592,-1.0901,-1.1505,0.0,0.0,0.0,0.0,0.0,0.0,0.0,0.0,0.0,0.0,0.0,0.0,0.0,0.0,0.0,0.0,0.0,0.0,0.0,0.0,0.0,0.0,0.0,0.0,0.0,0.0,0.0,0.0,0.0,0.0,0.0,0.0,0.0,0.0,0.0,0.0,0.0,-2.6356,-2.6087,0.0,-2.335,-2.3861,-2.4108,-2.3502,-2.4044,-2.4842,-2.581,-2.6075,-2.6357,-2.6783,-2.8926,-3.1278,-3.3575,-3.5255,-3.6438,-3.724,-3.6636,-3.7245,-3.8939,-4.1935,-4.3101,-4.2809,-4.1549,-4.0397,-3.9283,-3.8149,-3.7099,-3.6014,-3.4683,-3.4423,-3.4824,-3.5333,-3.5524,-3.5525,0.0,0.0,0.0,0.0,0.0,0.0,0.0,0.0,-2.1994,-2.2789,-2.3859,-2.4447,-2.4089,-2.4211,-2.376,-2.2415,-2.301,-2.3047,-2.194,-2.1805,-2.0854,-1.8781,-1.4841,-1.0505,-0.5817,-0.5273,-0.3753,-0.1203,-0.0724,-0.0336,0.0,-0.1232,-0.2207,-0.3033,-0.3399,-0.5473,-0.8643,-0.9843,-0.9933,-0.9313,-1.0391,-1.0925,-1.1182,0.0,0.0,0.0,0.0,0.0,0.0,0.0,0.0,0.0,0.0,0.0,0.0,0.0,0.0,0.0,0.0,0.0,0.0,0.0,0.0,0.0,0.0,0.0,0.0,0.0,0.0,0.0,0.0,0.0,0.0,0.0,0.0,0.0,0.0,-2.7525,-2.6824,-2.7264,-2.7053,-2.6309,-2.501,-2.5654,-2.6074,-2.5693,-2.6608,-2.7437,-2.7994,-2.8127,-2.8094,-2.8096,-2.9024,-3.0648,-3.3241,-3.5332,-3.6438,-3.6358,-3.6354,-3.635,-3.647,-3.9601,-4.1806,-4.3263,-4.1977,-4.0617,-3.9281,-3.7636,-3.6634,-3.6143,-3.4976,-3.4576,-3.4639,-3.5277,-3.5518,-3.5509,0.0,0.0,0.0,0.0,0.0,0.0,0.0,-2.0213,-2.1249,-2.2705,-2.3709,-2.4226,-2.402,-2.4163,-2.3679,-2.2197,-2.2432,-2.2322,-2.164,-2.0466,-1.9033,-1.7329,-1.1644,-0.7651,-0.5789,-0.5148,-0.4476,-0.3684,-0.2274,-0.1107,-0.0123,-0.0123,-0.2036,-0.5341,-0.5395,-0.6647,-0.8865,-1.0838,-1.1012,-1.0065,-1.0781,-1.0967,-1.0906,0.0,0.0,0.0,0.0,0.0,0.0,0.0,0.0,0.0,0.0,0.0,0.0,0.0,0.0,0.0,0.0,0.0,0.0,0.0,0.0,0.0,0.0,0.0,0.0,0.0,0.0,0.0,0.0,0.0,0.0,0.0,0.0,0.0,-2.9826,-2.8811,-2.7944,-2.7843,-2.7749,-2.7559,-2.7139,-2.7861,-2.8516,-2.8906,-2.852,-2.8555,-2.923,-2.942,-2.9646,-2.965,-2.8701,-2.9516,-3.2197,-3.5023,-3.6378,-3.6358,-3.6358,-3.6362,-3.6379,-3.6366,-3.881,-4.2982,-4.1742,-4.0431,-3.8996,-3.692,-3.5733,-3.5221,-3.6324,-3.5204,-3.3105,-3.4799,-3.5451,-3.5484,0.0,0.0,0.0,0.0,0.0,0.0,0.0,-2.0225,-2.1506,-2.2565,-2.3628,-2.4121,-2.3689,-2.3558,-2.3024,-2.1845,-2.1358,-2.1117,-2.1166,-1.91,-1.601,-1.1814,-0.8747,-0.6476,-0.506,-0.5354,-0.5526,-0.5464,-0.4406,-0.3668,-0.3179,-0.3381,-0.3694,-0.4128,-0.4713,-0.601,-0.7822,-0.9294,-1.0162,-1.0521,-1.0733,-1.1394,-1.2254,0.0,0.0,0.0,0.0,0.0,0.0,0.0,0.0,0.0,0.0,0.0,0.0,0.0,0.0,0.0,0.0,0.0,0.0,0.0,0.0,0.0,0.0,0.0,0.0,0.0,0.0,0.0,0.0,0.0,0.0,0.0,-2.8081,-3.0126,-3.1928,-3.0515,-2.9762,-3.0793,-2.9828,-2.9004,-2.8877,-2.9355,-2.96,-2.9404,-2.9254,-2.9303,-2.942,-2.94,-2.9375,-2.954,-2.8701,-2.8645,-2.9425,-3.4087,-3.6378,-3.6358,-3.6358,-3.6377,-3.64,-3.6363,-3.7059,-3.8143,-3.62,-3.5136,-3.4832,-3.4209,-3.3843,-3.3823,-3.5156,-3.5424,-3.4966,-3.3804,-3.4269,-3.5529,0.0,0.0,0.0,0.0,0.0,0.0,0.0,-2.1009,-2.197,-2.286,-2.3752,-2.4197,-2.391,-2.3641,-2.3027,-2.1867,-2.1311,-2.0661,-1.9702,-1.6478,-1.2696,-0.8413,-0.7202,-0.6114,-0.5083,-0.5728,-0.6183,-0.6228,-0.5345,-0.4678,-0.4123,-0.3966,-0.3688,-0.3291,-0.4643,-0.6188,-0.7833,-0.9337,-1.0523,-1.1469,-1.1414,-1.1906,-1.2642,-1.2906,-1.3462,-1.4118,-1.4369,-1.5292,-1.6145,-1.4334,0.0,0.0,0.0,0.0,0.0,0.0,0.0,0.0,0.0,0.0,0.0,0.0,0.0,0.0,0.0,0.0,0.0,0.0,0.0,0.0,0.0,0.0,0.0,0.0,-2.9035,-3.0355,-3.234,-3.1187,-3.0533,-3.1175,-3.0299,-2.9629,-2.9795,-3.0225,-3.0381,-3.0146,-3.0117,-3.0117,-3.0117,-2.9974,-2.9986,-3.0108,-2.8896,-2.831,-2.8278,-3.3654,-3.637,-3.6385,-3.6363,-3.6358,-3.6439,-3.6392,-3.6352,-3.6287,-3.4071,-3.3091,-3.3073,-3.3102,-3.3145,-3.3215,0.0,0.0,0.0,0.0,-3.4522,-3.5494,0.0,0.0,0.0,0.0,0.0,0.0,0.0,-2.2143,-2.2539,-2.3372,-2.3908,-2.4159,-2.4061,-2.3872,-2.3221,-2.1968,-2.159,-2.0134,-1.712,-1.3001,-0.9391,-0.6478,-0.642,-0.6159,-0.5542,-0.6338,-0.6659,-0.6391,-0.5775,-0.5065,-0.4189,-0.3392,-0.2998,-0.3008,-0.4898,-0.6652,-0.8407,-1.0092,-1.1518,-1.2614,-1.2665,-1.2599,-1.2597,-1.3394,-1.3943,-1.4285,-1.427,-1.5191,-1.6117,-1.469,0.0,0.0,0.0,0.0,0.0,0.0,0.0,0.0,0.0,0.0,0.0,0.0,0.0,0.0,0.0,0.0,0.0,0.0,0.0,0.0,0.0,0.0,0.0,0.0,-2.9977,-3.0126,-3.1424,-3.1156,-3.0558,-3.0286,-2.9808,-2.9726,-2.9994,-3.0519,-3.0947,-3.0947,-3.0947,-3.0947,-3.0947,-3.0908,0.0,0.0,0.0,-2.8305,-2.8321,-3.3458,-3.6069,-3.6101,-3.6273,-3.6358,-3.6358,-3.6358,-3.6332,-3.6087,-3.4057,-3.3187,-3.3146,-3.3107,-3.3253,-3.3641,-3.4687,-3.5585,-3.6336,-3.5701,-3.5534,-3.5494,0.0,0.0,0.0,0.0,0.0,0.0,0.0,-2.2352,-2.3059,-2.3307,-2.3509,-2.3205,-2.2026,-2.2428,-2.2274,-2.1061,-1.974,-1.6826,-1.1768,-0.9262,-0.7012,-0.4933,-0.5378,-0.5655,-0.5487,-0.701,-0.7759,-0.7754,-0.7795,-0.7503,-0.6853,-0.5683,-0.4873,-0.4508,-0.4902,-0.6032,-0.7735,-0.9554,-1.1524,-1.3464,-1.4479,-1.4235,-1.3261,-1.3861,-1.4288,-1.4736,-1.577,-1.6104,-1.5934,-1.577,-1.6467,-1.7472,-1.7423,-1.9081,0.0,0.0,0.0,0.0,0.0,0.0,0.0,0.0,0.0,0.0,0.0,0.0,0.0,0.0,0.0,0.0,0.0,0.0,0.0,-2.9476,-3.053,-3.1124,-3.01,-3.0487,-3.0884,-3.0863,-3.0097,-2.9726,-2.9994,-3.0597,-3.0924,-3.0924,-3.0924,-3.0924,-3.0924,-3.0908,-3.0932,-3.0934,-2.925,-2.8305,-2.8321,-3.2228,-3.417,-3.4228,-3.5738,0.0,-3.6358,-3.6358,-3.5936,-3.503,-3.4317,-3.3682,-3.3082,-3.3106,-3.4418,-3.6289,-3.4784,-3.6029,-3.8513,-3.6304,-3.5487,-3.5489,0.0,0.0,0.0,0.0,0.0,0.0,0.0,-2.2567,-2.3173,-2.3774,-2.4033,-2.3964,-2.3467,-2.3723,-2.3351,-2.1878,-1.7422,-1.2934,-0.8815,-0.6483,-0.4794,-0.3791,-0.5075,-0.5829,-0.5737,-0.7474,-0.8318,-0.8219,-0.8595,-0.8416,-0.7674,-0.6777,-0.6067,-0.553,-0.5804,-0.6945,-0.8686,-1.038,-1.2605,-1.5093,-1.5889,-1.6001,-1.5739,-1.5832,-1.6318,-1.6999,-1.7046,-1.7885,-1.8818,-1.8802,-1.9877,-2.1407,-2.228,-2.3733,-2.4808,0.0,0.0,0.0,0.0,0.0,0.0,0.0,0.0,0.0,0.0,0.0,0.0,0.0,0.0,-3.2656,-3.2315,0.0,-3.1321,-3.1641,-3.0667,-2.9921,-2.9754,-2.9651,-2.9728,-2.9951,-2.9729,-2.9663,-2.9738,-3.048,-2.9568,-2.6287,-2.6016,-2.7388,-3.0712,-3.0886,-3.0927,-3.0923,-2.9205,-2.8356,-2.8315,-3.1922,-3.3419,-3.304,-3.5318,-3.6219,-3.5956,-3.5956,-3.5504,-3.47,-3.4272,-3.3846,-3.3544,-3.3743,-3.4809,-3.6223,-3.5737,-3.7154,-3.9073,-3.6454,-3.5466,-3.5504,0.0,0.0,0.0,0.0,0.0,0.0,0.0,-2.2542,-2.2917,-2.3519,-2.3882,-2.4097,-2.4102,-2.4127,-2.3227,-2.0933,-1.4241,-0.9081,-0.6609,-0.418,-0.2902,-0.287,-0.4996,-0.6142,-0.598,-0.7822,-0.8701,-0.8604,-0.9172,-0.9123,-0.8383,-0.774,-0.7197,-0.6754,-0.7231,-0.8472,-1.0379,-1.2103,-1.4441,-1.7029,-1.7636,-1.8282,-1.8871,-1.8658,-1.8923,-1.9245,-1.8625,-1.9736,-2.1498,-2.1732,-2.2942,-2.4672,-2.6293,-2.7525,-2.7944,-2.5895,-2.6056,0.0,0.0,0.0,0.0,0.0,0.0,0.0,0.0,-2.384,-2.8559,-3.0875,-3.3894,-3.5925,-3.5408,-3.3725,-3.259,-3.3002,-3.0101,-2.7931,-2.8662,-2.8048,-2.7668,-2.8075,-2.8959,-2.9524,-2.9313,-3.0344,-2.8165,-2.1594,-2.0939,-2.3535,-3.0054,-3.0344,-3.0408,-3.0348,-2.8972,-2.8288,-2.8301,-3.1462,-3.278,-3.2331,-3.474,-3.5675,-3.5542,-3.5349,-3.509,-3.4525,-3.3985,-3.3746,-3.3784,-3.447,-3.4977,-3.5534,-3.6817,-3.8047,-3.8865,-3.638,-3.5489,-3.5514,0.0,0.0,0.0,0.0,0.0,0.0,0.0,0.0,-2.2221,-2.0937,-2.1246,-2.097,-1.9286,-1.9472,-1.8001,-1.3768,-0.9252,-0.5809,-0.3759,-0.2199,-0.1588,-0.2075,-0.4732,-0.6142,-0.598,-0.8025,-0.9228,-0.9622,-1.0399,-1.0725,-1.0548,-0.9529,-0.8985,-0.8959,-0.8972,-1.0049,-1.2092,-1.4659,-1.7004,-1.9195,-2.0669,-2.1619,-2.2166,-2.2151,-2.1155,-1.9986,-2.1073,-2.1006,-2.0676,-2.2459,-2.303,-2.3196,-2.4629,-2.6679,-2.8172,-2.6147,-2.5951,-2.569,-2.2382,-1.7278,-1.3283,-1.5143,-1.6206,-1.8908,0.0,-3.2062,-3.5948,-3.9193,-4.0259,-4.0017,-3.8026,-3.5834,-3.3357,-3.0089,-2.7959,-2.6343,-2.5087,-2.4964,-2.5011,-2.5259,-2.7824,-2.9289,-2.8557,-2.9908,-2.8135,-2.1622,-2.013,-2.2255,-2.8253,-2.854,-2.8636,-2.8578,-2.8372,-2.8288,-2.8301,-2.9838,-3.1257,-3.2331,-3.3379,-3.4421,-3.5437,-3.5039,-3.4512,-3.396,-3.3407,-3.3169,-3.3242,-3.4301,-3.521,-3.6146,-3.7005,-3.7696,-3.8039,-3.6182,-3.5486,-3.5489,0.0,0.0,0.0,0.0,0.0,0.0,0.0,0.0,0.0,0.0,-2.1305,-2.0859,-1.9971,-1.8566,-1.6054,-1.1992,-0.7799,-0.463,-0.2743,-0.0885,-0.0434,-0.1806,-0.4073,-0.5419,-0.569,-0.7747,-0.9099,-0.9675,-1.0797,-1.1487,-1.1746,-1.1213,-1.1079,-1.1289,-1.1411,-1.2704,-1.4888,-1.6507,-1.8748,-2.1277,-2.1985,-2.2659,-2.3303,-2.3504,-2.3254,-2.2757,-2.2374,-2.261,0.0,-2.3159,-2.3794,-2.4671,-2.5301,-2.6661,-2.7757,-2.64,-2.6667,-2.6713,-2.3554,-2.0052,-1.7835,-2.0249,-2.1981,-2.482,-3.1382,-3.5727,-3.8969,-4.1174,-4.2186,-4.1621,-3.814,-3.5127,-3.203,-2.868,-2.5977,-2.4032,-2.3223,-2.3376,-2.3077,-2.1895,-2.2828,-2.4193,-2.5528,-2.6317,-2.4918,-2.0392,-2.2944,-2.5708,-2.8152,-2.8271,-2.8285,-2.8334,-2.8259,-2.832,-2.8291,-2.9608,-3.0916,-3.2331,-3.3126,-3.4002,-3.5052,-3.45,-3.3935,-3.3382,-3.2817,-3.2904,-3.3519,-3.4246,-3.5099,-3.6084,-3.7012,-3.7519,-3.7593,-3.6901,-3.6134,-3.5523,0.0,0.0,0.0,0.0,0.0,0.0,0.0,0.0,0.0,0.0,-2.0653,-2.0026,-1.939,-1.6968,-1.3963,-1.0437,-0.6575,-0.3568,-0.1729,-0.0272,-0.0159,-0.1731,-0.3768,-0.5175,-0.5908,-0.795,-0.9421,-1.0282,-1.157,-1.2581,-1.3254,-1.2981,-1.3142,-1.3606,-1.4134,-1.5482,-1.7429,-1.8669,-2.0587,-2.2782,-2.3017,-2.3377,-2.384,-2.416,-2.4471,-2.4633,-2.3657,-2.4084,-2.4957,-2.3852,-2.4122,-2.4974,-2.5127,-2.5905,-2.6618,-2.6133,-2.6404,-2.6362,-2.4018,-2.247,-2.2118,-2.4612,-2.7288,-3.0461,-3.506,-3.8755,-4.1478,-4.2481,-4.3229,-4.2203,-3.7316,-3.3696,-3.0065,-2.6008,-2.2876,-2.0865,-2.0969,-2.1134,-2.0779,-1.9685,-1.9441,-2.0268,-2.24,-2.265,-2.2329,-2.193,-2.5874,-2.8331,-2.8338,-2.8259,-2.8291,-2.8308,-2.831,-2.8232,-2.8125,-2.9252,-3.049,-3.1928,-3.246,-3.3371,-3.4474,-3.3759,-3.3219,-3.2805,-3.224,-3.2542,-3.3516,-3.414,-3.5026,-3.6028,-3.6976,-3.73,-3.715,-3.715,-3.6596,-3.5789,0.0,0.0,0.0,0.0,0.0,0.0,0.0,0.0,0.0,0.0,0.0,0.0,0.0,-1.3148,-1.0674,-0.7785,-0.4666,-0.205,-0.0202,-0.0571,-0.1124,-0.1789,-0.4179,-0.5934,-0.6939,-0.8928,-1.0651,-1.2023,-1.3157,-1.4304,-1.54,-1.4863,-1.5065,-1.5856,-1.7036,-1.8173,-1.9365,-2.155,-2.285,-2.3513,-2.4114,-2.4246,-2.4123,-2.4389,-2.445,-2.4515,-2.5321,-2.5298,-2.4859,-2.4561,-2.3588,-2.2593,-2.3047,-2.3793,-2.4585,-2.5004,-2.4388,-2.3508,-2.343,-2.3369,-2.4133,-2.7504,-3.144,-3.5368,-3.8851,-4.2142,-4.4484,-4.459,-4.4282,-4.2106,-3.5904,-3.211,-2.7656,-2.0859,-1.78,-1.6482,-1.7446,-1.7351,-1.7886,-1.9615,-1.9533,-1.9488,-1.9508,-1.9488,-2.1847,-2.7623,-2.8239,-2.83,-2.8324,-2.8349,-2.8301,-2.8301,-2.8301,-2.8096,-2.7685,-2.8192,-2.9281,-3.093,-3.0812,-3.1879,-3.3884,-3.2767,-3.2252,-3.2202,-3.165,-3.1941,-3.2922,-3.3963,-3.5026,-3.6028,-3.6976,-3.7045,-3.6507,-3.6507,-3.6633,-3.6655,0.0,0.0,0.0,0.0,0.0,0.0,0.0,0.0,0.0,0.0,0.0,0.0,0.0,0.0,0.0,0.0,-0.5447,-0.3372,-0.1993,-0.0542,-0.0144,-0.1138,-0.2374,-0.4242,-0.6812,-0.8671,-1.083,-1.3365,-1.4502,-1.5577,-1.658,-1.7277,-1.7939,-1.8589,-1.9755,-2.0986,-2.2205,-2.2851,-2.3495,-2.4081,-2.3988,-2.3611,-2.3137,-2.3499,-2.3602,-2.3623,0.0,-2.4671,-2.4545,-2.2729,-2.2359,-2.2485,-2.1431,-2.191,-2.303,-2.3805,-2.4108,-2.4199,-2.4245,-2.5975,-2.8543,-3.1809,-3.5614,-3.9297,-4.2138,-4.4174,-4.5409,-4.5201,-4.2388,-3.8427,-3.3419,-2.799,-2.2631,-1.7647,-1.5533,-1.4649,-1.5343,-1.6459,-1.7428,-1.7947,-1.8985,-1.9579,-1.9386,-1.9118,-1.9983,-2.2245,-2.3836,-2.4911,-2.5322,-2.722,-2.8291,-2.8291,-2.8291,-2.8223,-2.8086,-2.7949,-2.9014,-3.1345,-3.2323,-3.3036,-3.3332,-3.2566,-3.2215,-3.2164,-3.1273,-3.1759,-3.3186,-3.3221,-3.4172,-3.5651,-3.6015,-3.6028,-3.5833,-3.5833,-3.5863,-3.5929,0.0,0.0,0.0,0.0,0.0,0.0,0.0,0.0,0.0,0.0,0.0,0.0,0.0,0.0,0.0,0.0,0.0,-0.4908,-0.323,-0.1598,-0.0829,-0.1203,-0.2359,-0.4447,-0.7441,-0.9701,-1.2223,-1.5107,-1.5488,-1.6248,-1.7368,-1.8126,-1.8883,-1.9613,-2.1454,-2.2699,-2.3435,-2.365,-2.4049,-2.4465,-2.3665,-2.3003,-2.253,-2.288,-2.3058,0.0,-2.3813,-2.4372,-2.4441,-2.2094,-2.1932,-2.2446,-2.0992,-2.1351,-2.2477,-2.3627,-2.404,-2.4282,-2.5172,-2.7656,-3.07,-3.3799,-3.7295,-4.0598,-4.287,-4.4085,-4.467,-4.439,-4.0324,-3.5367,-3.0512,-2.4343,-1.8491,-1.4037,-1.2537,-1.222,-1.3269,-1.4575,-1.5762,-1.6844,-1.8158,-1.9076,-1.9392,-1.9601,-1.9878,-2.0238,-2.2065,-2.3812,-2.5297,-2.728,-2.8291,-2.8291,-2.8125,-2.7978,-2.7842,-2.7568,-2.8625,-3.0968,-3.2798,-3.3307,-3.2754,-3.2177,-3.1825,-3.1587,-3.0708,-3.1394,-3.3073,-3.2759,-3.3754,-3.5504,-3.5504,-3.5504,-3.5504,-3.5504,-3.5504,-3.5504,0.0,0.0,0.0,0.0,0.0,0.0,0.0,0.0,0.0,0.0,0.0,0.0,0.0,0.0,0.0,0.0,0.0,0.0,-0.3941,-0.3691,-0.3128,-0.2015,-0.4061,-0.6412,-0.8894,-1.1974,-1.4744,-1.7187,-1.6207,-1.6401,-1.7748,-1.7514,-1.7929,-1.8973,-2.2049,-2.3281,-2.3112,-2.3912,-2.442,-2.4593,-2.3255,-2.2554,-2.231,-2.2599,-2.2905,-2.3271,-2.3903,-2.4396,-2.4502,-2.2697,-2.2242,-2.2312,-2.1565,-2.1823,-2.2678,-2.4135,-2.3926,-2.364,-2.5878,-2.8132,-3.0538,-3.3312,-3.6485,-3.9364,-4.103,-4.195,-4.2383,-4.2084,-3.8015,-3.2776,-2.7158,-2.1048,-1.52,-1.0076,-0.8781,-0.908,-1.0982,-1.1583,-1.3119,-1.6457,-1.7226,-1.8013,-1.9296,-2.0723,-2.1632,-2.1838,-2.311,-2.5133,-2.797,-2.8184,-2.8291,-2.8291,-2.7727,-2.7308,-2.7051,-2.7094,-2.8099,-2.9985,-3.2119,-3.2767,-3.219,-3.1637,-3.111,-3.0583,-3.003,-3.0846,-3.2593,-3.2522,-3.3685,-3.5504,-3.5424,-3.5424,-3.5439,-3.5504,-3.5439,-3.5424,0.0,0.0,0.0,0.0,0.0,0.0,0.0,0.0,0.0,0.0,0.0,0.0,0.0,0.0,0.0,0.0,0.0,0.0,-0.7205,-0.597,-0.4997,-0.4302,-0.535,-0.7492,-1.0828,-1.3769,-1.6271,-1.8371,-1.7615,-1.7224,-1.7201,-1.7439,-1.7742,-1.8204,-2.1044,-2.2445,-2.2674,-2.3152,-2.3466,-2.3608,-2.2977,-2.2549,-2.2333,-2.2588,-2.281,-2.3081,-2.4005,-2.4396,-2.4373,-2.3494,-2.2512,-2.1521,-2.0716,-2.0593,-2.0891,-2.137,-2.2099,-2.2886,-2.3347,-2.6382,-2.9539,-3.0178,-3.3525,-3.6768,-3.7274,-3.8478,-3.9037,-3.7382,-3.2672,-2.7242,-2.197,-1.5806,-1.0331,-0.67,-0.6749,-0.7473,-0.8096,-1.0786,-1.3328,-1.533,-1.6915,-1.8374,-1.9615,-2.0026,-2.1039,-2.3087,-2.4006,-2.4928,-2.6015,-2.7479,-2.8291,-2.8291,-2.7727,-2.7454,-2.75,-2.8676,-2.9314,-2.9586,-3.1937,-3.2767,-3.219,-3.1637,-3.111,-3.0583,-3.003,-3.0846,-3.2522,-3.1815,-3.3115,-3.5439,-3.4691,-3.4394,-3.4461,-3.5213,-3.5052,-3.4461,0.0,0.0,0.0,0.0,0.0,0.0,0.0,0.0,0.0,0.0,0.0,0.0,0.0,0.0,0.0,0.0,0.0,0.0,0.0,-0.7935,-0.7032,-0.6354,-0.742,-0.9633,-1.3149,-1.596,-1.8255,-2.0027,-1.8684,-1.7552,-1.6644,-1.6815,-1.6921,-1.7145,-2.0018,-2.1584,-2.2119,-2.2561,-2.2773,0.0,0.0,-2.2762,-2.2705,-2.2958,-2.3218,-2.3508,-2.4176,-2.3144,-2.1259,-1.9656,-1.8405,-1.7498,-1.7259,-1.6878,-1.674,-1.7784,-1.8824,-1.9888,-2.1146,-2.3532,-2.6021,-2.7428,-3.0249,-3.2836,-3.3486,-3.4701,-3.5003,-3.2574,-2.7613,-2.2351,-1.7768,-1.2123,-0.7293,-0.4517,-0.4864,-0.5914,-0.6845,-0.8841,-1.1465,-1.4533,-1.6012,-1.7509,-1.941,-2.0289,-2.138,-2.2733,-2.3786,-2.5016,-2.6537,-2.7494,-2.8018,-2.8298,-2.7269,-2.673,-2.6816,-2.8775,-2.9472,-2.9082,-3.1513,-3.2277,-3.1499,-3.1198,-3.0758,-3.0231,-2.993,-3.0633,-3.196,-3.1389,-3.2407,-3.4192,-3.3602,-3.338,-3.3518,-3.4476,-3.4461,-3.4163,0.0,0.0,0.0,0.0,0.0,0.0,0.0,0.0,0.0,0.0,0.0,0.0,0.0,0.0,0.0,0.0,0.0,0.0,0.0,0.0,-0.9403,-0.8736,-1.0224,-1.2567,-1.5785,-1.8452,-2.045,-2.1745,-1.9685,-1.8012,-1.6686,-1.6474,-1.6347,-1.6352,-1.9259,-2.0837,-2.1379,-2.201,-2.2346,-2.2439,-2.2764,-2.3084,-2.3342,0.0,-2.3833,-2.41,-2.3831,-2.1058,-1.7019,-1.4031,-1.2761,-1.2382,-1.251,-1.1956,-1.1639,-1.3525,-1.4576,-1.578,-1.8519,-1.9989,-2.1469,-2.4427,-2.6611,-2.8306,-2.94,-3.0456,-3.0417,-2.7684,-2.296,-1.8111,-1.4344,-0.9445,-0.5268,-0.318,-0.333,-0.4322,-0.6333,-0.6807,-0.8953,-1.4232,-1.4948,-1.6216,-1.9212,-2.0741,-2.1647,-2.1768,-2.2927,-2.4919,-2.7756,-2.7563,-2.7549,-2.791,-2.6618,-2.5788,-2.5742,-2.8121,-2.9172,-2.8712,-3.1077,-3.165,-3.062,-3.062,-3.0319,-2.9792,-2.9792,-3.0355,-3.118,-3.1031,-3.1609,-3.2593,-3.2464,-3.2393,-3.2522,-3.3602,-3.3945,-3.3959,0.0,0.0,0.0,0.0,0.0,0.0,0.0,0.0,0.0,0.0,-1.837,-1.7603,0.0,0.0,0.0,0.0,0.0,0.0,0.0,0.0,0.0,-1.2937,-1.4378,-1.6302,-1.8734,-2.1243,-2.2517,-2.2517,-2.1295,-2.0192,-1.9169,-1.8701,-1.8063,-1.7438,-1.983,-2.0503,-1.9953,-2.1201,-2.2231,-2.3033,-2.2989,-2.3369,-2.395,-2.4102,0.0,0.0,-2.1247,-1.8381,-1.5387,-1.2262,-1.1138,-1.0677,-0.8337,-0.7989,-0.8459,-0.8752,-1.0255,-1.2149,-1.3547,-1.6178,-1.8668,-1.9543,-2.2072,-2.437,-2.4158,-2.5093,-2.5248,-2.2553,-1.9095,-1.5378,-1.1546,-0.7298,-0.3752,-0.1919,-0.223,-0.3283,-0.4968,-0.6514,-0.9294,-1.4397,-1.5084,-1.6464,-1.9384,-1.978,-2.0659,-2.2758,-2.2887,-2.3815,-2.5754,-2.6845,-2.6982,-2.6203,-2.6326,-2.6191,-2.5742,-2.8121,-2.9421,-2.9363,-3.1321,-3.165,-3.062,-3.062,-3.0319,-2.9792,-2.9792,-3.0355,-3.1106,-3.0343,-3.1057,-3.2522,-3.1742,-3.1462,-3.1669,-3.338,-3.3518,-3.3101,0.0,0.0,0.0,0.0,0.0,0.0,0.0,-2.0194,-1.9736,-1.9875,-1.9243,-1.8812,-1.8894,-1.9198,-1.8909,0.0,0.0,0.0,0.0,0.0,0.0,0.0,0.0,0.0,-1.9932,-2.2085,-2.3265,-2.3386,0.0,-2.112,-1.9593,-1.9429,-1.8957,-1.8264,-1.9973,-2.0639,-2.0576,-2.1585,-2.2599,-2.3549,-2.3858,-2.4131,-2.4385,0.0,0.0,0.0,-1.8733,-1.527,-1.1192,-0.9639,-0.8667,-0.7709,-0.536,-0.448,-0.444,-0.4839,-0.6442,-0.8447,-1.0288,-1.285,-1.5378,-1.7158,-1.9377,-2.1069,-2.0579,-2.1062,-2.0841,-1.7831,-1.516,-1.2428,-0.9238,-0.6262,-0.3639,-0.1801,-0.1811,-0.2712,-0.4755,-0.57,-0.8336,-1.4251,-1.4917,-1.6035,-1.9017,-1.9219,-2.0224,-2.2714,-2.2568,-2.3468,-2.6096,-2.6871,-2.6753,-2.5691,-2.5937,-2.5967,-2.5742,-2.6578,-2.7891,-2.9523,-3.0169,-3.0343,-3.0181,-3.0181,-3.0043,-2.9792,-2.9792,-3.0075,-3.0419,-3.0011,-3.0355,-3.1132,-3.0633,-3.0482,-3.0696,-3.2607,-3.2961,-3.289,0.0,0.0,0.0,0.0,0.0,0.0,0.0,-2.04,-1.9761,-2.0147,-2.019,-2.0286,-2.0543,-2.0432,-2.0027,0.0,0.0,0.0,0.0,0.0,0.0,0.0,0.0,0.0,0.0,0.0,0.0,-2.3821,-2.2987,0.0,0.0,0.0,0.0,0.0,-2.0843,-2.1488,-2.1797,-2.2353,-2.3135,0.0,0.0,-2.4428,0.0,0.0,0.0,0.0,0.0,-1.2073,-0.7871,-0.7745,-0.6798,-0.5355,-0.3811,-0.2463,-0.1513,-0.1714,-0.3193,-0.5297,-0.7728,-1.0039,-1.2512,-1.5469,-1.74,-1.8394,-1.7844,-1.8019,-1.7482,-1.4522,-1.2231,-1.0167,-0.8281,-0.605,-0.4029,-0.25,-0.2116,-0.2819,-0.5042,-0.5298,-0.7644,-1.3966,-1.4629,-1.5637,-1.8597,-1.8811,-1.9611,-2.2012,-2.2303,-2.3674,-2.6618,-2.6704,-2.6369,-2.5752,-2.5664,-2.5722,-2.5722,-2.5179,-2.6246,-2.8873,-2.8868,-2.9197,-2.9792,-2.9792,-2.9792,-2.9792,-2.9792,-2.9792,-2.9792,-2.9792,-2.9792,-2.9792,-2.9792,-2.9792,-2.9998,-3.1683,-3.2464,-3.282,0.0,0.0,0.0,0.0,0.0,0.0,0.0,-2.1099,-2.0656,-2.1361,-2.1444,-2.1673,-2.2384,-2.2076,-2.1295,0.0,0.0,0.0,0.0,0.0,0.0,0.0,0.0,0.0,0.0,0.0,0.0,-2.3272,-2.2765,0.0,0.0,0.0,0.0,0.0,0.0,-2.3577,-2.295,-2.3141,0.0,0.0,0.0,0.0,0.0,0.0,0.0,0.0,0.0,-0.9129,-0.8442,-0.8025,-0.6837,-0.5412,-0.4718,-0.3435,-0.1734,0.032,-0.0982,-0.3544,-0.5504,-0.7981,-1.0734,-1.3637,-1.5533,-1.6439,-1.5576,-1.594,-1.5905,-1.4108,-1.1669,-0.9781,-0.9593,-0.6824,-0.4496,-0.4394,-0.3676,-0.3861,-0.6076,-0.6471,-0.8539,-1.3776,-1.4301,-1.544,-1.8577,-1.8444,-1.8746,-2.0279,-2.2333,-2.417,-2.5752,-2.583,-2.5791,-2.5742,-2.5717,-2.5739,-2.5739,-2.5178,-2.5503,-2.6794,-2.8256,-2.9197,-2.9792,-2.9792,-2.9792,-2.9792,-2.9792,-2.9792,-2.9792,-2.9792,-2.9792,-2.9792,-2.9792,-2.9792,-2.9934,-3.097,-3.1888,-3.2749,0.0,0.0,0.0,0.0,0.0,0.0,-2.2407,-2.1737,-2.1253,-2.1549,-2.1774,-2.2096,-2.26,-2.2682,-2.223,-2.1027,0.0,0.0,0.0,0.0,0.0,0.0,0.0,0.0,0.0,0.0,-2.1735,-2.2654,-2.1973,0.0,0.0,0.0,0.0,0.0,0.0,-2.3824,-2.3803,-2.3533,0.0,0.0,0.0,0.0,0.0,0.0,0.0,0.0,0.0,0.0,-0.8692,-0.8489,-0.7744,-0.6629,-0.5507,-0.4432,-0.3083,-0.0801,-0.1468,-0.3158,-0.4441,-0.7579,-1.0838,-1.2509,-1.4017,-1.4892,-1.4458,-1.4141,-1.3629,-1.2668,-1.09,-0.9468,-0.9221,-0.722,-0.5392,-0.4892,-0.4513,-0.4718,-0.6184,-0.6461,-0.8396,-1.3596,-1.405,-1.5159,-1.8302,-1.829,-1.88,-2.0861,-2.3473,-2.5004,-2.5352,-2.5217,-2.5207,-2.5207,-2.5026,-2.4678,-2.4169,-2.3933,-2.4737,-2.6491,-2.7573,-2.8718,-2.9792,-2.9792,-2.9792,-2.9792,-2.9792,-2.9792,-2.9792,-2.9792,-2.9792,-2.9792,-2.9792,-2.9792,-2.9934,-3.0833,-3.1462,-3.1888,0.0,0.0,0.0,0.0,0.0,-2.2349,-2.2643,-2.1966,-2.1495,-2.1711,-2.1972,-2.23,-2.2845,-2.3106,-2.2776,-2.1702,-2.1541,0.0,0.0,0.0,0.0,0.0,0.0,0.0,0.0,0.0,-2.0313,-2.1167,-2.0299,-2.0429,0.0,0.0,-2.2345,-2.3004,0.0,0.0,0.0,0.0,0.0,0.0,0.0,0.0,0.0,0.0,0.0,0.0,0.0,0.0,0.0,0.0,0.0,-0.7612,-0.637,-0.5226,-0.403,-0.2026,-0.2304,-0.3439,-0.4444,-0.7246,-1.0262,-1.1832,-1.2704,-1.3337,-1.3561,-1.298,-1.2234,-1.1687,-1.027,-0.9188,-0.9003,-0.7503,-0.6287,-0.6015,-0.5978,-0.6483,-0.7702,-0.7898,-0.953,-1.3837,-1.4155,-1.5138,-1.7972,-1.8347,-1.9125,-2.082,-2.3413,-2.4794,-2.4488,-2.4513,-2.4623,-2.474,-2.4453,-2.3987,-2.3385,-2.3204,-2.427,-2.6491,-2.722,-2.836,-2.9799,-2.9764,-2.9792,-2.9792,-2.9792,-2.9792,-2.9792,-2.9792,-2.9792,-2.9792,-2.9792,-2.9806,-2.9859,-3.0325,-3.049,-3.056,0.0,0.0,0.0,0.0,0.0,0.0,-2.2546,-2.1687,-2.1262,-2.1995,-2.2096,-2.2495,-2.358,-2.3399,-2.2847,-2.1983,-2.1645,0.0,0.0,0.0,0.0,0.0,0.0,0.0,0.0,0.0,-1.8222,-1.8545,-1.7483,-1.8166,-2.0401,-2.0026,-2.0727,-2.2308,0.0,0.0,0.0,0.0,0.0,0.0,0.0,0.0,0.0,0.0,0.0,0.0,0.0,0.0,0.0,0.0,0.0,0.0,0.0,-0.5845,-0.4125,-0.2607,-0.306,-0.428,-0.5467,-0.6627,-0.8263,-1.1414,-1.1784,-1.1635,-1.2699,-1.2651,-1.2232,-1.1553,-0.9995,-0.8935,-0.9251,-0.777,-0.6914,-0.8122,-0.8563,-0.9296,-1.1189,-1.1601,-1.2485,-1.4746,-1.4844,-1.5578,-1.7457,-1.8819,-1.95,-1.9272,-2.1615,-2.3,-2.2991,-2.3502,-2.3994,-2.4414,-2.4144,-2.4028,-2.4018,-2.3379,-2.4222,-2.6491,-2.722,-2.8397,-2.9764,-2.9799,-2.9792,-2.9792,-2.9792,-2.9792,-2.9792,-2.9792,-2.9792,-2.9792,-2.9792,-2.9821,-2.9731,-2.9101,-2.8851,-2.8799,0.0,0.0,0.0,0.0,0.0,0.0,0.0,-2.2234,-2.1972,-2.2226,-2.2412,-2.2635,-2.2986,-2.2667,-2.2235,-2.1673,-2.12,0.0,0.0,0.0,0.0,0.0,0.0,0.0,0.0,0.0,-1.7146,-1.7628,-1.6219,-1.6445,-1.8216,-1.8508,-1.9369,-2.0751,-2.0798,-2.0994,0.0,0.0,0.0,0.0,0.0,0.0,-0.9791,0.0,0.0,0.0,0.0,0.0,0.0,0.0,0.0,0.0,0.0,0.0,0.0,-0.4165,-0.3989,-0.3974,-0.4466,-0.5971,-0.7776,-0.891,-0.9569,-0.9982,-1.0063,-1.0685,-1.1016,-1.0629,-0.9796,-0.9205,-0.9286,-0.7774,-0.668,-0.7162,-0.807,-0.9078,-0.9978,-1.088,-1.2331,-1.4809,-1.6051,-1.6873,-1.7295,-1.9082,-2.0279,-2.0167,-2.2491,-2.3822,-2.3537,-2.3745,-2.3857,-2.3984,-2.3584,-2.3359,-2.3359,-2.3213,-2.4222,-2.6491,-2.722,-2.8409,-2.9764,-2.9799,-2.9792,-2.9792,-2.9792,-2.9566,-2.9239,-2.9628,-2.9566,-2.9239,-2.9641,-2.9821,-2.9744,-2.9592,-2.9187,-2.8708,0.0,0.0,0.0,0.0,0.0,0.0,0.0,-2.2203,-2.1998,-2.1998,-2.2286,-2.2443,-2.2392,-2.2211,-2.1789,-2.0995,-2.0107,0.0,0.0,0.0,0.0,0.0,0.0,0.0,0.0,-1.6318,-1.5858,-1.6127,-1.4963,-1.5211,-1.6833,-1.7414,-1.8358,-1.9622,-1.9669,-1.9677,0.0,0.0,0.0,0.0,0.0,0.0,-0.3391,0.0,0.0,0.0,0.0,0.0,0.0,0.0,0.0,0.0,0.0,0.0,0.0,0.0,-0.4549,-0.4235,-0.4483,-0.5662,-0.6883,-0.7483,-0.7912,-0.828,-0.8656,-0.9226,-0.9688,-0.9642,-0.9112,-0.8713,-0.8789,-0.7816,-0.7178,-0.7409,-0.8862,-1.0172,-1.0812,-1.1994,-1.3537,-1.5355,-1.6555,-1.7094,-1.6693,-1.9002,-2.0512,-2.0371,-2.2741,-2.4062,-2.3799,-2.3633,-2.3545,-2.3545,-2.3281,-2.3135,-2.3135,-2.3135,-2.3824,-2.5198,-2.6271,-2.7846,-2.9824,-2.9352,-2.9365,-2.9779,-2.9566,-2.9264,0.0,-2.9101,-2.895,-2.8649,-2.9013,-2.944,-2.9731,-2.9193,-2.853,-2.7886,0.0,0.0,0.0,0.0,0.0,0.0,0.0,-2.1691,-2.1467,-2.1467,-2.1795,-2.1973,-2.1849,-2.1905,-2.1405,-2.0079,0.0,0.0,0.0,0.0,0.0,0.0,0.0,0.0,-1.6417,-1.5244,-1.4606,-1.4524,-1.3821,-1.4419,-1.607,-1.6585,-1.7554,-1.8871,-1.8794,-1.841,-1.7583,-1.5277,-1.4226,-1.384,-1.0929,-0.6806,0.0,0.0,0.0,0.0,0.0,0.0,0.0,0.0,0.0,0.0,0.0,0.0,0.0,0.0,0.0,0.0,0.0,-0.5538,-0.5814,-0.6954,-0.6805,-0.6772,-0.818,-0.8398,0.0,-0.8856,-0.8398,-0.7927,-0.8094,-0.8066,-0.8201,-0.8636,-1.0554,-1.2263,-1.3111,-1.4498,-1.5651,-1.6179,-1.65,-1.6453,-1.5885,-1.8686,-2.0355,-2.0102,-2.2336,-2.374,-2.374,-2.3359,-2.3125,-2.3096,-2.3096,-2.3105,-2.3135,-2.3105,-2.3105,-2.3135,-2.4625,-2.6814,-2.945,-2.8509,-2.8688,-2.9677,-2.9101,-2.89,-2.8825,-2.8323,-2.8084,-2.8047,-2.8097,-2.8754,-2.9508,-2.8119,-2.7183,-2.6703,0.0,0.0,0.0,0.0,0.0,0.0,0.0,0.0,0.0,0.0,-2.118,-2.1234,-2.1228,-2.0591,-2.0059,0.0,0.0,0.0,0.0,0.0,0.0,0.0,0.0,0.0,-1.6386,-1.5547,-1.5351,-1.5794,-1.4304,-1.3992,-1.4857,-1.5559,-1.6539,-1.7638,-1.756,-1.6647,-1.5041,-1.3452,-1.2031,-1.0817,-0.9207,-0.6667,0.0,0.0,0.0,0.0,-0.6041,-0.7205,0.0,0.0,0.0,0.0,0.0,0.0,0.0,0.0,-0.7008,-0.6435,-0.6515,0.0,-0.5545,-0.6015,-0.6425,-0.68,0.0,-0.8578,-0.9603,-1.0056,-0.9567,-0.9086,-0.9135,-0.8846,-0.8585,-0.8679,-1.0904,-1.2762,-1.3158,-1.4829,-1.6032,-1.5945,-1.6192,-1.6233,-1.5865,-1.817,-1.9711,-1.962,-2.1913,-2.3291,-2.3291,-2.3193,-2.2988,-2.2676,-2.2656,-2.2812,-2.3135,-2.2822,-2.2822,-2.3135,-2.4062,-2.5196,-2.6506,-2.7557,-2.8267,-2.8481,-2.8771,-2.8687,-2.8285,-2.816,-2.7858,-2.7519,-2.7946,-2.8126,-2.8106,-2.7741,-2.7531,-2.7334,0.0,0.0,0.0,0.0,0.0,0.0,0.0,0.0,0.0,0.0,0.0,-2.0523,-2.008,-1.9774,0.0,0.0,0.0,0.0,0.0,0.0,0.0,0.0,0.0,-1.5173,-1.5802,-1.4769,-1.435,-1.469,-1.3736,-1.3556,-1.4164,-1.5598,-1.6711,-1.7471,-1.6797,-1.5382,-1.3388,-1.2077,-1.0871,-0.9733,-0.8327,0.0,0.0,0.0,0.0,0.0,-0.5564,-0.7162,0.0,-1.0103,-1.0288,-0.9786,0.0,0.0,0.0,0.0,-0.7942,-0.7632,-0.766,-0.6712,-0.5705,-0.5867,-0.6486,-0.7174,-0.7432,-0.8558,-0.9631,-0.9952,-0.9685,-0.9296,-0.8936,-0.9073,-0.9117,-0.8794,-1.0983,-1.3034,-1.4079,-1.5184,-1.5858,-1.5832,-1.5972,-1.6005,-1.5845,-1.8033,-1.9497,-1.9497,-2.1765,-2.3135,-2.3135,-2.2959,-2.2744,-2.2519,-2.2324,-2.2334,-2.2568,-2.2334,-2.224,-2.233,-2.2986,-2.4124,-2.548,-2.6086,-2.6988,-2.8078,-2.8176,-2.8009,-2.7708,-2.7457,-2.7168,-2.6929,-2.7231,-2.7264,-2.7119,-2.7119,-2.7119,-2.7119,0.0,0.0,0.0,0.0,0.0,0.0,0.0,0.0,0.0,0.0,0.0,0.0,0.0,0.0,0.0,0.0,0.0,0.0,0.0,0.0,0.0,0.0,0.0,-1.4154,-1.4759,-1.358,-1.2986,-1.3067,-1.3114,-1.3323,-1.38,-1.5974,-1.7155,-1.7496,-1.5967,-1.4074,-1.2049,-1.0751,-0.9833,-0.9114,-0.7707,0.0,0.0,0.0,0.0,0.0,0.0,0.0,0.0,-1.0465,-1.0773,-1.0571,-0.9995,0.0,0.0,0.0,0.0,0.0,-0.8783,-0.7724,-0.6673,-0.6525,-0.7061,-0.7722,-0.8134,-0.8876,-0.9474,-0.9718,-0.9625,-0.9401,-0.8869,-0.9428,-0.9897,-0.93,-1.1206,-1.3332,-1.5186,-1.5464,-1.5538,-1.5738,-1.5805,-1.5906,-1.6041,-1.8041,-1.9496,-1.9678,-2.1715,-2.2949,-2.2949,-2.2607,-2.2383,-2.2324,-2.1973,-2.1719,-2.1582,-2.1719,-2.1705,-2.1447,-2.1928,-2.3174,-2.5105,-2.4581,-2.5581,-2.7494,-2.7297,-2.7155,-2.7105,-2.6465,-2.6319,-2.6314,-2.6239,-2.6214,-2.6214,-2.6214,-2.6214,-2.6294,0.0,0.0,0.0,0.0,0.0,0.0,0.0,0.0,0.0,0.0,0.0,0.0,0.0,0.0,0.0,0.0,0.0,0.0,0.0,0.0,0.0,-1.4344,-1.337,-1.2981,-1.3311,-1.3286,-1.345,-1.39,-1.3948,-1.3839,-1.3688,-1.585,-1.6519,-1.5849,-1.3802,-1.197,-1.0303,-0.8653,-0.7521,-0.6742,-0.6599,0.0,0.0,0.0,0.0,0.0,0.0,0.0,0.0,-1.1066,-1.1586,-1.1674,-1.205,0.0,0.0,0.0,0.0,0.0,-0.973,-0.9706,-0.9614,-0.8923,-0.8512,-0.8591,-1.0041,-1.0627,-1.1094,-1.1738,-1.1274,-1.088,-1.1297,-1.147,-1.1383,-1.0823,-1.2075,-1.3701,-1.549,-1.5765,-1.5691,-1.5484,-1.5678,-1.6088,-1.6908,-1.8131,-1.939,-2.0456,-2.1485,-2.208,-2.208,-2.2021,-2.1816,-2.1445,-2.1367,-2.0977,-2.0225,-2.0967,-2.1514,-2.1783,-2.1514,-2.191,-2.2873,-2.4268,-2.4918,-2.4958,-2.6107,-2.6647,-2.6502,-2.5485,-2.5335,-2.5686,-2.5247,-2.5071,-2.5071,-2.5071,-2.5071,-2.5317,0.0,0.0,0.0,0.0,0.0,0.0,0.0,0.0,0.0,0.0,0.0,0.0,0.0,0.0,0.0,0.0,0.0,0.0,0.0,0.0,0.0,-1.3371,-1.257,-1.2435,-1.2966,-1.2679,-1.2585,-1.2833,-1.3117,-1.3228,-1.3296,-1.5143,-1.5543,-1.4639,-1.2872,-1.0905,-0.8901,-0.8291,-0.7826,-0.7488,0.0,0.0,0.0,0.0,0.0,0.0,0.0,0.0,0.0,0.0,-1.2081,-1.2444,-1.2266,0.0,0.0,0.0,0.0,0.0,-1.0679,-1.058,-1.0678,-1.1247,-1.105,-1.0932,-1.1717,-1.2319,-1.2817,-1.3008,-1.2653,-1.237,-1.2171,-1.2184,-1.2319,-1.259,-1.3495,-1.4462,-1.5438,-1.5464,-1.5371,-1.5391,-1.5378,-1.5548,-1.619,-1.7629,-1.8837,-1.9445,-2.0941,-2.1885,-2.1885,-2.1762,-2.1548,-2.1313,-2.1055,-2.0648,-2.0276,-2.019,-2.04,-2.082,-2.084,-2.1369,-2.2434,-2.398,-2.4757,-2.4917,-2.5667,-2.5837,-2.5536,-2.5034,-2.4958,-2.5159,-2.4921,-2.482,-2.482,-2.482,-2.5039,-2.5649,0.0,0.0,0.0,0.0,0.0,0.0,0.0,0.0,0.0,0.0,0.0,0.0,0.0,0.0,0.0,0.0,0.0,0.0,0.0,0.0,-1.5148,-1.2789,-1.2148,-1.1943,-1.2332,-1.1777,-1.1527,-1.1515,-1.1848,-1.2408,-1.3219,-1.4123,-1.4191,-1.3425,-1.1706,-0.9808,-0.785,-0.8041,-0.8197,-0.8323,0.0,0.0,0.0,0.0,0.0,0.0,0.0,0.0,0.0,0.0,0.0,0.0,0.0,0.0,0.0,-1.0762,-1.1115,-1.1427,-1.1323,-1.1416,-1.1834,-1.2929,-1.2858,-1.2567,-1.3039,-1.3815,-1.4261,-1.3864,-1.3905,-1.387,-1.2899,-1.2724,-1.2939,-1.3972,-1.4463,-1.4884,-1.5458,-1.5304,-1.5224,-1.5378,-1.5204,-1.5388,-1.6077,-1.7381,-1.8462,-1.8982,-2.0605,-2.1533,-2.1426,-2.1322,-2.1144,-2.0998,-2.0552,-2.0276,-2.0308,-1.9611,-1.9346,-1.9671,-2.0163,-2.0979,-2.2121,-2.3338,-2.4374,-2.523,-2.5252,-2.4996,-2.4619,-2.4481,-2.4506,-2.4619,-2.4481,-2.4431,-2.4418,-2.4608,-2.512,-2.6015,0.0,0.0,0.0,0.0,0.0,0.0,0.0,0.0,0.0,0.0,0.0,0.0,0.0,0.0,0.0,0.0,0.0,0.0,0.0,0.0,-1.4827,-1.3072,-1.2251,-1.1323,-1.0329,-1.0546,-1.0712,-1.0713,-1.0699,-1.1773,-1.37,-1.2796,-1.2218,-1.1858,-0.9437,-0.7947,-0.7195,-0.7345,-0.7349,-0.7478,-0.8103,0.0,0.0,0.0,0.0,0.0,0.0,0.0,0.0,0.0,0.0,0.0,0.0,0.0,-1.0705,-1.118,-1.2036,-1.263,-1.1438,-1.2652,-1.4122,-1.343,-1.2431,-1.2026,-1.3646,-1.4764,-1.5175,-1.4246,-1.4942,-1.5343,-1.4153,-1.3343,-1.3264,-1.4694,-1.4283,-1.4235,-1.5563,-1.5778,-1.5671,-1.5424,-1.5378,-1.6154,-1.7961,-1.7965,-1.868,-2.0857,-2.081,-2.0488,-2.0078,-2.043,-2.0422,-1.9869,-1.9541,-1.9407,-1.9374,-1.9072,-1.8916,-1.8947,-1.9521,-2.0104,-2.079,-2.1738,-2.314,-2.4822,-2.4318,-2.4092,-2.4017,-2.3477,-2.3577,-2.4004,-2.3464,-2.319,-2.3311,-2.4073,-2.4801,-2.5619,0.0,0.0,0.0,0.0,0.0,0.0,0.0,0.0,0.0,0.0,0.0,0.0,0.0,0.0,0.0,0.0,0.0,0.0,0.0,-1.6444,-1.5542,-1.3828,-1.2989,-1.2112,-1.1189,-1.0788,-1.0864,-1.1372,-1.1852,-1.2054,-1.1929,-1.1453,-1.0677,-0.9558,-0.8234,-0.7161,-0.646,-0.6637,-0.7654,-0.9211,-0.9493,-0.9606,0.0,0.0,0.0,0.0,0.0,0.0,0.0,0.0,-1.3751,-1.3846,-1.3993,-1.3484,-1.2813,-1.2521,-1.266,-1.3018,-1.3088,-1.2849,-1.2579,-1.2642,-1.2903,-1.346,-1.4402,-1.5712,-1.6507,-1.5828,-1.6477,-1.6632,-1.496,-1.4356,-1.443,-1.5093,-1.495,-1.4961,-1.5451,-1.5558,-1.5451,-1.5164,-1.4963,-1.5151,-1.5886,-1.664,-1.7616,-1.8672,-1.938,-1.9814,-1.9912,-1.9668,-1.9429,-1.9199,-1.8715,-1.8492,-1.8518,-1.836,-1.834,-1.8317,-1.8769,-1.9565,-2.0639,-2.1426,-2.2542,-2.3786,-2.404,-2.389,-2.3439,-2.3165,-2.3203,-2.3439,-2.3165,-2.3078,-2.3198,-2.4002,-2.4794,-2.5592,0.0,0.0,0.0,0.0,0.0,0.0,0.0,0.0,0.0,0.0,0.0,0.0,0.0,0.0,0.0,0.0,0.0,0.0,-1.6443,-1.6625,-1.6113,-1.4632,-1.3769,-1.2989,-1.2189,-1.1655,-1.1392,-1.1443,-1.0838,-1.0407,-1.0036,-0.9402,-0.871,-0.7975,-0.7142,-0.6519,-0.6108,-0.654,-0.7808,-0.9685,-1.0132,-1.0677,0.0,0.0,0.0,0.0,0.0,0.0,0.0,0.0,-1.4354,-1.4282,-1.4329,-1.4857,-1.5219,-1.4079,-1.3752,-1.4005,-1.5173,-1.4469,-1.3483,-1.3514,-1.411,-1.4978,-1.5749,-1.698,-1.7898,-1.7567,-1.7377,-1.681,-1.5266,-1.4736,-1.4669,-1.5057,-1.5197,-1.5257,-1.5257,-1.5257,-1.5117,-1.4736,-1.4509,-1.4394,-1.4614,-1.5476,-1.648,-1.7454,-1.8309,-1.9043,-1.9502,-1.8928,-1.8511,-1.835,-1.7842,-1.7562,-1.7607,-1.7521,-1.7445,-1.7445,-1.7959,-1.8751,-1.9786,-2.0697,-2.1617,-2.2604,-2.3454,-2.3601,-2.3078,-2.3078,-2.3078,-2.3078,-2.3078,-2.3078,-2.3245,-2.4279,-2.4951,-2.5619,0.0,0.0,0.0,0.0,0.0,0.0,0.0,0.0,0.0,0.0,0.0,0.0,0.0,0.0,0.0,0.0,0.0,0.0,-1.7182,-1.6934,-1.6385,-1.5351,-1.4591,-1.383,-1.3063,-1.2997,-1.2188,-1.0616,-0.7124,-0.6493,-0.8351,-0.6538,-0.6264,-0.7257,-0.6226,-0.5973,-0.6321,-0.7131,-0.7803,-0.8463,-0.9834,-1.115,-1.2239,0.0,0.0,0.0,0.0,0.0,0.0,0.0,-1.5102,-1.542,-1.5408,-1.6617,-1.7632,-1.5904,-1.5414,-1.5798,-1.7529,-1.8027,-1.7703,-1.652,-1.6105,-1.6297,-1.7705,-1.8679,-1.9245,-1.9468,-1.7565,-1.5745,-1.5116,-1.4242,-1.3841,-1.4422,-1.477,-1.4957,-1.4957,-1.4957,-1.4736,-1.4148,-1.4082,-1.4248,-1.4706,-1.4794,-1.5634,-1.7701,-1.7924,-1.8118,-1.8582,-1.8232,-1.7726,-1.7118,-1.687,-1.6665,-1.6665,-1.6417,-1.6316,-1.6325,-1.7084,-1.7603,-1.8015,-1.9178,-2.0281,-2.1451,-2.2579,-2.3078,-2.3078,-2.3078,-2.3078,-2.3078,-2.3078,-2.3078,-2.3305,-2.4838,-2.5398,-2.5618,0.0,0.0,0.0,0.0,0.0,0.0,0.0,0.0,0.0,0.0,0.0,0.0,0.0,0.0,0.0,0.0,0.0,0.0,-1.7668,-1.7128,-1.6721,-1.6619,-1.5409,-1.4707,-1.4762,-1.3492,-1.2032,-1.0414,-1.0227,-0.925,-0.7503,-0.7244,-0.6885,-0.6392,-0.6053,-0.5952,-0.5939,-0.7409,-0.8582,-0.9611,-1.115,-1.1931,-1.2376,0.0,0.0,0.0,0.0,0.0,0.0,0.0,0.0,0.0,-1.5422,-1.5737,-1.6045,-1.5562,-1.6286,-1.7338,-1.7884,-1.7967,-1.8209,-1.9111,-1.8958,-1.8753,-1.9502,-1.985,-2.015,-2.0642,-1.8972,-1.7191,-1.6433,-1.4991,-1.4082,-1.4456,-1.4596,-1.4583,-1.4376,-1.4349,-1.4128,-1.354,-1.3474,-1.3554,-1.368,-1.466,-1.5739,-1.6665,-1.7469,-1.8043,-1.8203,-1.7803,-1.7363,-1.685,-1.6724,-1.6665,-1.6665,-1.6646,-1.6573,-1.6583,-1.7168,-1.7785,-1.8444,-1.8489,-1.9587,-2.1389,-2.1735,-2.236,-2.3078,-2.3078,-2.3078,-2.3078,-2.3078,-2.3424,-2.406,-2.5063,-2.5728,-2.6336,0.0,0.0,0.0,0.0,0.0,0.0,0.0,0.0,0.0,0.0,0.0,0.0,0.0,0.0,0.0,0.0,0.0,0.0,0.0,-1.7821,-1.7598,-1.761,-1.6447,-1.5879,-1.5966,-1.3851,-1.2059,-1.0752,-1.0584,-0.9256,-0.6805,-0.6931,-0.6731,-0.6118,-0.6057,-0.5902,-0.5745,-0.6931,-0.8309,-0.9829,-1.0713,-1.1558,-1.2352,0.0,0.0,0.0,0.0,0.0,0.0,0.0,0.0,0.0,-1.6185,-1.5974,-1.5775,-1.7864,-1.9219,-1.9902,-1.9293,-1.8623,-1.8537,-2.0772,-2.107,-2.0851,-2.1414,-2.1425,-2.1193,-2.1056,-1.9236,-1.7392,-1.6483,-1.4837,-1.3654,-1.3948,-1.4001,-1.3941,-1.3761,-1.3741,-1.352,-1.2919,-1.2852,-1.2759,-1.2525,-1.3331,-1.4363,-1.5281,-1.6025,-1.674,-1.7434,-1.709,-1.6738,-1.6475,-1.6133,-1.6035,-1.6201,-1.6045,-1.6045,-1.6211,-1.665,-1.7163,-1.7646,-1.7896,-1.8973,-2.0757,-2.1351,-2.2091,-2.2811,-2.2811,-2.2937,-2.3053,-2.2899,-2.3398,-2.4368,-2.4846,-2.568,-2.6616,0.0,0.0,0.0,0.0,0.0,0.0,0.0,0.0,0.0,0.0,0.0,0.0,0.0,0.0,0.0,0.0,0.0,0.0,0.0,0.0,-1.8698,-1.8542,-1.7847,-1.7359,-1.7081,-1.4342,-1.2508,-1.1629,-0.9174,-0.7367,-0.6293,-0.6108,-0.6194,-0.6465,-0.6167,-0.5942,-0.5922,-0.6194,-0.7453,-0.9353,-0.9501,-1.0644,-1.2271,-1.2283,0.0,0.0,0.0,0.0,0.0,0.0,0.0,0.0,-1.7491,-1.6929,-1.6612,-2.1647,-2.3095,-2.2799,-2.1587,-1.9878,-1.9191,-2.2071,-2.2656,-2.2623,-2.32,-2.2889,-2.222,-2.1068,-1.8836,-1.6858,-1.5927,-1.4202,-1.2872,-1.3126,-1.3166,-1.3146,-1.3093,-1.3086,-1.2872,-1.2291,-1.2225,-1.2011,-1.1476,-1.156,-1.2362,-1.3958,-1.4213,-1.4997,-1.6544,-1.6289,-1.6086,-1.6007,-1.5195,-1.4951,-1.5293,-1.4951,-1.498,-1.5361,-1.584,-1.6125,-1.6215,-1.7392,-1.8589,-1.986,-2.1212,-2.1948,-2.2163,-2.2234,-2.2535,-2.2937,-2.2435,-2.3045,-2.4226,-2.4367,-2.5283,-2.6509,0.0,0.0,0.0,0.0,0.0,0.0,0.0,0.0,0.0,0.0,0.0,0.0,0.0,0.0,0.0,0.0,0.0,0.0,0.0,0.0,-1.9694,-2.0381,-1.9693,-1.9479,-1.9879,-1.675,-1.4283,-1.252,-0.9296,-0.7294,-0.6276,-0.6283,-0.6771,-0.7575,-0.6492,-0.6474,-0.7292,-0.8075,-0.8963,-0.998,-1.1206,-1.1918,-1.2283,-1.2278,-1.2544,0.0,0.0,0.0,0.0,0.0,0.0,0.0,-1.7904,-1.7752,-1.8176,-2.2006,-2.3128,-2.3215,-2.3792,-2.3159,-2.2794,-2.4378,-2.4521,-2.4054,-2.3471,-2.3232,-2.2851,-2.1916,-1.9417,-1.7233,-1.6771,-1.4705,-1.3053,-1.2872,-1.2923,-1.2685,-1.2225,-1.2158,-1.2024,-1.1657,-1.1617,-1.1563,-1.1436,-1.2691,-1.3685,-1.4082,-1.5339,-1.6186,-1.6221,-1.6174,-1.5811,-1.5078,-1.4883,-1.4668,-1.436,-1.4658,-1.4834,-1.4932,-1.5693,-1.6417,-1.6966,-1.7205,-1.8419,-2.0393,-2.0292,-2.0628,-2.12,-2.1562,-2.1732,-2.1832,-2.1707,-2.2541,-2.3765,-2.3771,-2.4633,-2.5901,0.0,0.0,0.0,0.0,0.0,0.0,0.0,0.0,0.0,0.0,0.0,0.0,0.0,0.0,0.0,0.0,0.0,0.0,0.0,0.0,-2.0772,-2.138,-2.0677,-2.0339,-2.0477,-1.7106,-1.4439,-1.2452,-0.9265,-0.7239,-0.6338,-0.6795,-0.7435,-0.8107,-0.7714,-0.8056,-0.8831,-0.8753,-0.9228,-1.0237,-1.267,-1.3667,-1.3803,-1.4695,-1.5018,-1.5437,-1.8322,0.0,0.0,0.0,0.0,0.0,0.0,0.0,-2.0768,-2.258,-2.2758,-2.2558,-2.369,-2.3536,-2.3387,-2.4504,-2.4664,-2.4425,-2.4093,-2.3649,-2.301,-2.1969,-1.9574,-1.7397,-1.6404,-1.4416,-1.282,-1.221,-1.2118,-1.2004,-1.1697,-1.1536,-1.1343,-1.1049,-1.0889,-1.0802,-1.0802,-1.1617,-1.2561,-1.349,-1.4232,-1.4986,-1.5703,-1.5399,-1.5008,-1.4715,-1.4351,-1.4258,-1.4443,-1.4463,-1.4678,-1.5088,-1.5537,-1.6471,-1.7772,-1.7975,-1.8902,-2.0205,-1.992,-2.0238,-2.0894,-2.1066,-2.1149,-2.1244,-2.147,-2.2406,-2.3612,-2.361,-2.4496,-2.5659,0.0,0.0,0.0,0.0,0.0,0.0,0.0,0.0,0.0,0.0,0.0,0.0,0.0,0.0,0.0,0.0,0.0,0.0,0.0,0.0,0.0,-2.277,-2.1714,-2.1014,-2.0769,-1.7162,-1.43,-1.2251,-0.9448,-0.7529,-0.6452,-0.7215,-0.7885,-0.8539,-0.8865,-0.9536,-1.0324,-0.9209,-0.9353,-1.0569,-1.373,-1.5161,-1.5551,-1.732,-1.8202,-1.8429,-1.8415,-2.0435,-2.3131,-2.3067,0.0,0.0,0.0,0.0,-2.3083,-2.3096,-2.2455,-2.1891,-2.2567,-2.2778,-2.31,-2.4134,-2.4442,-2.4602,-2.4684,-2.4128,-2.3171,-2.1856,-1.9663,-1.7368,-1.5625,-1.386,-1.2422,-1.1689,-1.1417,-1.1309,-1.1404,-1.1055,-1.0735,-1.0504,-1.0194,-1.004,-1.004,-1.0274,-1.1085,-1.2674,-1.2722,-1.345,-1.5149,-1.4557,-1.4257,-1.446,-1.3834,-1.3818,-1.4453,-1.417,-1.436,-1.5195,-1.5621,-1.6606,-1.813,-1.8846,-1.9392,-1.9806,-1.978,-2.0138,-2.0683,-2.0592,-2.0594,-2.0735,-2.1303,-2.2224,-2.3303,-2.3483,-2.4256,-2.527,0.0,0.0,0.0,0.0,0.0,0.0,0.0,0.0,0.0,0.0,0.0,0.0,0.0,0.0,0.0,0.0,0.0,0.0,-2.2165,0.0,0.0,-2.6416,-2.4366,-2.3344,-2.3538,-1.9113,-1.5544,-1.2886,-1.0357,-0.8343,-0.6831,-0.66,-0.7561,-0.9501,-0.8467,-0.9489,-1.1935,-1.0877,-1.0881,-1.1611,-1.3563,-1.4996,-1.6162,-1.7496,-1.8957,-2.0236,-2.0259,-2.1502,-2.3131,-2.3121,-2.2776,0.0,0.0,0.0,-2.3096,-2.3081,-2.2967,-2.266,-2.1524,-2.2797,-2.4526,-2.4814,-2.555,-2.5849,-2.4584,-2.4468,-2.4222,-2.2793,-2.0062,-1.7273,-1.5215,-1.3627,-1.255,-1.2174,-1.149,-1.1122,-1.1311,-1.0669,-1.0127,-0.984,-0.9766,-0.974,-0.974,-1.091,-1.176,-1.2035,-1.3186,-1.414,-1.467,-1.46,-1.4327,-1.3817,-1.3738,-1.3519,-1.3135,-1.3437,-1.3828,-1.4316,-1.6305,-1.7202,-1.7039,-1.8398,-1.9318,-1.982,-1.9783,-1.9834,-1.9924,-1.9924,-1.9949,-2.0051,-2.0869,-2.1502,-2.2041,-2.2609,-2.3289,-2.3954,0.0,0.0,0.0,0.0,0.0,0.0,0.0,0.0,0.0,0.0,0.0,0.0,0.0,0.0,0.0,-2.296,-2.3426,-2.387,-2.4092,-2.4607,-2.5428,-2.6616,-2.532,-2.4403,-2.3922,-2.0632,-1.7342,-1.4081,-1.1422,-0.9169,-0.748,-0.6788,-0.7297,-0.901,-0.9523,-1.0366,-1.1593,-1.2182,-1.2415,-1.2636,-1.4703,-1.5705,-1.6202,-1.823,-1.9452,-2.0402,-2.2498,-2.3219,-2.2984,-2.2394,-2.2623,-2.2857,-2.1317,0.0,0.0,0.0,-2.3119,-2.2955,-2.2284,-2.322,-2.4416,-2.4792,-2.519,-2.5319,-2.43,-2.4288,-2.4016,-2.2321,-2.1325,-1.9819,-1.6457,-1.4606,-1.317,-1.213,-1.1519,-1.1069,-1.0678,-1.0055,-0.9579,-0.9452,-0.9612,-0.9845,-1.0023,-1.095,-1.1789,-1.2393,-1.2824,-1.3442,-1.4282,-1.3899,-1.355,-1.3283,-1.3224,-1.3124,-1.2905,-1.3287,-1.3838,-1.4502,-1.6321,-1.7053,-1.683,-1.803,-1.8857,-1.9346,-1.9045,-1.9246,-1.9773,-1.9333,-1.9826,-2.0906,-2.1051,-2.1368,-2.1818,-2.2833,-2.3155,-2.3176,0.0,0.0,0.0,0.0,0.0,0.0,0.0,0.0,0.0,0.0,0.0,0.0,0.0,0.0,0.0,0.0,-2.4979,-2.5529,-2.5647,-2.5688,-2.6009,-2.6787,-2.6105,-2.5273,-2.441,-2.1939,-1.8877,-1.5242,-1.2652,-1.0307,-0.8188,-0.7392,-0.7409,-0.8229,-1.0018,-1.0982,-1.1259,-1.3035,-1.3613,-1.3464,-1.5765,-1.6431,-1.6374,-1.9017,-1.9953,-2.0228,-2.3606,-2.4359,-2.3684,-2.2339,-2.2627,-2.3369,-2.2887,-2.2742,0.0,0.0,0.0,-2.355,-2.3483,-2.3739,-2.4214,-2.4544,-2.4836,-2.4798,-2.418,-2.4217,-2.3854,-2.2211,-2.2518,-2.1994,-1.8405,-1.5967,-1.4028,-1.2634,-1.1859,-1.1226,-1.0664,-0.985,-0.9299,-0.909,-0.9344,-0.9709,-1.0111,-1.0759,-1.1606,-1.2538,-1.2516,-1.2861,-1.3761,-1.3244,-1.2881,-1.2881,-1.2881,-1.29,-1.289,-1.3195,-1.3861,-1.4854,-1.5966,-1.6584,-1.6678,-1.7569,-1.8229,-1.8618,-1.8415,-1.8742,-1.9359,-1.8808,-1.9791,-2.1689,-2.1281,-2.1489,-2.2076,-2.3022,-2.3176,-2.2951,0.0,0.0,0.0,0.0,0.0,0.0,0.0,0.0,0.0,0.0,0.0,0.0,-2.6208,-2.6372,-2.6224,-2.548,-2.5437,-2.5768,-2.6371,-2.6451,-2.705,-2.8399,-2.717,0.0,-2.6062,-2.3034,-1.9725,-1.6216,-1.4332,-1.1727,-0.8662,-0.8412,-0.8009,-0.7507,-0.9228,-1.0589,-1.1786,-1.3432,-1.3955,-1.3829,-1.6098,-1.6828,-1.6878,-1.9754,-2.0547,-2.0451,-2.2362,-2.4321,-2.5656,-2.369,-2.3704,-2.4195,-2.2184,-2.1786,-2.2463,0.0,0.0,0.0,-2.4434,-2.4367,-2.4368,-2.4187,-2.4827,-2.5219,-2.4404,-2.4518,-2.4404,-2.3228,-2.3075,-2.2521,-2.0591,-1.7562,-1.5068,-1.424,-1.2793,-1.1828,-1.1995,-1.0637,-0.9452,-0.8898,-0.8818,-0.912,-0.974,-1.0446,-1.1099,-1.1828,-1.2499,-1.292,-1.2969,-1.2939,-1.2881,-1.2881,-1.2881,-1.2891,-1.291,-1.2912,-1.3609,-1.491,-1.5553,-1.5995,-1.6362,-1.7094,-1.7521,-1.7713,-1.8389,-1.8557,-1.8292,-1.8254,-1.959,-2.1683,-2.1379,-2.1843,-2.2684,-2.271,-2.3071,-2.3475,0.0,0.0,0.0,0.0,0.0,0.0,0.0,0.0,0.0,0.0,0.0,0.0,0.0,-2.7705,-2.7625,-2.7394,-2.739,-2.7703,-2.8455,-2.8075,-2.8056,-2.8517,-2.8113,-2.7554,-2.6995,-2.4916,-2.2177,-1.8849,-1.5894,-1.3243,-1.1057,-0.9702,-0.895,-0.8774,-0.9566,-1.0167,-1.0568,-1.3582,-1.4577,-1.4453,-1.693,-1.7734,-1.7595,-1.9664,-2.0827,-2.1621,-2.3303,-2.4655,-2.5617,-2.519,-2.4819,-2.4488,-2.3715,-2.3122,-2.3107,-2.4964,-2.6058,-2.625,-2.4288,-2.4121,-2.4382,-2.3744,-2.3777,-2.39,-2.3554,-2.3598,-2.3586,-2.321,-2.3113,-2.2414,-2.0262,-1.8075,-1.6315,-1.5099,-1.3902,-1.2655,-1.1302,-1.1184,-1.086,-0.9872,-1.0614,-1.1146,-1.1091,-1.1733,-1.2255,-1.2501,-1.2764,-1.2881,-1.2881,-1.2881,-1.2881,-1.2881,-1.2881,-1.2881,-1.2881,-1.2903,-1.3159,-1.364,-1.5203,-1.6061,-1.6256,-1.6663,-1.6835,-1.6917,-1.7188,-1.7622,-1.8226,-1.8144,-1.9083,-2.0654,-2.0996,-2.1223,-2.1532,-2.236,-2.2278,-2.1889,0.0,0.0,0.0,0.0,0.0,0.0,0.0,0.0,0.0,-2.7811,0.0,0.0,0.0,0.0,-2.9414,-2.9463,-2.9281,-2.952,-3.0207,-2.9868,-2.9617,-2.9532,-2.9583,-2.9127,-2.8171,-2.6877,-2.4425,-2.0653,-1.7639,-1.4874,-1.2392,-1.073,-0.987,-0.9577,-1.0126,-1.0308,-1.046,-1.4007,-1.524,-1.5088,-1.7841,-1.9046,-1.9343,-2.125,-2.2521,-2.3523,-2.5241,-2.587,-2.5809,-2.6005,-2.572,-2.5231,-2.5149,-2.4459,-2.3806,-2.4704,-2.6061,-2.6821,-2.469,-2.4657,-2.4934,-2.4049,-2.3854,-2.3703,-2.2769,-2.285,-2.3012,-2.2786,-2.3179,-2.3048,-2.1158,-1.969,-1.8109,-1.6056,-1.4936,-1.366,-1.1916,-1.1995,-1.1921,-1.1013,-1.1531,-1.2009,-1.2007,-1.2264,-1.2575,-1.2891,-1.2881,-1.2881,-1.2881,-1.2881,-1.2881,-1.2881,-1.2881,-1.2881,-1.2881,-1.2897,-1.2918,-1.2909,-1.5104,-1.6221,-1.6305,-1.6455,-1.6522,-1.6522,-1.6522,-1.6948,-1.766,-1.797,-1.8872,-2.0034,-2.0468,-2.0812,-2.1126,-2.1784,-2.1739,-2.1515,0.0,0.0,0.0,0.0,0.0,0.0,0.0,0.0,-3.0705,-2.9291,0.0,0.0,0.0,0.0,0.0,-3.1686,-3.1089,-3.1011,-3.1646,-3.1646,-3.1646,-3.1646,-3.1648,-3.1015,-2.9681,-2.89,-2.6208,-2.1521,-1.9683,-1.6631,-1.2472,-1.1544,-1.0602,-0.9837,-1.0735,-1.1171,-1.1504,-1.4668,-1.5847,-1.5909,-1.8705,-2.0623,-2.208,-2.4493,-2.5521,-2.596,-2.7845,-2.772,-2.6611,-2.6232,-2.6342,-2.6481,-2.6208,-2.5466,-2.4612,-2.3956,-2.5085,-2.6393,0.0,0.0,0.0,-2.5048,-2.5203,-2.4963,-2.2233,-2.239,-2.293,-2.2189,-2.3367,-2.4302,-2.3517,-2.2376,-2.0459,-1.7119,-1.5908,-1.5003,-1.3976,-1.3185,-1.2587,-1.2209,-1.1551,-1.1436,-1.235,-1.1913,-1.1944,-1.2852,-1.2881,-1.2881,-1.2881,-1.2881,-1.2881,-1.2881,-1.2881,-1.2881,-1.2881,-1.2881,-1.2887,-1.2935,-1.5337,-1.6492,-1.6522,-1.6522,-1.6522,-1.6522,-1.6522,-1.6522,-1.662,-1.7673,-1.8865,-1.9973,-1.9918,-2.0621,-2.159,-2.0946,-2.1545,-2.2604,0.0,0.0,0.0,0.0,0.0,-3.2848,-3.2087,-3.1985,-3.185,0.0,0.0,0.0,-3.2798,-3.3292,-3.3723,-3.3955,-3.3681,-3.3583,-3.3809,-3.2917,-3.2271,-3.224,-3.2305,-3.1882,-3.099,-2.9822,-2.7539,-2.4062,-2.0545,-1.7603,-1.5225,-1.3723,-1.2816,-1.2655,-1.3828,-1.4207,-1.4141,-1.5049,-1.6384,-1.7989,-1.9857,-2.1452,-2.2802,-2.3798,-2.4793,-2.5701,-2.6265,-2.6821,-2.7291,-2.721,-2.721,-2.7261,-2.719,-2.6154,-2.5,-2.5461,-2.5526,-2.5363,-2.4986,0.0,0.0,0.0,0.0,0.0,-2.4755,-2.4231,-2.3947,-2.3098,-2.3302,-2.3466,-2.2943,-2.2539,-2.1523,-1.9186,-1.7795,-1.6479,-1.5109,-1.5176,-1.4868,-1.334,-1.3541,-1.3597,-1.3246,-1.3048,-1.2919,-1.291,-1.2881,-1.2881,-1.2881,-1.2881,-1.2881,-1.2881,-1.2881,-1.2881,-1.2881,-1.2881,-1.2887,-1.2935,-1.5337,-1.6492,-1.6522,-1.6522,-1.6522,-1.6522,-1.6522,-1.694,-1.7714,-1.8235,-1.8742,-1.9229,-1.9604,-2.0266,-2.0961,-2.0782,-2.1246,-2.2009,0.0,0.0,0.0,0.0,0.0,-3.4658,-3.4218,-3.4421,-3.4421,0.0,0.0,0.0,-3.4806,-3.5492,-3.5991,-3.6152,-3.6042,-3.5877,-3.5568,-3.482,-3.4164,-3.3818,-3.3815,-3.3233,-3.1983,-3.0938,-2.8793,-2.5553,-2.1717,-1.9049,-1.7406,-1.535,-1.4364,-1.4394,-1.5089,-1.5568,-1.579,-1.6184,-1.7295,-1.8977,-2.0586,-2.2464,-2.4443,-2.5289,-2.6329,-2.7291,-2.7238,-2.7569,-2.7949,-2.7715,-2.7625,-2.76,-2.7573,-2.668,-2.567,-2.5603,-2.5649,-2.5556,-2.5136,-2.6023,-2.6763,-2.5553,0.0,0.0,-2.5807,-2.5246,-2.4597,-2.3272,-2.3432,-2.3708,-2.3462,-2.3224,-2.2609,-2.1189,-1.9809,-1.8282,-1.6511,-1.6666,-1.6536,-1.5405,-1.5523,-1.5284,-1.4393,-1.4244,-1.3942,-1.3293,-1.3037,-1.2881,-1.2881,-1.2881,-1.2881,-1.2881,-1.2881,-1.2881,-1.2881,-1.2881,-1.2887,-1.2935,-1.5337,-1.6492,-1.6522,-1.6522,-1.6522,-1.6522,-1.6522,-1.7112,-1.8126,-1.8311,-1.8581,-1.8968,-1.9479,-1.9929,-2.0288,-2.0288,-2.0887,-2.1754,0.0,0.0,-3.5081,-3.6535,-3.6772,-3.6806,-3.6891,-3.7483,-3.7415,0.0,-3.6485,-3.6958,-3.7127,-3.7675,-3.808,-3.8159,-3.808,-3.7759,-3.7077,-3.6888,-3.648,-3.5774,-3.5673,-3.4751,-3.2868,-3.2095,-2.9997,-2.6585,-2.3358,-2.0968,-1.9342,-1.6878,-1.5764,-1.5747,-1.5887,-1.6383,-1.721,-1.8148,-1.908,-1.9976,-2.1457,-2.3832,-2.654,-2.8002,-2.8936,-2.9478,-2.9392,-2.9007,-2.8397,-2.7784,-2.7625,-2.7605,-2.7549,-2.7083,-2.6378,-2.527,-2.5674,-2.6378,-2.5854,-2.6016,-2.6479,-2.727,-2.7534,0.0,-2.5953,-2.5628,-2.5062,-2.3195,-2.3724,-2.4488,-2.4393,-2.3999,-2.3482,-2.2797,-2.1811,-2.0321,-1.8058,-1.7786,-1.7786,-1.772,-1.7335,-1.6743,-1.5774,-1.5395,-1.4749,-1.3678,-1.3165,-1.2881,-1.2881,-1.2881,-1.2881,-1.2881,-1.2881,-1.2881,-1.2881,-1.2881,-1.2887,-1.2935,-1.5337,-1.6492,-1.6522,-1.6522,-1.6522,-1.6522,-1.6484,-1.7053,-1.793,-1.8051,-1.8468,-1.9043,-1.953,-1.9705,-1.9698,-1.969,-2.0543,-2.1695,0.0,-3.4571,-3.569,-3.662,-3.6772,-3.6992,-3.7601,-3.7821,-3.7804,-3.7499,-3.7601,-3.8142,-3.9309,-3.9056,-3.9039,-3.9597,-3.914,-3.8734,-3.8582,-3.7466,-3.6718,-3.6552,-3.596,-3.514,-3.4218,-3.3026,-3.1241,-2.8847,-2.5697,-2.3387,-2.1958,-2.0145,-1.9295,-1.9318,-2.0101,-2.0538,-2.0791,-2.2054,-2.3593,-2.5222,-2.4614,-2.5715,-2.7912,-2.8854,-2.8998,-2.8704,-2.8711,-2.829,-2.7754,-2.767,-2.7625,-2.7595,-2.7595,-2.7154,-2.6632,-2.6916,-2.6437,-2.5884,-2.6288,-2.6359,-2.634,-2.6494,-2.7067,0.0,-2.6265,-2.6075,-2.5742,-2.4397,-2.4347,-2.4361,-2.3851,-2.3688,-2.3422,-2.2775,-2.2951,-2.2068,-1.891,-1.8943,-1.9064,-1.8502,-1.8307,-1.8031,-1.7466,-1.606,-1.4584,-1.3164,-1.2969,-1.2881,-1.2881,-1.2881,-1.2881,-1.2881,-1.2881,-1.2881,-1.2881,-1.2881,-1.2887,-1.2935,-1.5337,-1.6492,-1.6522,-1.6522,-1.6522,-1.6509,-1.6507,-1.6619,-1.6863,-1.773,-1.8691,-1.9566,-1.9639,-1.9693,-1.9685,-1.9707,-2.0543,-2.1764,-3.4941,-3.5667,-3.6508,-3.7524,-3.7483,-3.7719,-3.8819,-3.8988,-3.8988,-3.8988,-3.8988,-3.9276,-4.0003,-3.9749,-3.9681,-4.0054,-3.9749,-3.9377,-3.9005,-3.8306,-3.756,-3.6852,-3.64,-3.5702,-3.464,-3.3267,-3.2087,-3.1036,-2.76,-2.5763,-2.5355,-2.3379,-2.2274,-2.1923,-2.2783,-2.3128,-2.3246,-2.4695,-2.6406,-2.7953,-2.6822,-2.7433,-2.9155,-2.9569,-2.9191,-2.8511,-2.8511,-2.8091,-2.7675,-2.7959,-2.786,-2.766,-2.7944,-2.7618,-2.7081,-2.7081,-2.6841,-2.6587,-2.6587,-2.6782,-2.6942,-2.6942,-2.7285,0.0,0.0,-2.5927,-2.5741,-2.4923,-2.4391,-2.3966,-2.3671,-2.3879,-2.3778,-2.2843,-2.3273,-2.2898,-2.0534,-2.0767,-2.0919,-2.023,-2.0141,-1.9673,-1.8486,-1.7609,-1.592,-1.3126,-1.2878,-1.2899,-1.2891,-1.2881,-1.2881,-1.2881,-1.2881,-1.2881,-1.2881,-1.3522,-1.3789,-1.3828,-1.5633,-1.6515,-1.6522,-1.6522,-1.6489,-1.649,-1.6517,-1.7116,-1.8079,-1.8106,-1.8708,-1.969,-1.969,-1.9707,-1.9701,-1.9698,-2.0139,-2.0739,-3.6602,-3.6853,-3.7347,-3.8315,-3.8167,-3.8345,-3.9665,-3.9868,-3.9918,-4.0054,-4.034,-4.0425,-4.0341,-4.029,-4.0409,-4.0696,-4.0324,-3.9952,-3.9648,-3.9225,-3.8447,-3.7263,-3.7089,-3.6384,-3.5063,-3.3828,-3.3072,-3.2803,-2.9668,-2.8321,-2.8514,-2.6485,-2.5112,-2.4418,-2.5114,-2.5537,-2.5876,-2.7373,-2.8984,-3.0468,-2.9337,-2.9428,-3.0278,-3.0327,-2.9659,-2.8638,-2.8415,-2.7993,-2.766,-2.814,-2.7993,-2.7675,-2.8189,-2.7993,-2.7505,-2.6931,-2.7156,-2.7455,-2.6916,-2.7171,-2.7625,-2.776,-2.768,-2.734,0.0,0.0,0.0,-2.5228,-2.4507,-2.3909,-2.3655,-2.4059,-2.406,-2.3052,-2.3514,-2.3638,-2.2402,-2.2909,-2.3059,-2.2156,-2.1932,-2.1348,-1.9921,-1.9152,-1.7227,-1.3451,-1.2995,-1.2931,-1.3066,-1.3035,-1.3095,-1.3125,-1.3125,-1.3076,-1.292,-1.411,-1.4813,-1.5051,-1.6029,-1.6492,-1.6522,-1.6522,-1.6498,-1.6507,-1.6924,-1.8108,-1.9625,-1.8763,-1.8928,-1.969,-1.969,-1.969,-1.969,-1.969,-1.9693,-1.9729,-3.7699,-3.7767,-3.7804,-3.7967,-3.7953,-3.8176,-3.8988,-3.9106,-3.9343,-3.9986,-4.1114,-4.1673,-4.112,-4.1085,-4.161,-4.2929,-4.1221,-4.0595,-4.1847,-4.0087,-3.8918,-3.8751,-3.815,-3.7373,-3.6561,-3.5759,-3.4726,-3.351,-3.2466,-3.1374,-3.021,-2.9311,-2.8477,-2.7793,-2.8201,-2.9046,-3.0141,-3.1198,-3.2971,-3.5047,-3.3606,-3.236,-3.1336,-3.1511,-3.0647,-2.918,-2.8076,-2.766,-2.7625,-2.766,-2.766,-2.761,-2.766,-2.7675,-2.761,-2.7535,-2.7565,-2.761,-2.7535,-2.7565,-2.771,-2.8271,-2.8021,-2.7689,-2.8071,0.0,-2.7013,-2.5781,0.0,-2.5016,-2.3819,0.0,0.0,-2.3523,-2.4566,-2.5077,-2.4227,-2.5188,-2.5303,-2.3509,-2.2876,-2.2682,-2.2966,-1.9991,-1.6973,-1.4401,-1.3404,-1.3131,-1.359,-1.3626,-1.3717,-1.3941,-1.3941,-1.3613,-1.2906,-1.4111,-1.5226,-1.632,-1.641,-1.6492,-1.6522,-1.6522,-1.6498,-1.6615,-1.8491,-1.9469,-1.9692,-1.9568,-1.9573,-1.969,-1.969,-1.969,-1.969,-1.969,-1.9705,-1.9803,-3.7792,-3.8142,-3.8611,-3.8892,-3.8968,-3.9255,-3.9993,-4.0787,-4.1296,-4.1278,-4.1781,-4.2236,-4.2441,-4.21,-4.2439,-4.3961,-4.2811,-4.2081,-4.2297,-4.1034,-3.9902,-3.9025,-3.8687,-3.8212,-3.7455,-3.6322,-3.5611,-3.5459,-3.3888,-3.2829,-3.2177,-3.1424,-3.0695,-3.0009,-3.0416,-3.1215,-3.228,-3.2965,-3.4208,-3.5666,-3.4745,-3.3972,-3.3161,-3.1711,-3.0004,-2.8304,-2.776,-2.7625,-2.7625,-2.7625,-2.7625,-2.7625,-2.7625,-2.7625,-2.7625,-2.7625,-2.7625,-2.7675,-2.8042,-2.814,-2.8189,-2.8415,-2.829,-2.81,-2.8027,-2.7467,-2.6838,-2.6135,0.0,0.0,0.0,0.0,0.0,0.0,-2.4653,-2.5234,-2.4488,-2.5133,-2.5274,-2.4147,-2.3834,-2.3342,-2.2541,-2.0053,-1.7653,-1.5665,-1.454,-1.385,-1.3594,-1.3049,-1.3114,-1.3859,-1.4005,-1.3729,-1.2912,-1.4673,-1.5629,-1.5809,-1.6284,-1.651,-1.6522,-1.6522,-1.6498,-1.6615,-1.8749,-1.9686,-1.9692,-1.9685,-1.969,-1.969,-1.969,-1.969,-1.969,-1.969,-1.969,-1.9735,-3.8064,-3.8679,-3.9387,-3.9664,-3.9749,-4.0013,-4.0732,-4.1868,-4.2538,-4.2146,-4.2306,-4.2787,-4.3627,-4.3436,-4.3842,-4.5365,-4.4604,-4.372,-4.2951,-4.2033,-4.0832,-3.9396,-3.9278,-3.8975,-3.8199,-3.6936,-3.6484,-3.6793,-3.4955,-3.3956,-3.3684,-3.293,-3.2309,-3.1822,-3.2035,-3.2716,-3.3712,-3.4068,-3.487,-3.5862,-3.516,-3.4488,-3.3685,-3.1484,-2.9581,-2.8027,-2.771,-2.7625,-2.7625,-2.7625,-2.7625,-2.7625,-2.7625,-2.7625,-2.7625,-2.781,-2.786,-2.7993,-2.8591,-2.8732,-2.8732,-2.8732,-2.8606,-2.8367,-2.7959,-2.7334,-2.6782,-2.6464,-2.5717,0.0,0.0,0.0,-2.4447,-2.3915,0.0,-2.5279,-2.4886,-2.5304,-2.539,-2.4688,-2.4511,-2.3743,-2.2118,-2.0574,-1.8882,-1.7119,-1.5875,-1.4879,-1.4156,-1.2986,-1.2896,-1.4153,-1.4373,-1.4082,-1.3214,-1.5185,-1.5793,-1.5165,-1.6069,-1.6522,-1.6522,-1.6522,-1.6498,-1.6602,-1.8164,-1.9165,-1.9692,-1.9685,-1.969,-1.969,-1.969,-1.969,-1.969,-1.969,-1.969,-1.969,-3.8933,-3.9528,-3.9982,-3.9842,-3.9794,-4.0,-4.0618,-4.1332,-4.1912,-4.2077,-4.2708,-4.3511,-4.4478,-4.5179,-4.6194,-4.7682,-4.6481,-4.5314,-4.4553,-4.3132,-4.163,-4.0155,-4.0054,-3.9715,-3.8971,-3.8199,-3.7475,-3.6789,-3.5932,-3.5155,-3.4438,-3.3711,-3.3355,-3.3305,-3.3085,-3.3612,-3.4744,-3.4781,-3.5534,-3.6646,-3.5323,-3.3763,-3.2088,-3.0914,-3.0012,-2.918,-2.8042,-2.7625,-2.7625,-2.7625,-2.7625,-2.7625,-2.7625,-2.7625,-2.771,-2.8286,-2.8463,-2.8606,-2.9225,-2.9361,-2.9361,-2.9361,-2.8919,-2.8511,-2.8463,-2.7978,-2.7365,-2.6722,-2.6557,-2.6138,-2.4821,-2.4582,-2.4565,-2.439,-2.4952,0.0,0.0,-2.648,-2.6417,-2.5301,-2.4712,-2.3933,-2.2712,-2.1955,-2.0743,-1.8861,-1.7323,-1.621,-1.5745,-1.3977,-1.3714,-1.531,-1.5342,-1.4961,-1.4068,-1.5329,-1.5564,-1.4709,-1.5932,-1.6522,-1.6522,-1.6522,-1.6498,-1.6481,-1.6572,-1.7788,-1.9692,-1.9685,-1.969,-1.969,-1.969,-1.969,-1.969,-1.969,-1.969,-1.969,-4.0839,-4.1069,-4.1086,-4.0631,-4.119,-4.177,-4.1988,-4.2691,-4.3447,-4.4197,-4.4533,-4.5613,-4.7967,-4.8031,-4.8494,-4.9982,-4.9209,-4.8081,-4.6844,-4.5365,-4.3863,-4.2362,-4.2226,-4.1822,-4.1047,-4.0331,-3.9559,-3.8775,-3.7177,-3.5966,-3.5216,-3.4481,-3.3872,-3.3389,-3.363,-3.3803,-3.3915,-3.4697,-3.4798,-3.4476,-3.4573,-3.3783,-3.2459,-3.1542,-3.0226,-2.8828,-2.858,-2.8075,-2.7625,-2.7625,-2.7625,-2.7675,-2.8091,-2.8189,-2.8319,-2.8919,-2.9104,-2.9225,-2.9805,-2.9995,-2.9995,-2.9995,-2.9848,-2.9585,-2.918,-2.8542,-2.7921,-2.7334,-2.7146,-2.6557,-2.4912,-2.5244,-2.5326,-2.4081,-2.4958,-2.5783,0.0,-2.6072,-2.5938,-2.4968,-2.4256,-2.369,-2.3176,-2.2248,-2.1009,-1.9526,-1.8028,-1.6793,-1.5983,-1.3746,-1.3368,-1.5361,-1.5381,-1.5422,-1.5368,-1.6135,-1.6474,-1.6456,-1.6876,-1.7087,-1.7074,-1.6685,-1.6514,-1.6486,-1.6504,-1.7701,-1.9711,-1.9686,-1.969,-1.969,-1.969,-1.969,-1.969,-1.969,-1.969,-1.969,-4.1801,-4.1953,-4.1998,-4.1611,-4.257,-4.3412,-4.3412,-4.4183,-4.5106,-4.6018,-4.6065,-4.6923,-4.9411,-4.9525,-4.9746,-5.0706,-5.0634,-4.9678,-4.7637,-4.665,-4.5382,-4.3854,-4.3744,-4.3428,-4.2882,-4.1859,-4.0911,-4.0101,-3.835,-3.7192,-3.6693,-3.545,-3.4651,-3.4184,-3.4216,-3.3805,-3.3103,-3.4517,-3.4222,-3.2811,-3.3354,-3.3223,-3.2561,-3.155,-3.0208,-2.8858,-2.8553,-2.806,-2.7625,-2.7625,-2.776,-2.7993,-2.8367,-2.8654,-2.8919,-2.954,-2.9717,-2.9848,-3.0477,-3.0617,-3.0559,-3.0335,-3.0293,-3.0084,-2.9219,-2.8626,-2.8204,-2.785,-2.7513,-2.7013,-2.6134,-2.6106,-2.5963,-2.4989,-2.5481,-2.603,0.0,-2.6019,-2.5713,-2.4974,-2.4312,-2.3948,-2.4045,-2.3047,-2.1997,-2.1087,-1.9627,-1.8099,-1.6565,-1.4496,-1.395,-1.5371,-1.5381,-1.5595,-1.5954,-1.6534,-1.6968,-1.7327,-1.7409,-1.7458,-1.7433,-1.6798,-1.6731,-1.708,-1.7464,-1.84,-1.9711,-1.9723,-1.969,-1.969,-1.969,-1.969,-1.969,-1.969,-1.969,-1.969,-4.1877,-4.2379,-4.2792,-4.2774,-4.3794,-4.4618,-4.4655,-4.5581,-4.6557,-4.7336,-4.7141,-4.7496,-4.8951,-4.9763,-5.0181,-5.0164,-5.0828,-4.9967,-4.7178,-4.6988,-4.6309,-4.4781,-4.4698,-4.4548,-4.4387,-4.2893,-4.1694,-4.0872,-3.9458,-3.8756,-3.866,-3.6631,-3.5639,-3.5537,-3.4844,-3.3694,-3.2415,-3.4369,-3.393,-3.194,-3.2004,-3.226,-3.2394,-3.1095,-3.0173,-2.9391,-2.8147,-2.7705,-2.766,-2.7675,-2.8107,-2.8559,-2.8606,-2.8996,-2.9585,-3.0166,-3.0335,-3.0477,-3.1055,-3.119,-3.1055,-3.0477,-3.0335,-3.0028,-2.8716,-2.841,-2.8377,-2.8334,-2.7822,-2.7538,-2.8167,-2.7194,-2.6512,-2.6972,-2.6471,-2.6181,-2.664,-2.6332,-2.5868,-2.5346,-2.4808,-2.4672,-2.5128,-2.4236,-2.3572,-2.3483,-2.2085,-2.0112,-1.7548,-1.6297,-1.5591,-1.5476,-1.5439,-1.5595,-1.5976,-1.6609,-1.7065,-1.7448,-1.7567,-1.7662,-1.7612,-1.6835,-1.7106,-1.8153,-1.9228,-1.9686,-1.9692,-1.9685,-1.969,-1.969,-1.969,-1.969,-1.969,-1.969,-1.969,-1.9705,-4.3068,-4.367,-4.4035,-4.3609,-4.3335,-4.3409,-4.4028,-4.4528,-4.5304,-4.6601,-4.8235,-4.9639,-5.0549,-5.1315,-5.1488,-5.0977,-5.1109,-5.0641,-4.9367,-4.9214,-4.8767,-4.7783,-4.8161,-4.7842,-4.6618,-4.5633,-4.4471,-4.3077,-4.0687,-3.9225,-3.8677,-3.7177,-3.5876,-3.4793,-3.5165,-3.4184,-3.2415,-3.4015,-3.4346,-3.3836,-3.3838,-3.3584,-3.3157,-3.2299,-3.1259,-3.0085,-2.9632,-2.8969,-2.8398,-2.9124,-2.9293,-2.9225,-2.9717,-2.9935,-3.0208,-3.0797,-3.0975,-3.1015,-3.1151,-3.119,-3.1151,-3.1015,-3.0975,-3.0868,-3.0547,-3.0039,-2.9536,-2.9141,-2.9204,-2.885,-2.7169,-2.7634,-2.7778,-2.6323,-2.6308,-2.6538,-2.6691,-2.659,-2.6549,-2.6677,-2.6048,-2.5503,-2.5221,-2.4123,-2.3787,-2.4525,-2.3544,-2.1804,-1.9277,-1.8762,-1.7879,-1.6535,-1.6316,-1.6532,-1.717,-1.7863,-1.8558,-1.9169,-1.8647,-1.8307,-1.799,-1.6954,-1.7066,-1.8153,-1.9228,-1.9686,-1.9692,-1.9685,-1.969,-1.969,-1.969,-1.969,-1.969,-1.969,-1.9715,-1.9685,-4.3956,-4.4672,-4.5096,-4.4798,-4.4476,-4.4556,-4.5332,-4.5308,-4.5993,-4.811,-4.9079,-4.9862,-5.0612,-5.1617,-5.1863,-5.0832,-5.1298,-5.1162,-5.0128,-5.0312,-5.0258,-4.9849,-4.9775,-4.9141,-4.7834,-4.6708,-4.5224,-4.3377,-4.1576,-4.0367,-3.9774,-3.8288,-3.6864,-3.562,-3.5616,-3.4556,-3.2797,-3.3305,-3.3897,-3.4455,-3.3812,-3.3445,0.0,-3.2341,-3.1542,-3.0717,-3.0334,-2.964,-2.8997,-2.9772,-2.9899,-2.9848,-3.0208,-3.0477,-3.0757,-3.1095,-3.119,-3.119,-3.119,-3.119,-3.119,-3.119,-3.119,-3.1106,-3.0784,-3.0395,-3.0015,-2.9711,-2.9618,-2.9366,-2.8575,-2.8744,-2.8478,-2.6882,-2.6654,-2.681,-2.7148,-2.7182,-2.7278,-2.759,-2.6961,-2.652,-2.6525,-2.5105,-2.4808,-2.6294,-2.4879,-2.3068,-2.1098,-2.0078,-1.8707,-1.6793,-1.6816,-1.7038,-1.7313,-1.846,-1.9327,-1.9798,-1.9384,-1.909,-1.8836,-1.7247,-1.682,-1.7491,-1.9024,-1.9704,-1.9716,-1.9713,-1.969,-1.969,-1.969,-1.9936,-2.022,-1.9849,-1.9693,-1.9868,-4.4796,-4.5534,-4.6049,-4.5957,-4.6291,-4.6807,-4.7608,-4.7247,-4.7771,-5.0347,-4.9978,-4.9642,-5.0101,-5.1396,-5.1654,-5.0334,-5.1367,-5.1514,-5.026,-5.0838,-5.1178,-5.0985,-5.0362,-4.9458,-4.8343,-4.6838,-4.5022,-4.297,-4.2217,-4.1548,-4.0936,-3.9233,-3.7874,-3.6842,-3.6,-3.4793,-3.3372,-3.2814,-3.3254,-3.4259,-3.3217,-3.2838,-3.2788,-3.2024,-3.1544,-3.1225,-3.0613,-3.0038,-2.9572,-2.9992,-3.0277,-3.0435,-3.0435,-3.0797,-3.119,-3.119,-3.119,-3.119,-3.119,-3.119,-3.119,-3.119,-3.119,-3.1004,-3.0277,-3.0108,-3.0074,-2.9989,-2.9448,-2.9414,-3.0656,-2.9844,-2.8777,-2.8051,-2.7435,-2.7232,-2.7875,-2.7977,-2.8087,-2.8345,-2.7805,0.0,-2.834,-2.6727,-2.6373,-2.8086,-2.6241,-2.4447,-2.3165,-2.1134,-1.8979,-1.6813,-1.7288,-1.737,-1.7093,-1.8701,-1.9612,-1.9798,-1.98,-1.9801,-1.974,-1.7517,-1.6638,-1.7034,-1.8865,-1.9708,-1.969,-1.969,-1.969,-1.969,-1.9846,-2.0295,-2.088,-2.0277,-2.0097,-2.054,-4.6039,-4.659,-4.6725,-4.6219,-4.7168,-4.8269,-4.9205,-4.9365,-4.9479,-4.9873,-5.1405,-5.2114,-5.1029,-5.1675,-5.1861,-5.0993,-5.1141,-5.1174,-5.0927,-5.1547,-5.1635,-5.0967,-5.1358,-5.0574,-4.8361,-4.7388,-4.6085,-4.4343,-4.2961,-4.1487,-3.9828,-3.8145,-3.6814,-3.5853,-3.5673,-3.4793,-3.344,-3.3914,-3.3914,-3.3694,-3.4644,-3.433,-3.327,-3.3134,-3.2286,-3.1204,-3.1083,-3.0658,-3.0225,-3.0807,-3.1009,-3.1055,-3.1055,-3.1095,-3.119,-3.119,-3.119,-3.119,-3.119,-3.119,-3.119,-3.119,-3.119,-3.1004,-3.0277,-3.0108,-2.9939,-2.9313,-2.907,-2.9093,-2.9332,-2.9187,-2.896,-2.8824,-2.8665,-2.8619,-2.8755,-2.8772,-2.8955,-2.9395,-2.8975,-2.8895,-2.9395,-2.8638,-2.813,-2.8193,-2.7961,-2.7374,-2.6444,-2.3555,-2.0707,-1.8171,-1.8158,-1.8221,-1.8147,-1.9198,-1.9795,-1.9798,-1.9799,-1.9806,-1.9707,-1.7534,-1.7483,-1.917,-1.9534,-1.9708,-1.969,-1.969,-1.969,-1.9786,-2.0497,-2.0745,-2.0857,-2.155,-2.2229,-2.3095,-4.7047,-4.7457,-4.7624,-4.7332,-4.859,-4.9768,-5.0253,-5.1058,-5.1475,-5.0973,-5.1287,-5.1212,-5.044,-5.1419,-5.1458,-4.9978,-5.0891,-5.1371,-5.1023,-5.1661,-5.1883,-5.1504,-5.1028,-4.9793,-4.7737,-4.6893,-4.5535,-4.3664,-4.291,-4.1617,-3.9817,-3.7981,-3.6825,-3.6344,-3.5419,-3.4861,-3.4523,-3.41,-3.4167,-3.459,-3.4912,-3.4549,-3.3778,-3.3491,-3.2476,-3.119,-3.119,-3.1015,-3.0797,-3.1095,-3.119,-3.119,-3.119,-3.119,-3.119,-3.119,-3.119,-3.119,-3.119,-3.119,-3.119,-3.119,-3.0908,-3.0518,-3.0176,-2.9803,-2.9414,-2.9059,-2.9011,-2.9107,-2.9479,-2.958,-2.9547,-2.9555,-2.9242,-2.911,-2.9516,-2.9567,-2.9803,-3.0408,-2.9833,-2.9664,-3.0425,-2.9693,-2.9034,-2.8665,-2.876,-2.8095,-2.6372,-2.4567,-2.2167,-1.9101,-1.836,-1.7634,-1.6838,-1.9389,-2.1038,-2.1758,-2.0437,-1.9824,-1.9763,-1.8636,-1.8727,-1.9696,-1.9708,-1.97,-1.972,-2.0079,-2.0228,-2.0273,-2.0795,-2.0946,-2.1024,-2.2288,-2.3437,-2.4483,-4.8277,-4.859,-4.8863,-4.8937,-5.017,-5.1143,-5.1059,-5.2289,-5.2962,-5.2328,-5.1158,-5.0307,-5.0204,-5.1114,-5.1067,-4.9413,-5.0836,-5.1654,-5.1127,-5.1658,-5.1853,-5.1606,-5.0207,-4.8622,-4.6893,-4.6067,-4.4636,-4.2603,-4.2776,-4.189,-3.9947,-3.8374,-3.747,-3.7047,-3.5856,-3.5318,-3.5273,-3.4499,-3.4653,-3.5334,-3.5026,-3.4542,-3.3973,-3.3567,-3.2476,-3.119,-3.119,-3.119,-3.119,-3.119,-3.119,-3.119,-3.119,-3.119,-3.119,-3.119,-3.119,-3.119,-3.119,-3.119,-3.1157,-3.1004,-3.0467,-2.9929,-2.9668,-2.9161,-2.8687,-2.8518,-2.8625,-2.8968,-2.9729,-3.0,-3.0133,-3.0294,-2.9837,-2.9668,-3.026,-3.0345,-3.048,-3.0852,-3.0352,-3.0082,-3.0217,-3.0099,-2.9644,-2.8805,-2.8876,-2.8062,-2.5947,-2.4921,-2.3036,-2.0122,-1.8765,-1.7524,-1.6327,-1.9977,-2.2148,-2.2769,-2.1292,-2.0588,-2.0605,-2.057,-2.0212,-1.971,-1.9716,-1.9803,-2.001,-2.0498,-2.0858,-2.1099,-2.138,-2.1575,-2.187,-2.3211,-2.4435,-2.5399,-5.0212,-5.0544,-5.0694,-5.1034,-5.1841,-5.2326,-5.193,-5.2637,-5.3188,-5.3072,-5.2346,-5.1815,-5.1775,-5.1256,-5.0934,-5.1057,-5.1264,-5.1491,-5.1773,-5.1869,-5.1434,-5.0335,-4.9443,-4.8044,-4.6049,-4.5223,-4.4011,-4.2341,-4.3068,-4.2103,-3.9557,-3.9478,-3.8607,-3.7143,-3.776,-3.6646,-3.4431,-3.6106,-3.5983,-3.4684,-3.5778,-3.5128,-3.3457,-3.3423,-3.2476,-3.119,-3.119,-3.119,-3.119,-3.119,-3.119,-3.119,-3.119,-3.119,-3.119,-3.119,-3.119,-3.119,-3.119,-3.119,-3.1038,-3.0378,-2.9956,-2.9451,-2.8298,-2.7941,-2.774,-2.7046,-2.7437,-2.8152,-2.8979,-2.9641,-3.0302,-3.097,-3.1038,-3.1004,-3.1089,-3.1089,-3.0762,-2.9964,-3.056,-3.0015,-2.7391,-2.9505,-3.0192,-2.806,-2.8156,-2.7981,-2.7233,-2.4822,-2.2814,-2.1555,-2.0258,-1.9518,-1.9415,-2.1774,-2.1996,-2.0155,-2.226,-2.3222,-2.3216,-2.3259,-2.196,-1.968,-1.9698,-2.0161,-2.0858,-2.0737,-2.1326,-2.2291,-2.2918,-2.3481,-2.4026,-2.5099,-2.5659,-2.5977,-5.1744,-5.1679,-5.1488,-5.142,-5.2087,-5.2437,-5.2063,-5.2265,-5.2485,-5.2459,-5.2637,-5.243,-5.1658,-5.138,-5.0895,-4.9915,-5.023,-5.0474,-5.053,-5.0707,-5.0496,-4.9806,-4.8532,-4.7205,-4.592,-4.5112,-4.4158,-4.302,-4.3322,-4.2776,-4.1393,-4.0735,-3.9682,-3.839,-3.7385,-3.6602,-3.6043,-3.6337,-3.6327,-3.6115,-3.6116,-3.5343,-3.4196,-3.3706,-3.2871,-3.195,-3.1677,-3.1408,-3.1175,-3.1184,-3.119,-3.119,-3.119,-3.119,-3.119,-3.119,-3.119,-3.1106,-3.0666,-3.0535,-3.0421,-2.9983,-2.9204,-2.8456,-2.8132,-2.7554,-2.7063,-2.6759,-2.7301,-2.7894,-2.8213,-2.9299,-3.0213,-3.0497,-3.0903,-3.119,-3.119,-3.0818,-3.0455,-3.0272,-2.9612,-2.8963,-2.8425,-2.9287,-2.9631,-2.8988,-2.9614,-2.9191,-2.7361,-2.5849,-2.4344,-2.2782,-2.3029,-2.3163,-2.314,-2.3339,-2.3417,-2.3247,-2.2712,-2.2853,-2.3596,-2.3603,-2.2746,-2.1237,-2.1237,-2.1545,-2.2014,-2.1771,-2.1911,-2.2486,-2.3912,-2.4132,-2.3813,-2.5631,-2.6352,-2.6469,-5.2203,-5.1991,-5.1763,-5.1581,-5.2053,-5.23,-5.1837,-5.1872,-5.1987,-5.1968,-5.2454,-5.2327,-5.1076,-5.0983,-5.0455,-4.9202,-4.9509,-4.9771,-4.974,-4.9973,-4.9828,-4.9249,-4.7861,-4.6611,-4.5571,-4.4764,-4.3956,-4.3149,-4.3164,-4.2758,-4.1947,-4.1105,-4.0148,-3.9192,-3.7757,-3.722,-3.7308,-3.6952,-3.6952,-3.7157,-3.6415,-3.5616,-3.4712,-3.3916,-3.3138,-3.2451,-3.2127,-3.1777,-3.1426,-3.1281,-3.13,-3.144,-3.1286,-3.119,-3.119,-3.119,-3.119,-3.1038,-3.0311,-2.9833,-2.9462,-2.9219,-2.8285,-2.7538,-2.7725,-2.7216,-2.6691,-2.6691,-2.7114,-2.7554,-2.7739,-2.8704,-2.9583,-3.004,-3.0548,-3.0954,-3.1157,-3.0565,-3.017,-3.0328,-2.9153,-2.8454,-2.8665,-2.8725,-2.8858,-2.9118,-3.0212,-2.9932,-2.7772,-2.6954,-2.5708,-2.3944,-2.4896,-2.5586,-2.6045,-2.5252,-2.4881,-2.4988,-2.3159,-2.2743,-2.3595,-2.358,-2.3279,-2.2652,-2.2284,-2.2305,-2.2535,-2.2258,-2.2516,-2.3295,-2.4649,-2.4814,-2.4444,-2.6077,-2.6689,-2.6691,-5.1233,-5.1313,-5.1459,-5.1922,-5.1987,-5.1865,-5.1393,-5.1659,-5.1882,-5.1903,-5.1918,-5.1466,-5.025,-4.9765,-4.9522,-4.949,-4.9506,-4.9664,-5.0062,-5.0087,-4.9562,-4.8362,-4.7531,-4.636,-4.4745,-4.392,-4.3112,-4.2304,-4.2301,-4.1593,-4.0224,-4.0215,-3.9806,-3.9117,-3.963,-3.9067,-3.7739,-3.8405,-3.8083,-3.7195,-3.6841,-3.5914,-3.4712,-3.3916,-3.3138,-3.2484,-3.2484,-3.2309,-3.1998,-3.141,-3.1597,-3.2014,-3.1402,-3.119,-3.119,-3.119,-3.119,-3.1038,-3.0311,-2.919,-2.8165,-2.787,-2.7244,-2.6704,-2.6725,-2.6708,-2.6691,-2.6691,-2.6708,-2.6945,-2.7689,-2.7806,-2.8313,-2.9854,-3.0125,-3.0378,-3.1089,-3.0565,-3.0002,-2.9724,-2.9673,-2.8912,-2.6937,-2.7648,-2.8102,-2.7857,-2.9262,-2.9705,-2.8705,-2.7787,-2.6563,-2.5003,-2.5261,-2.6078,-2.7578,-2.7544,-2.6234,-2.3604,-2.3607,-2.361,-2.3595,-2.358,-2.3584,-2.3508,-2.225,-2.1943,-2.2285,-2.1886,-2.3054,-2.517,-2.5187,-2.5808,-2.6657,-2.6691,-2.6691,-2.6691,-5.2579,-5.2612,-5.236,-5.1654,-5.2011,-5.2077,-5.1055,-5.1009,-5.107,-5.1083,-5.034,-4.9625,-4.9258,-5.0184,-5.0597,-4.9957,-5.0144,-4.989,-4.8861,-4.9048,-4.8567,-4.7068,-4.6214,-4.5443,-4.4709,-4.3901,-4.3369,-4.3112,-4.2558,-4.1595,-4.0245,-4.0078,-3.9582,-3.8844,-3.8993,-3.8829,-3.8405,-3.859,-3.8515,-3.8125,-3.6924,-3.6182,-3.5659,-3.428,-3.359,-3.3343,-3.3075,-3.2845,-3.2644,-3.2241,-3.209,-3.2039,-3.1699,-3.1411,-3.119,-3.119,-3.119,-3.092,-2.9685,-2.9036,-2.8477,-2.7316,-2.6877,-2.6708,-2.6708,-2.6691,-2.6691,-2.6691,-2.6691,-2.6776,-2.7012,-2.7469,-2.8163,-2.9178,-2.9997,-3.059,-3.0741,-3.0193,-2.9627,-2.9271,-2.8733,-2.8284,-2.7878,-2.8384,-2.8548,-2.8101,-2.9799,-3.048,-2.9648,-2.859,-2.7319,-2.5819,-2.6054,-2.6439,-2.687,-2.6417,-2.599,-2.5438,-2.4177,-2.3599,-2.3595,-2.3998,-2.4158,-2.4128,-2.3873,-2.3803,-2.395,-2.4042,-2.4519,-2.5255,-2.5944,-2.6404,-2.6691,-2.6691,-2.6691,-2.6691,-5.226,-5.2137,-5.179,-5.0983,-5.1288,-5.1402,-5.0609,-5.0591,-5.0565,-5.0249,-4.9524,-4.8913,-4.857,-4.9549,-4.9935,-4.9182,-4.9654,-4.939,-4.8032,-4.8156,-4.765,-4.6255,-4.5683,-4.5065,-4.425,-4.3754,-4.3332,-4.3039,-4.1919,-4.0832,-3.9693,-3.9515,-3.9184,-3.8707,-3.8707,-3.8524,-3.8248,-3.8248,-3.8065,-3.7679,-3.6358,-3.5807,-3.5661,-3.4302,-3.3807,-3.378,-3.3522,-3.3382,-3.3223,-3.2849,-3.262,-3.2471,-3.2318,-3.1984,-3.162,-3.1291,-3.1004,-3.0531,-2.9313,-2.8772,-2.8247,-2.6996,-2.6691,-2.6691,-2.6691,-2.6691,-2.6691,-2.6691,-2.6691,-2.6758,-2.6906,-2.7554,-2.8357,-2.9283,-3.0039,-3.0573,-3.0836,-2.9881,-2.9171,-2.926,-2.8476,-2.8198,-2.8819,-2.91,-2.8928,-2.8089,-2.9748,-3.0375,-2.9344,-2.9205,-2.8403,-2.6692,-2.6862,-2.6941,-2.693,-2.6771,-2.6453,-2.6042,-2.4667,-2.4024,-2.404,-2.5061,-2.5289,-2.4918,-2.5305,-2.5253,-2.4933,-2.5533,-2.5766,-2.5824,-2.6455,-2.6691,-2.6759,-2.7335,-2.7199,-2.6708,-5.0683,-5.0352,-5.0076,-5.0135,-5.0139,-5.0114,-5.0059,-5.0366,-5.0298,-4.9433,-4.926,-4.8933,-4.812,-4.8029,-4.7834,-4.741,-4.8217,-4.8394,-4.7522,-4.7461,-4.6939,-4.5757,-4.5738,-4.5019,-4.3532,-4.3442,-4.2983,-4.2121,-4.0639,-3.9502,-3.8707,-3.8707,-3.867,-3.8615,-3.8615,-3.8175,-3.7434,-3.7434,-3.6964,-3.6211,-3.5367,-3.499,-3.4899,-3.4119,-3.3807,-3.3807,-3.3807,-3.3807,-3.3716,-3.3205,-3.3153,-3.322,-3.3048,-3.2796,-3.2366,-3.1456,-3.073,-2.9997,-2.9219,-2.8455,-2.7691,-2.6978,-2.6758,-2.6725,-2.6691,-2.6691,-2.6691,-2.6691,-2.6691,-2.6825,-2.731,-2.7941,-2.8812,-3.0013,-3.0194,-3.0406,-3.1083,-2.9691,-2.8845,-2.9575,-2.8898,-2.873,-2.9623,-2.9724,-2.9272,-2.811,-2.9381,-2.9626,-2.8372,-2.974,-2.9669,-2.7704,-2.7692,-2.771,-2.771,-2.8179,-2.7456,-2.5589,-2.5053,-2.4801,-2.4873,-2.6583,-2.6821,-2.5895,-2.6444,-2.6178,-2.5373,-2.6303,-2.6686,-2.6691,-2.6691,-2.6708,-2.686,-2.8304,-2.7998,-2.6826,-5.0567,-5.0085,-4.9775,-5.0429,-5.0563,-5.0331,-4.9661,-4.9644,-4.9394,-4.8529,-4.7856,-4.7413,-4.7219,-4.7181,-4.6876,-4.611,-4.7413,-4.793,-4.7108,-4.7031,-4.6407,-4.4952,-4.4889,-4.4458,-4.3513,-4.2889,-4.1893,-4.0454,-4.0097,-3.9496,-3.8707,-3.8707,-3.8377,-3.7771,-3.7771,-3.7331,-3.6578,-3.6578,-3.6468,-3.6211,-3.5367,-3.499,-3.4899,-3.4119,-3.3807,-3.3807,-3.3807,-3.3807,-3.3788,-3.3643,-3.3616,-3.3597,-3.3256,-3.3099,-3.2796,-3.1628,-3.1129,-3.0742,-2.9376,-2.8868,-2.8553,-2.7812,-2.7396,-2.7083,-2.6791,-2.6691,-2.6691,-2.6691,-2.6691,-2.7028,-2.8034,-2.7872,-2.8154,-2.9907,-2.9951,-2.9799,-2.9958,-3.0181,-3.0018,-2.9255,-2.9726,-3.0088,-3.0006,-3.0002,-3.0104,-3.0378,-3.0734,-3.0813,-3.0494,-3.0915,-3.0498,-2.9003,-2.8963,-2.8996,-2.8996,-2.8028,-2.6794,-2.528,-2.5719,-2.5911,-2.5967,-2.6792,-2.7334,-2.7564,-2.6961,-2.6573,-2.6362,-2.6588,-2.6691,-2.6691,-2.6691,-2.6691,-2.6721,-2.711,-2.7771,-2.8279,-5.0529,-5.0317,-5.0144,-5.0606,-5.0356,-4.9952,-4.9471,-4.9067,-4.8509,-4.7663,-4.7164,-4.6741,-4.6355,-4.6315,-4.6123,-4.5624,-4.6795,-4.7197,-4.6371,-4.6315,-4.58,-4.465,-4.458,-4.4252,-4.3513,-4.3073,-4.2044,-4.0441,-3.9711,-3.9129,-3.8707,-3.8707,-3.8267,-3.7507,-3.7507,-3.6817,-3.5716,-3.5716,-3.5495,-3.511,-3.4651,-3.4468,-3.4412,-3.3972,-3.3807,-3.3807,-3.3807,-3.3807,-3.3807,-3.3807,-3.3807,-3.3762,-3.355,-3.3465,-3.3328,-3.2647,-3.1643,-3.061,-2.9779,-2.9018,-2.8411,-2.8003,-2.7455,-2.7051,-2.7206,-2.6954,-2.6775,-2.704,-2.6886,-2.7103,-2.8508,-2.8729,-2.9123,-3.0538,-3.0767,-3.0646,-3.0225,-3.0399,-3.038,-2.9811,-3.0128,-3.0458,-3.0603,-3.0598,-3.0632,-3.0683,-3.1004,-3.1055,-3.0717,-3.1079,-3.0832,-2.9821,-2.954,-2.9406,-2.9406,-2.8334,-2.7557,-2.7078,-2.7143,-2.7176,-2.7176,-2.8058,-2.8503,-2.8557,-2.835,-2.7897,-2.7391,-2.7636,-2.7876,-2.8013,-2.757,-2.7397,-2.7442,-2.7914,-2.8477,-2.8975,-5.0125,-5.0202,-5.0164,-5.0279,-4.9702,-4.9163,-4.9048,-4.8394,-4.7625,-4.6817,-4.6702,-4.6433,-4.5682,-4.5586,-4.5586,-4.5586,-4.6294,-4.639,-4.5643,-4.5586,-4.5322,-4.4682,-4.465,-4.428,-4.3594,-4.3275,-4.2359,-4.0744,-3.9368,-3.8707,-3.8707,-3.8707,-3.8212,-3.7312,-3.7312,-3.6395,-3.4807,-3.4807,-3.4431,-3.3807,-3.3807,-3.3807,-3.3807,-3.3807,-3.3807,-3.3807,-3.3807,-3.3807,-3.3807,-3.3807,-3.3807,-3.377,-3.366,-3.3623,-3.3613,-3.3464,-3.1919,-3.0202,-3.0202,-2.9169,-2.8065,-2.801,-2.7467,-2.7121,-2.7741,-2.7413,-2.7089,-2.7625,-2.7448,-2.7661,-2.9278,-3.0024,-3.0693,-3.1616,-3.1875,-3.173,-3.1083,-3.0576,-3.0307,-3.0578,-3.046,-3.059,-3.114,-3.119,-3.0937,-3.0311,-3.0852,-3.092,-3.0311,-3.0852,-3.0975,-3.0435,-2.9935,-2.9625,-2.9528,-2.907,-2.8967,-2.9258,-2.8743,-2.8495,-2.8511,-2.9597,-2.982,-2.9347,-2.9871,-2.9475,-2.8525,-2.8941,-2.9321,-2.9527,-2.8735,-2.8424,-2.8558,-2.9479,-2.9709,-2.97,-4.8336,-4.7971,-4.7702,-4.8375,-4.8394,-4.8067,-4.7394,-4.7182,-4.6778,-4.5913,-4.5797,-4.574,-4.5605,-4.5586,-4.5586,-4.5586,-4.5719,-4.5738,-4.5605,-4.5586,-4.5419,-4.5052,-4.4732,-4.439,-4.3938,-4.2313,-4.0694,-3.9074,-3.8836,-3.8707,-3.8707,-3.8707,-3.7918,-3.6486,-3.6486,-3.555,-3.399,-3.399,-3.3917,-3.3807,-3.3807,-3.3807,-3.3807,-3.3807,-3.3807,-3.3807,-3.3807,-3.3807,-3.3807,-3.3807,-3.3807,-3.3678,-3.2999,-3.2797,-3.2651,-3.1978,-3.1041,-3.0184,-3.0184,-2.9527,-2.8767,-2.8394,-2.8236,-2.8094,-2.7936,-2.7929,-2.8135,-2.8735,-2.9148,-2.9864,-3.1376,-3.1191,-3.1384,-3.313,-3.1983,-3.106,-3.1715,-3.1045,-3.0508,-3.0578,-3.1181,-3.1534,-3.123,-3.119,-3.114,-3.1038,-3.114,-3.114,-3.1038,-3.114,-3.1151,-3.1055,-3.0975,-3.0633,-2.999,-3.0516,-3.0169,-2.907,-2.9555,-2.9808,-2.9808,-3.0019,-3.0378,-3.0818,-3.0328,-2.9968,-2.9783,-2.9644,-2.9389,-2.9113,-2.9372,-2.9468,-2.9542,-3.0209,-3.1095,-3.2001,-4.7932,-4.7798,-4.7663,-4.8048,-4.774,-4.7336,-4.6971,-4.6509,-4.6067,-4.5643,-4.5586,-4.5586,-4.5586,-4.5586,-4.5586,-4.5586,-4.5586,-4.5586,-4.5586,-4.5586,-4.5438,-4.5118,-4.4943,-4.4461,-4.3622,-4.2333,-4.095,-3.956,-3.9145,-3.8844,-3.8707,-3.8707,-3.7845,-3.6303,-3.6303,-3.5367,-3.3807,-3.3807,-3.3807,-3.3807,-3.3807,-3.3807,-3.3807,-3.3807,-3.3807,-3.3807,-3.3807,-3.3807,-3.3807,-3.3807,-3.3807,-3.3642,-3.268,-3.2478,-3.2386,-3.1304,-3.0607,-3.0118,-2.9677,-2.9292,-2.897,-2.8773,-2.8565,-2.842,-2.8482,-2.8829,-2.9269,-2.9807,-3.1008,-3.2216,-3.2871,-3.2721,-3.2598,-3.3091,-3.2695,-3.2155,-3.1673,-3.1747,-3.1623,-3.0996,-3.1281,-3.1445,-3.123,-3.119,-3.119,-3.119,-3.119,-3.119,-3.119,-3.119,-3.119,-3.119,-3.119,-3.1038,-3.07,-3.1021,-3.0852,-3.0176,-3.0531,-3.0683,-3.0683,-3.0683,-3.0869,-3.1173,-3.0835,-3.0683,-3.0683,-3.0573,-3.0404,-3.023,-3.0791,-3.1001,-3.1067,-3.1673,-3.2264,-3.2738,-4.7394,-4.7528,-4.7528,-4.7528,-4.7009,-4.6605,-4.6605,-4.6028,-4.5586,-4.5586,-4.5586,-4.5586,-4.5586,-4.5586,-4.5586,-4.5586,-4.5586,-4.5586,-4.5586,-4.5586,-4.5495,-4.5222,-4.4954,-4.4249,-4.307,-4.2233,-4.1218,-4.0002,-3.9397,-3.8961,-3.8707,-3.8707,-3.7845,-3.6303,-3.6303,-3.5367,-3.3807,-3.3807,-3.3807,-3.3807,-3.3807,-3.3807,-3.3807,-3.3807,-3.3807,-3.3807,-3.3807,-3.3807,-3.3807,-3.3807,-3.3807,-3.3587,-3.2405,-3.2276,-3.2276,-3.0693,-3.0198,-3.0026,-2.9237,-2.8994,-2.8994,-2.8994,-2.8773,-2.8633,-2.8929,-2.9497,-3.0124,-3.0666,-3.2228,-3.3561,-3.3761,-3.3797,-3.3652,-3.3246,-3.3529,-3.3396,-3.2188,-3.2574,-3.2629,-3.1617,-3.1487,-3.1487,-3.1487,-3.1462,-3.1402,-3.1402,-3.1286,-3.119,-3.119,-3.119,-3.119,-3.119,-3.119,-3.119,-3.119,-3.119,-3.119,-3.119,-3.119,-3.119,-3.119,-3.119,-3.119,-3.119,-3.119,-3.119,-3.119,-3.119,-3.1269,-3.1406,-3.1871,-3.2106,-3.2249,-3.2834,-3.3033,-3.303,-4.5759,-4.5778,-4.5778,-4.5778,-4.574,-4.5701,-4.5701,-4.5624,-4.5586,-4.5586,-4.5586,-4.5586,-4.5586,-4.5586,-4.5586,-4.5586,-4.5586,-4.5586,-4.5586,-4.5586,-4.5586,-4.5568,-4.4491,-4.3369,-4.2203,-4.1336,-4.0329,-3.9192,-3.9117,-3.8961,-3.8707,-3.8707,-3.7845,-3.6303,-3.6303,-3.5367,-3.3807,-3.3807,-3.3807,-3.3807,-3.3807,-3.3807,-3.3807,-3.3807,-3.3807,-3.3807,-3.3807,-3.3807,-3.3807,-3.3807,-3.3807,-3.3532,-3.1953,-3.199,-3.2129,-2.98,-2.9641,-3.0026,-2.9237,-2.8994,-2.8994,-2.8994,-2.8994,-2.8952,-2.8994,-2.9593,-3.04,-3.1176,-3.2056,-3.2918,-3.3652,-3.3788,-3.4036,-3.4697,-3.4247,-3.389,-3.4135,-3.3514,-3.2862,-3.2433,-3.2417,-3.2417,-3.2417,-3.2161,-3.2033,-3.2033,-3.1534,-3.119,-3.119,-3.119,-3.119,-3.119,-3.119,-3.119,-3.119,-3.119,-3.119,-3.119,-3.119,-3.119,-3.119,-3.119,-3.119,-3.119,-3.119,-3.119,-3.119,-3.119,-3.1411,-3.1752,-3.1789,-3.2092,-3.2535,-3.3001,-3.319,-3.325,-4.5586,-4.5586,-4.5586,-4.5586,-4.5586,-4.5586,-4.5586,-4.5586,-4.5586,-4.5586,-4.5586,-4.5586,-4.5586,-4.5586,-4.5586,-4.5586,-4.5586,-4.5586,-4.5586,-4.5586,-4.5355,-4.4816,-4.4355,-4.3422,-4.1954,-4.1589,-4.0864,-3.9718,-3.9724,-3.9552,-3.9268,-3.9268,-3.867,-3.7611,-3.7597,-3.6689,-3.5076,-3.4921,-3.4531,-3.4036,-3.3862,-3.3807,-3.3807,-3.3807,-3.3807,-3.3807,-3.3807,-3.3807,-3.3807,-3.3807,-3.3807,-3.3605,-3.2485,-3.2357,-3.232,-3.0907,-3.0705,-3.087,-3.0577,-3.0485,-3.0558,-3.0901,-3.0485,-3.0088,-3.0411,-3.0485,-3.0764,-3.1909,-3.2779,-3.344,-3.3733,-3.3807,-3.3899,-3.4211,-3.4009,-3.3762,-3.3659,-3.3539,-3.3273,-3.2568,-3.2973,-3.3184,-3.2834,-3.3032,-3.272,-3.1602,-3.1342,-3.1215,-3.1199,-3.121,-3.119,-3.119,-3.119,-3.119,-3.119,-3.119,-3.119,-3.119,-3.119,-3.119,-3.119,-3.119,-3.119,-3.119,-3.119,-3.119,-3.119,-3.119,-3.1449,-3.1825,-3.2127,-3.25,-3.2983,-3.3419,-3.3578,-3.3578,-4.5586,-4.5586,-4.5586,-4.5586,-4.5586,-4.5586,-4.5586,-4.5586,-4.5586,-4.5586,-4.5586,-4.5586,-4.5586,-4.5586,-4.5586,-4.5586,-4.5586,-4.5586,-4.5586,-4.5586,-4.5316,-4.472,-4.4201,-4.3374,-4.2239,-4.1681,-4.0976,-4.0087,-4.01,-3.9922,-3.9599,-3.9599,-3.9165,-3.8395,-3.8094,-3.7202,-3.5878,-3.5432,-3.4847,-3.4175,-3.4009,-3.3895,-3.3807,-3.3807,-3.3807,-3.3807,-3.3807,-3.3807,-3.3807,-3.3807,-3.3807,-3.366,-3.2852,-3.243,-3.2173,-3.1861,-3.177,-3.177,-3.177,-3.1953,-3.2162,-3.2176,-3.1519,-3.0949,-3.1329,-3.1247,-3.1323,-3.2059,-3.3065,-3.3807,-3.3807,-3.3807,-3.3807,-3.3807,-3.4009,-3.4,-3.3455,-3.3855,-3.3876,-3.3019,-3.3445,-3.3656,-3.3288,-3.3566,-3.3291,-3.2119,-3.2024,-3.1863,-3.1493,-3.1493,-3.1419,-3.119,-3.119,-3.1252,-3.1389,-3.1489,-3.141,-3.119,-3.1567,-3.1567,-3.119,-3.1312,-3.1312,-3.119,-3.119,-3.1252,-3.1389,-3.1389,-3.1733,-3.2264,-3.2598,-3.3014,-3.3455,-3.4,-3.4027,-3.3844,-4.5586,-4.5586,-4.5586,-4.5586,-4.5586,-4.5586,-4.5586,-4.5586,-4.5586,-4.5586,-4.5586,-4.5586,-4.5586,-4.5586,-4.5586,-4.5586,-4.5586,-4.5586,-4.5586,-4.5586,-4.5586,-4.5586,-4.3989,-4.3104,-4.3104,-4.1393,-4.0392,-4.0101,-4.0101,-3.9922,-3.9599,-3.9599,-3.9188,-3.8376,-3.7507,-3.6686,-3.5849,-3.504,-3.4524,-3.42,-3.42,-3.4043,-3.3807,-3.3807,-3.3807,-3.3807,-3.3788,-3.3788,-3.3788,-3.3807,-3.3807,-3.366,-3.2871,-3.2063,-3.1568,-3.2394,-3.2614,-3.2614,-3.2614,-3.3201,-3.3558,-3.247,-3.1801,-3.1403,-3.1403,-3.1836,-3.2059,-3.1532,-3.2682,-3.3807,-3.3807,-3.3807,-3.3807,-3.3807,-3.4486,-3.4715,-3.3935,-3.4504,-3.4679,-3.3899,-3.3807,-3.3807,-3.3807,-3.3803,-3.381,-3.381,-3.3813,-3.3298,-3.2157,-3.2086,-3.1832,-3.123,-3.119,-3.1411,-3.1789,-3.2144,-3.1941,-3.123,-3.2431,-3.2359,-3.123,-3.164,-3.162,-3.1207,-3.1247,-3.1449,-3.1825,-3.1825,-3.2366,-3.3214,-3.3214,-3.3465,-3.3899,-3.4706,-3.4504,-3.3917,-4.5586,-4.5586,-4.5586,-4.5586,-4.5586,-4.5586,-4.5586,-4.5586,-4.5586,-4.5586,-4.5586,-4.5586,-4.5586,-4.5586,-4.5586,-4.5586,-4.5586,-4.5586,-4.5586,-4.5586,-4.5586,-4.5586,-4.4528,-4.3679,-4.3102,-4.1989,-4.138,-4.1294,-4.0679,-4.0319,-4.023,-4.023,-3.9808,-3.9023,-3.876,-3.7823,-3.6425,-3.6002,-3.5439,-3.4811,-3.4632,-3.4508,-3.442,-3.442,-3.442,-3.4398,-3.4165,-3.4093,-3.4043,-3.385,-3.3807,-3.3752,-3.3532,-3.3275,-3.3128,-3.3366,-3.344,-3.344,-3.344,-3.3623,-3.3715,-3.3393,-3.3209,-3.3073,-3.3073,-3.322,-3.3266,-3.3111,-3.3468,-3.3807,-3.3807,-3.4266,-3.4651,-3.4651,-3.4825,-3.5018,-3.4991,-3.4504,-3.4082,-3.3825,-3.3807,-3.3807,-3.3807,-3.3799,-3.3799,-3.3799,-3.3454,-3.3078,-3.2741,-3.2502,-3.23,-3.2127,-3.2127,-3.2179,-3.2282,-3.205,-3.1923,-3.1846,-3.2196,-3.2283,-3.2157,-3.2826,-3.3072,-3.2981,-3.3544,-3.3529,-3.3125,-3.3125,-3.3161,-3.3214,-3.3214,-3.3465,-3.3825,-3.4082,-3.4009,-3.3825,-4.5586,-4.5586,-4.5586,-4.5586,-4.5586,-4.5586,-4.5586,-4.5586,-4.5586,-4.5586,-4.5586,-4.5586,-4.5586,-4.5586,-4.5586,-4.5586,-4.5586,-4.5586,-4.5586,-4.5586,-4.5586,-4.5586,-4.5086,-4.4295,-4.3121,-4.2239,-4.1643,-4.1296,-4.0758,-4.0489,-4.0489,-4.0489,-3.9988,-3.9084,-3.8888,-3.8007,-3.6671,-3.6205,-3.5634,-3.5092,-3.4904,-3.4794,-3.4694,-3.4694,-3.4694,-3.4674,-3.4467,-3.4292,-3.4195,-3.4018,-3.3876,-3.3807,-3.3807,-3.3807,-3.3807,-3.3807,-3.3807,-3.3807,-3.3807,-3.3807,-3.3807,-3.3807,-3.3807,-3.3807,-3.3807,-3.3807,-3.3807,-3.3807,-3.4156,-3.4476,-3.4476,-3.5037,-3.5514,-3.5514,-3.5789,-3.5954,-3.5836,-3.5202,-3.4669,-3.4321,-3.399,-3.3807,-3.3807,-3.3807,-3.3807,-3.3807,-3.3496,-3.3241,-3.3076,-3.2885,-3.2681,-3.2517,-3.2484,-3.2725,-3.3259,-3.296,-3.2789,-3.2736,-3.2924,-3.3156,-3.3494,-3.4549,-3.4725,-3.4182,-3.4694,-3.4549,-3.3987,-3.3987,-3.3944,-3.3873,-3.3546,-3.3779,-3.4284,-3.4284,-3.4082,-3.3862,-4.5586,-4.5586,-4.5586,-4.5586,-4.5586,-4.5586,-4.5586,-4.5586,-4.5586,-4.5586,-4.5586,-4.5586,-4.5586,-4.5586,-4.5586,-4.5586,-4.5586,-4.5586,-4.5586,-4.5586,-4.5586,-4.5586,-4.5586,-4.4816,-4.3143,-4.2316,-4.1489,-4.0623,-4.0527,-4.0489,-4.0489,-4.0489,-3.9873,-3.8704,-3.8234,-3.7483,-3.6546,-3.5815,-3.5369,-3.5155,-3.5134,-3.4996,-3.4774,-3.4774,-3.4774,-3.4754,-3.4734,-3.4551,-3.4269,-3.4246,-3.4068,-3.3842,-3.3842,-3.3815,-3.3807,-3.3807,-3.3807,-3.3807,-3.3807,-3.3807,-3.3807,-3.3807,-3.3807,-3.3825,-3.3899,-3.3844,-3.3844,-3.399,-3.4789,-3.5468,-3.556,-3.6038,-3.6413,-3.6413,-3.7,-3.7287,-3.6626,-3.6376,-3.6028,-3.5293,-3.4504,-3.399,-3.3917,-3.3844,-3.3807,-3.3807,-3.3807,-3.3634,-3.3273,-3.3243,-3.3081,-3.2722,-3.2651,-3.3269,-3.4545,-3.4491,-3.4249,-3.3857,-3.439,-3.4852,-3.5294,-3.6624,-3.6501,-3.5224,-3.5224,-3.4963,-3.4563,-3.4563,-3.4702,-3.4825,-3.4174,-3.4321,-3.4899,-3.4954,-3.4504,-3.3954,-4.5586,-4.5586,-4.5586,-4.5586,-4.5586,-4.5586,-4.5586,-4.5586,-4.5586,-4.5586,-4.5586,-4.5586,-4.5586,-4.5586,-4.5586,-4.5586,-4.5586,-4.5586,-4.5586,-4.5586,-4.5586,-4.5586,-4.5586,-4.4816,-4.3143,-4.2912,-4.2393,-4.1527,-4.0835,-4.0489,-4.0489,-4.0489,-3.9662,-3.818,-3.8046,-3.7161,-3.5757,-3.557,-3.5479,-3.5398,-3.5402,-3.5374,-3.5339,-3.5339,-3.5339,-3.5304,-3.5088,-3.4981,-3.487,-3.4655,-3.4379,-3.4099,-3.4099,-3.3961,-3.3807,-3.3807,-3.3807,-3.3807,-3.3807,-3.3807,-3.3807,-3.3807,-3.3807,-3.3972,-3.4614,-3.4266,-3.4174,-3.5495,-3.5422,-3.533,-3.5991,-3.6725,-3.7221,-3.7221,-3.7397,-3.7654,-3.8129,-3.7095,-3.6405,-3.6618,-3.6111,-3.5495,-3.4816,-3.4174,-3.3807,-3.3807,-3.3807,-3.3762,-3.3662,-3.368,-3.3899,-3.4433,-3.385,-3.429,-3.5875,-3.5188,-3.4954,-3.5121,-3.6055,-3.6991,-3.7872,-3.8217,-3.8199,-3.7872,-3.7872,-3.7131,-3.5893,-3.5893,-3.5154,-3.4119,-3.4578,-3.4468,-3.4137,-3.4752,-3.4504,-3.3844,-4.5586,-4.5586,-4.5586,-4.5586,-4.5586,-4.5586,-4.5586,-4.5586,-4.5586,-4.5586,-4.5586,-4.5586,-4.5586,-4.5586,-4.5586,-4.5586,-4.5586,-4.5586,-4.5586,-4.5586,-4.5393,-4.5007,-4.497,-4.4198,-4.2505,-4.247,-4.2047,-4.1181,-4.0719,-4.0489,-4.0489,-3.9931,-3.895,-3.7589,-3.7051,-3.632,-3.5493,-3.5493,-3.5493,-3.5493,-3.5493,-3.5493,-3.5493,-3.5493,-3.5493,-3.5493,-3.5354,-3.5207,-3.507,-3.4774,-3.4572,-3.4423,-3.4423,-3.4218,-3.4018,-3.4184,-3.4111,-3.3986,-3.3986,-3.3986,-3.3961,-3.3842,-3.3807,-3.3917,-3.4339,-3.4412,-3.4633,-3.5514,-3.5954,-3.6321,-3.678,-3.7533,-3.8065,-3.8065,-3.8065,-3.8224,-3.8621,-3.7636,-3.6993,-3.7261,-3.6486,-3.553,-3.4531,-3.4055,-3.3807,-3.3807,-3.4174,-3.4376,-3.4376,-3.4532,-3.4797,-3.5219,-3.5312,-3.555,-3.5893,-3.6109,-3.6476,-3.7028,-3.7088,-3.7649,-3.8707,-3.8707,-3.8707,-3.8707,-3.8707,-3.7991,-3.6835,-3.645,-3.5771,-3.4963,-3.4596,-3.4412,-3.4394,-3.4412,-3.4144,-3.3802,-4.5586,-4.5586,-4.5586,-4.5586,-4.5586,-4.5586,-4.5586,-4.5586,-4.5586,-4.5586,-4.5586,-4.5586,-4.5586,-4.5586,-4.5586,-4.5586,-4.5586,-4.5586,-4.5586,-4.5586,-4.5295,-4.4545,-4.4391,-4.3583,-4.2059,-4.1889,-4.1373,-4.0489,-4.0489,-4.0489,-4.0469,-3.9392,-3.8319,-3.73,-3.619,-3.5633,-3.5493,-3.5493,-3.5493,-3.5493,-3.5493,-3.5493,-3.5493,-3.5493,-3.5493,-3.5493,-3.5493,-3.5354,-3.5122,-3.4908,-3.4812,-3.4754,-3.4754,-3.4551,-3.4334,-3.4632,-3.4508,-3.4288,-3.4288,-3.4288,-3.4242,-3.4012,-3.3954,-3.3991,-3.412,-3.4604,-3.5064,-3.5357,-3.6523,-3.7533,-3.7661,-3.8248,-3.8707,-3.8707,-3.8707,-3.8707,-3.8707,-3.812,-3.7698,-3.7698,-3.6567,-3.5392,-3.4347,-3.3982,-3.389,-3.4073,-3.4715,-3.5137,-3.521,-3.5402,-3.5575,-3.5758,-3.6552,-3.667,-3.6054,-3.6886,-3.7771,-3.8689,-3.7796,-3.7833,-3.8707,-3.8707,-3.8707,-3.8707,-3.8707,-3.8175,-3.7221,-3.6578,-3.6119,-3.5752,-3.4486,-3.4339,-3.4724,-3.4081,-3.3833,-3.3794,-4.5586,-4.5586,-4.5586,-4.5586,-4.5586,-4.5586,-4.5586,-4.5586,-4.5586,-4.5586,-4.5586,-4.5586,-4.5586,-4.5586,-4.5586,-4.5586,-4.5586,-4.5586,-4.5586,-4.5586,-4.5547,-4.5413,-4.4696,-4.3885,-4.2931,-4.2194,-4.1366,-4.0489,-4.0489,-4.0489,-4.0469,-3.9623,-3.8757,-3.7853,-3.6935,-3.6147,-3.5493,-3.5493,-3.5493,-3.5493,-3.5493,-3.5493,-3.5493,-3.5493,-3.5493,-3.5493,-3.5493,-3.5479,-3.5446,-3.5398,-3.5239,-3.5053,-3.5053,-3.4851,-3.4653,-3.4674,-3.4674,-3.4632,-3.4632,-3.4632,-3.4632,-3.4591,-3.4591,-3.476,-3.5459,-3.5299,-3.5422,-3.6853,-3.7331,-3.7698,-3.8414,-3.8634,-3.8707,-3.8707,-3.8707,-3.8707,-3.8707,-3.8615,-3.8542,-3.8542,-3.7558,-3.6648,-3.6022,-3.4655,-3.4217,-3.5209,-3.5373,-3.564,-3.6101,-3.5732,-3.5923,-3.6861,-3.6578,-3.7019,-3.8255,-3.7058,-3.7234,-3.8707,-3.856,-3.856,-3.8707,-3.8707,-3.8707,-3.8707,-3.8707,-3.7845,-3.645,-3.634,-3.544,-3.4174,-3.4669,-3.4486,-3.3981,-3.4105,-3.3994,-3.3876,-4.5586,-4.5586,-4.5586,-4.5586,-4.5586,-4.5586,-4.5586,-4.5586,-4.5586,-4.5586,-4.5586,-4.5586,-4.5586,-4.5586,-4.5586,-4.5586,-4.5586,-4.5586,-4.5586,-4.5586,-4.5182,-4.4239,-4.3833,-4.3006,-4.1681,-4.1274,-4.0889,-4.0489,-4.0489,-4.0489,-4.0469,-3.9181,-3.8373,-3.795,-3.6622,-3.5834,-3.5493,-3.5493,-3.5493,-3.5493,-3.5493,-3.5493,-3.5493,-3.5493,-3.5493,-3.5493,-3.5493,-3.5493,-3.5493,-3.5493,-3.5432,-3.532,-3.532,-3.5138,-3.4944,-3.5105,-3.5034,-3.4926,-3.4926,-3.4926,-3.4889,-3.4734,-3.4694,-3.4902,-3.5715,-3.6047,-3.6454,-3.7516,-3.7956,-3.8267,-3.8634,-3.8707,-3.8707,-3.8707,-3.8707,-3.8707,-3.8707,-3.8707,-3.8707,-3.8707,-3.826,-3.7904,-3.7654,-3.6974,-3.6746,-3.7245,-3.6725,-3.6512,-3.6714,-3.7099,-3.7503,-3.7961,-3.7771,-3.7973,-3.8689,-3.8016,-3.8016,-3.8707,-3.8707,-3.8707,-3.8707,-3.8707,-3.8707,-3.8707,-3.8707,-3.8046,-3.6927,-3.6486,-3.5587,-3.4468,-3.4534,-3.4451,-3.4325,-3.4517,-3.4523,-3.449]}]]